[[{"header":{"parameterUnit":"m.s-1","parameterCategory":1,"la1":31.0,"la2":29.5877,"lo1":-88.7671,"lo2":-86.6584,"dy":0.0162,"dx":0.0185,"nx":115,"ny":88,"refTime":"2024-02-03T06:00:00:Z","depth":0,"parameterNumber":2,"parameterNumberName":"U-component_of_WINDS"},"data":[0.0,0.0,0.0,0.0,0.0,0.0,0.0,0.0,0.0,0.0,0.0,0.0,0.0,0.0,0.0,0.0,0.0,0.0,0.0,0.0,0.0,0.0,0.0,0.0,0.0,0.0,0.0,0.0,0.0,0.0,0.0,0.0,0.0,0.0,0.0,0.0,0.0,0.0,0.0,0.0,0.0,0.0,0.0,0.0,0.0,0.0,0.0,0.0,0.0,0.0,0.0,0.0,0.0,0.0,0.0,0.0,0.0,0.0,0.0,0.0,0.0,0.0,0.0,0.0,0.0,0.0,0.0,0.0,0.0,0.0,0.0,0.0,0.0,0.0,0.0,0.0,0.0,0.0,0.0,0.0,0.0,0.0,0.0,0.0,0.0,0.0,0.0,0.0,0.0,0.0,0.0,0.0,0.0,0.0,0.0,0.0,0.0,0.0,0.0,0.0,0.0,0.0,0.0,0.0,0.0,0.0,0.0,0.0,0.0,0.0,0.0,0.0,0.0,0.0,0.0,0.0,0.0,0.0,0.0,0.0,0.0,0.0,0.0,0.0,0.0,0.0,0.0,0.0,0.0,0.0,0.0,0.0,0.0,0.0,0.0,0.0,0.0,0.0,0.0,0.0,0.0,0.0,0.0,0.0,0.0,0.0,0.0,0.0,0.0,0.0,0.0,0.0,0.0,0.0,0.0,0.0,0.0,0.0,0.0,0.0,0.0,0.0,0.0,0.0,0.0,0.0,0.0,0.0,0.0,0.0,0.0,0.0,0.0,0.0,0.0,0.0,0.0,0.0,0.0,0.0,0.0,0.0,0.0,0.0,0.0,0.0,0.0,0.0,0.0,0.0,0.0,0.0,0.0,0.0,0.0,0.0,0.0,0.0,0.0,0.0,0.0,0.0,0.0,0.0,0.0,0.0,0.0,0.0,0.0,0.0,0.0,0.0,0.0,0.0,0.0,0.0,0.0,0.0,0.0,0.0,0.0,0.0,0.0,0.0,0.0,0.0,0.0,0.0,0.0,0.0,0.0,0.0,0.0,0.0,0.0,0.0,0.0,0.0,0.0,0.0,0.0,0.0,0.0,0.0,0.0,0.0,0.0,0.0,0.0,0.0,0.0,0.0,0.0,0.0,0.0,0.0,0.0,0.0,0.0,0.0,0.0,0.0,0.0,0.0,0.0,0.0,0.0,0.0,0.0,0.0,0.0,0.0,0.0,0.0,0.0,0.0,0.0,0.0,0.0,0.0,0.0,0.0,0.0,0.0,0.0,0.0,0.0,0.0,0.0,0.0,0.0,0.0,0.0,0.0,0.0,0.0,0.0,0.0,0.0,0.0,0.0,0.0,0.0,0.0,0.0,0.0,0.0,0.0,0.0,0.0,0.0,0.0,0.0,0.0,0.0,0.0,0.0,0.0,0.0,0.0,0.0,0.0,0.0,0.0,0.0,0.0,0.0,0.0,0.0,0.0,0.0,0.0,0.0,0.0,0.0,0.0,0.0,0.0,0.0,0.0,0.0,0.0,0.0,0.0,0.0,0.0,0.0,0.0,0.0,0.0,0.0,0.0,0.0,0.0,0.0,0.0,0.0,0.0,0.0,0.0,0.0,0.0,0.0,0.0,0.0,0.0,0.0,0.0,0.0,0.0,0.0,0.0,0.0,0.0,0.0,0.0,0.0,0.0,0.0,0.0,0.0,0.0,0.0,0.0,0.0,0.0,0.0,0.0,0.0,0.0,0.0,0.0,0.0,0.0,0.0,0.0,0.0,0.0,0.0,0.0,0.0,0.0,0.0,0.0,0.0,0.0,0.0,0.0,0.0,0.0,0.0,0.0,0.0,0.0,0.0,0.0,0.0,0.0,0.0,0.0,0.0,0.0,0.0,0.0,0.0,0.0,0.0,0.0,0.0,0.0,0.0,0.0,0.0,0.0,0.0,0.0,0.0,0.0,0.0,0.0,0.0,0.0,0.0,0.0,0.0,0.0,0.0,0.0,0.0,0.0,0.0,0.0,0.0,0.0,0.0,0.0,0.0,0.0,0.0,0.0,0.0,0.0,0.0,0.0,0.0,0.0,0.0,0.0,0.0,0.0,0.0,0.0,0.0,0.0,0.0,0.0,0.0,0.0,0.0,0.0,0.0,0.0,0.0,0.0,0.0,0.0,0.0,0.0,0.0,0.0,0.0,0.0,0.0,0.0,0.0,0.0,0.0,0.0,0.0,0.0,0.0,0.0,0.0,0.0,0.0,0.0,0.0,0.0,0.0,0.0,0.0,0.0,0.0,0.0,0.0,0.0,0.0,0.0,0.0,0.0,0.0,0.0,0.0,0.0,0.0,0.0,0.0,0.0,0.0,0.0,0.0,0.0,0.0,0.0,0.0,0.0,0.0,0.0,0.0,0.0,0.0,0.0,0.0,0.0,0.0,0.0,0.0,0.0,0.0,0.0,0.0,0.0,0.0,0.0,0.0,0.0,0.0,0.0,0.0,0.0,0.0,0.0,0.0,0.0,0.0,0.0,0.0,0.0,0.0,0.0,0.0,0.0,0.0,0.0,0.0,0.0,0.0,0.0,0.0,0.0,0.0,0.0,0.0,0.0,0.0,0.0,0.0,0.0,0.0,0.0,0.0,0.0,0.0,0.0,0.0,0.0,0.0,0.0,0.0,0.0,0.0,0.0,0.0,0.0,0.0,0.0,0.0,0.0,0.0,0.0,0.0,0.0,0.0,0.0,0.0,0.0,0.0,0.0,0.0,0.0,0.0,0.0,0.0,0.0,0.0,0.0,0.0,0.0,0.0,0.0,0.0,0.0,0.0,0.0,0.0,0.0,0.0,0.0,0.0,0.0,0.0,0.0,0.0,0.0,0.0,0.0,0.0,0.0,0.0,0.0,0.0,0.0,0.0,0.0,0.0,0.0,0.0,0.0,0.0,0.0,0.0,0.0,0.0,0.0,0.0,0.0,0.0,0.0,0.0,0.0,0.0,0.0,0.0,0.0,0.0,0.0,0.0,0.0,0.0,0.0,0.0,0.0,0.0,0.0,0.0,0.0,0.0,0.0,0.0,0.0,0.0,0.0,0.0,0.0,0.0,0.0,0.0,0.0,0.0,0.0,0.0,0.0,0.0,0.0,0.0,0.0,0.0,0.0,0.0,0.0,0.0,0.0,0.0,0.0,0.0,0.0,0.0,0.0,0.0,0.0,0.0,0.0,0.0,0.0,0.0,0.0,0.0,0.0,0.0,0.0,0.0,0.0,0.0,0.0,0.0,0.0,0.0,0.0,0.0,0.0,0.0,0.0,0.0,0.0,0.0,0.0,0.0,0.0,0.0,0.0,0.0,0.0,0.0,0.0,0.0,0.0,0.0,0.0,0.0,0.0,0.0,0.0,0.0,0.0,0.0,0.0,0.0,0.0,0.0,0.0,0.0,0.0,0.0,0.0,0.0,0.0,0.0,0.0,0.0,0.0,0.0,0.0,0.0,0.0,0.0,0.0,0.0,0.0,0.0,0.0,0.0,0.0,0.0,0.0,0.0,0.0,0.0,0.0,0.0,0.0,0.0,0.0,0.0,0.0,0.0,0.0,0.0,0.0,0.0,0.0,0.0,0.0,0.0,0.0,0.0,0.0,0.0,0.0,0.0,0.0,0.0,0.0,0.0,0.0,0.0,0.0,0.0,0.0,0.0,0.0,0.0,0.0,0.0,0.0,0.0,0.0,0.0,0.0,0.0,0.0,0.0,0.0,0.0,0.0,0.0,0.0,0.0,0.0,0.0,0.0,0.0,0.0,0.0,0.0,0.0,0.0,0.0,0.0,0.0,0.0,0.0,0.0,0.0,0.0,0.0,0.0,0.0,0.0,0.0,0.0,0.0,0.0,0.0,0.0,0.0,0.0,0.0,0.0,0.0,0.0,0.0,0.0,0.0,0.0,0.0,0.0,0.0,0.0,0.0,0.0,0.0,0.0,0.0,0.0,0.0,0.0,0.0,0.0,0.0,0.0,0.0,0.0,0.0,0.0,0.0,0.0,0.0,0.0,0.0,0.0,0.0,0.0,0.0,0.0,0.0,0.0,0.0,0.0,0.0,0.0,0.0,0.0,0.0,0.0,0.0,0.0,0.0,0.0,0.0,0.0,0.0,0.0,0.0,0.0,0.0,0.0,0.0,0.0,0.0,0.0,0.0,0.0,0.0,0.0,0.0,0.0,0.0,0.0,0.0,0.0,0.0,0.0,0.0,0.0,0.0,0.0,0.0,0.0,0.0,0.0,0.0,0.0,0.0,0.0,0.0,0.0,4.5586,0.0,0.0,0.0,0.0,0.0,0.0,0.0,0.0,0.0,0.0,0.0,0.0,0.0,0.0,0.0,0.0,0.0,0.0,0.0,0.0,0.0,0.0,0.0,0.0,0.0,0.0,0.0,0.0,0.0,0.0,0.0,0.0,0.0,0.0,0.0,0.0,0.0,0.0,0.0,0.0,0.0,0.0,0.0,0.0,0.0,0.0,0.0,0.0,0.0,0.0,0.0,0.0,0.0,0.0,0.0,0.0,0.0,0.0,0.0,0.0,0.0,0.0,0.0,0.0,0.0,0.0,0.0,0.0,0.0,0.0,0.0,0.0,0.0,0.0,0.0,0.0,0.0,0.0,0.0,0.0,0.0,0.0,0.0,0.0,0.0,0.0,0.0,0.0,0.0,0.0,0.0,0.0,0.0,0.0,0.0,0.0,0.0,0.0,0.0,0.0,0.0,0.0,0.0,0.0,0.0,0.0,0.0,0.0,0.0,0.0,4.5586,4.5586,4.5586,4.5586,4.5586,0.0,0.0,0.0,0.0,0.0,0.0,0.0,0.0,0.0,0.0,0.0,0.0,0.0,0.0,0.0,0.0,0.0,0.0,0.0,0.0,0.0,0.0,0.0,0.0,0.0,0.0,0.0,0.0,0.0,0.0,0.0,0.0,0.0,0.0,0.0,0.0,0.0,0.0,0.0,0.0,0.0,0.0,0.0,0.0,0.0,0.0,0.0,0.0,0.0,0.0,0.0,0.0,0.0,0.0,0.0,0.0,0.0,0.0,0.0,0.0,0.0,0.0,0.0,0.0,0.0,0.0,0.0,0.0,0.0,0.0,0.0,0.0,0.0,0.0,0.0,0.0,0.0,0.0,0.0,0.0,0.0,0.0,0.0,0.0,0.0,0.0,0.0,0.0,0.0,0.0,0.0,0.0,0.0,0.0,0.0,0.0,0.0,0.0,0.0,0.0,0.0,0.0,0.0,0.0,0.0,0.0,0.0,0.0,0.0,0.0,0.0,0.0,4.5586,4.5586,4.5586,0.0,0.0,0.0,0.0,0.0,0.0,0.0,0.0,0.0,0.0,0.0,0.0,0.0,0.0,0.0,0.0,0.0,0.0,0.0,0.0,0.0,0.0,0.0,0.0,0.0,0.0,0.0,0.0,0.0,0.0,0.0,0.0,0.0,0.0,0.0,0.0,0.0,0.0,0.0,0.0,0.0,0.0,0.0,0.0,0.0,0.0,0.0,0.0,0.0,0.0,0.0,0.0,0.0,0.0,0.0,0.0,0.0,0.0,0.0,0.0,0.0,0.0,0.0,0.0,0.0,0.0,0.0,0.0,0.0,0.0,0.0,0.0,0.0,0.0,0.0,0.0,0.0,0.0,0.0,0.0,0.0,0.0,0.0,0.0,0.0,0.0,0.0,0.0,0.0,0.0,0.0,0.0,0.0,0.0,0.0,0.0,0.0,0.0,0.0,0.0,0.0,0.0,0.0,0.0,0.0,0.0,0.0,0.0,0.0,0.0,4.5586,4.5586,4.5586,0.0,4.5586,0.0,0.0,0.0,0.0,0.0,0.0,0.0,0.0,0.0,0.0,0.0,0.0,0.0,0.0,0.0,0.0,0.0,0.0,0.0,0.0,0.0,0.0,0.0,0.0,0.0,0.0,0.0,0.0,0.0,0.0,0.0,0.0,0.0,0.0,0.0,0.0,0.0,0.0,0.0,0.0,0.0,0.0,0.0,0.0,0.0,0.0,0.0,0.0,0.0,0.0,0.0,0.0,0.0,0.0,0.0,0.0,0.0,0.0,0.0,0.0,0.0,0.0,0.0,0.0,0.0,0.0,0.0,0.0,0.0,0.0,0.0,0.0,0.0,0.0,0.0,0.0,0.0,0.0,0.0,0.0,0.0,0.0,0.0,0.0,0.0,0.0,0.0,0.0,0.0,0.0,0.0,0.0,0.0,0.0,0.0,0.0,0.0,0.0,0.0,0.0,0.0,0.0,0.0,0.0,0.0,0.0,0.0,0.0,0.0,0.0,4.5586,4.5586,4.5586,4.5586,0.0,0.0,0.0,0.0,0.0,0.0,0.0,0.0,0.0,0.0,0.0,0.0,0.0,0.0,0.0,0.0,0.0,0.0,0.0,0.0,0.0,0.0,0.0,0.0,0.0,0.0,0.0,0.0,0.0,0.0,0.0,0.0,0.0,0.0,0.0,0.0,0.0,0.0,0.0,0.0,0.0,0.0,0.0,0.0,0.0,0.0,0.0,0.0,0.0,0.0,0.0,0.0,0.0,0.0,0.0,0.0,0.0,0.0,0.0,0.0,0.0,0.0,0.0,0.0,0.0,0.0,0.0,0.0,0.0,0.0,0.0,0.0,0.0,0.0,0.0,0.0,0.0,0.0,0.0,0.0,0.0,0.0,0.0,0.0,0.0,0.0,0.0,0.0,0.0,0.0,0.0,0.0,0.0,0.0,0.0,0.0,0.0,0.0,0.0,0.0,0.0,0.0,0.0,0.0,0.0,0.0,0.0,0.0,0.0,0.0,4.5586,4.5586,4.5586,4.5586,4.5586,4.5586,0.0,0.0,0.0,0.0,0.0,0.0,0.0,0.0,0.0,0.0,0.0,0.0,0.0,0.0,0.0,0.0,0.0,0.0,0.0,0.0,0.0,0.0,0.0,0.0,0.0,0.0,0.0,0.0,0.0,0.0,0.0,0.0,0.0,0.0,0.0,0.0,0.0,0.0,0.0,0.0,0.0,0.0,0.0,0.0,0.0,0.0,0.0,0.0,0.0,0.0,0.0,0.0,0.0,0.0,0.0,0.0,0.0,0.0,0.0,0.0,0.0,0.0,0.0,0.0,0.0,0.0,0.0,0.0,0.0,0.0,0.0,0.0,0.0,0.0,0.0,0.0,0.0,0.0,0.0,0.0,0.0,0.0,0.0,0.0,0.0,0.0,0.0,0.0,0.0,0.0,0.0,0.0,0.0,0.0,0.0,0.0,0.0,0.0,0.0,0.0,0.0,0.0,0.0,0.0,0.0,0.0,0.0,0.0,4.5586,4.5586,4.5586,4.5586,4.5586,4.5586,0.0,0.0,0.0,0.0,0.0,0.0,0.0,0.0,0.0,0.0,0.0,0.0,0.0,0.0,0.0,0.0,0.0,0.0,0.0,0.0,0.0,0.0,0.0,0.0,0.0,0.0,0.0,0.0,0.0,0.0,0.0,0.0,0.0,0.0,0.0,0.0,0.0,0.0,0.0,0.0,0.0,0.0,0.0,0.0,0.0,0.0,0.0,0.0,0.0,0.0,0.0,0.0,0.0,0.0,0.0,0.0,0.0,0.0,0.0,0.0,0.0,0.0,0.0,0.0,0.0,0.0,0.0,0.0,0.0,0.0,0.0,0.0,0.0,0.0,0.0,0.0,0.0,0.0,0.0,0.0,0.0,0.0,0.0,0.0,0.0,0.0,0.0,0.0,0.0,0.0,0.0,0.0,0.0,0.0,0.0,0.0,0.0,0.0,0.0,0.0,0.0,0.0,0.0,0.0,0.0,0.0,0.0,0.0,0.0,4.5586,4.5586,4.5586,4.5586,4.5586,4.5586,0.0,0.0,0.0,0.0,0.0,0.0,0.0,0.0,0.0,0.0,0.0,0.0,0.0,0.0,0.0,0.0,0.0,0.0,0.0,0.0,0.0,0.0,0.0,0.0,0.0,0.0,0.0,0.0,0.0,0.0,0.0,0.0,0.0,0.0,0.0,0.0,0.0,0.0,0.0,0.0,0.0,0.0,0.0,0.0,0.0,0.0,0.0,0.0,0.0,0.0,0.0,0.0,0.0,0.0,0.0,0.0,0.0,0.0,0.0,0.0,0.0,0.0,0.0,0.0,0.0,0.0,0.0,0.0,0.0,0.0,0.0,0.0,0.0,0.0,0.0,0.0,0.0,0.0,0.0,0.0,0.0,0.0,0.0,0.0,0.0,0.0,0.0,0.0,0.0,0.0,0.0,0.0,0.0,0.0,0.0,0.0,0.0,0.0,0.0,0.0,0.0,0.0,0.0,0.0,0.0,0.0,0.0,0.0,0.0,4.5586,0.0,4.5586,4.5586,4.5586,4.5586,0.0,0.0,0.0,0.0,0.0,0.0,0.0,0.0,0.0,0.0,0.0,0.0,0.0,0.0,0.0,0.0,0.0,0.0,0.0,0.0,0.0,0.0,0.0,0.0,0.0,0.0,0.0,0.0,0.0,0.0,0.0,0.0,0.0,0.0,0.0,0.0,0.0,0.0,0.0,0.0,0.0,0.0,0.0,0.0,0.0,0.0,0.0,0.0,0.0,0.0,0.0,0.0,0.0,0.0,0.0,0.0,0.0,0.0,0.0,0.0,0.0,0.0,0.0,0.0,0.0,0.0,0.0,0.0,0.0,0.0,0.0,0.0,0.0,0.0,0.0,0.0,0.0,0.0,0.0,0.0,0.0,0.0,0.0,0.0,0.0,0.0,0.0,0.0,0.0,0.0,0.0,0.0,0.0,0.0,0.0,0.0,0.0,0.0,0.0,0.0,0.0,0.0,0.0,0.0,0.0,0.0,0.0,0.0,4.5586,4.5586,4.5586,4.5624,4.5586,4.5624,4.5586,0.0,0.0,0.0,0.0,0.0,0.0,0.0,0.0,0.0,0.0,0.0,0.0,0.0,0.0,0.0,0.0,0.0,0.0,0.0,0.0,0.0,0.0,0.0,0.0,0.0,0.0,0.0,0.0,0.0,0.0,0.0,0.0,0.0,0.0,0.0,0.0,0.0,0.0,0.0,0.0,0.0,0.0,0.0,0.0,0.0,0.0,0.0,0.0,0.0,0.0,0.0,0.0,0.0,0.0,0.0,0.0,0.0,0.0,0.0,0.0,0.0,0.0,0.0,0.0,0.0,0.0,0.0,0.0,0.0,0.0,0.0,0.0,0.0,0.0,0.0,0.0,0.0,0.0,0.0,0.0,0.0,0.0,0.0,0.0,0.0,0.0,0.0,0.0,0.0,0.0,0.0,0.0,0.0,0.0,0.0,0.0,0.0,0.0,0.0,0.0,0.0,0.0,0.0,0.0,0.0,0.0,0.0,0.0,0.0,4.5586,4.5586,4.5911,4.6467,4.5911,4.5911,0.0,0.0,0.0,0.0,0.0,0.0,0.0,0.0,0.0,0.0,0.0,0.0,0.0,0.0,0.0,0.0,0.0,0.0,0.0,0.0,0.0,0.0,0.0,0.0,0.0,0.0,0.0,0.0,0.0,0.0,0.0,0.0,0.0,0.0,0.0,0.0,0.0,0.0,0.0,0.0,0.0,0.0,0.0,0.0,0.0,0.0,0.0,0.0,0.0,0.0,0.0,0.0,0.0,0.0,0.0,0.0,0.0,0.0,0.0,0.0,0.0,0.0,0.0,0.0,0.0,0.0,0.0,0.0,0.0,0.0,0.0,0.0,0.0,0.0,0.0,0.0,0.0,0.0,0.0,0.0,0.0,0.0,0.0,0.0,0.0,0.0,0.0,0.0,0.0,0.0,0.0,0.0,0.0,0.0,0.0,0.0,0.0,0.0,0.0,0.0,0.0,0.0,0.0,0.0,0.0,0.0,0.0,0.0,0.0,4.6509,4.624,4.6373,4.6908,4.6373,4.6201,4.639,0.0,0.0,0.0,0.0,0.0,0.0,0.0,0.0,0.0,0.0,0.0,0.0,0.0,0.0,0.0,0.0,0.0,0.0,0.0,0.0,0.0,0.0,0.0,0.0,0.0,0.0,0.0,0.0,0.0,0.0,0.0,0.0,0.0,0.0,0.0,0.0,0.0,0.0,0.0,0.0,0.0,0.0,0.0,0.0,0.0,0.0,0.0,0.0,0.0,0.0,0.0,0.0,0.0,0.0,0.0,0.0,0.0,0.0,0.0,0.0,0.0,0.0,0.0,0.0,0.0,0.0,0.0,0.0,0.0,0.0,0.0,0.0,0.0,0.0,0.0,0.0,0.0,0.0,0.0,0.0,0.0,0.0,0.0,0.0,0.0,0.0,0.0,0.0,0.0,0.0,0.0,0.0,0.0,0.0,0.0,0.0,0.0,0.0,0.0,0.0,0.0,0.0,0.0,0.0,0.0,0.0,0.0,0.0,4.8163,4.7471,4.7142,4.716,4.7048,4.6606,0.0,0.0,0.0,0.0,0.0,0.0,0.0,0.0,0.0,0.0,0.0,0.0,0.0,0.0,0.0,0.0,0.0,0.0,0.0,0.0,0.0,0.0,0.0,0.0,0.0,0.0,0.0,0.0,0.0,0.0,0.0,0.0,0.0,0.0,0.0,0.0,0.0,0.0,0.0,0.0,0.0,0.0,0.0,0.0,0.0,0.0,0.0,0.0,0.0,0.0,0.0,0.0,0.0,0.0,0.0,0.0,0.0,0.0,0.0,0.0,0.0,0.0,0.0,0.0,0.0,0.0,0.0,0.0,0.0,0.0,0.0,0.0,0.0,0.0,0.0,0.0,0.0,0.0,0.0,0.0,0.0,0.0,0.0,0.0,0.0,0.0,0.0,0.0,0.0,0.0,0.0,0.0,0.0,0.0,0.0,0.0,0.0,0.0,0.0,0.0,0.0,0.0,0.0,0.0,0.0,0.0,0.0,0.0,0.0,4.9009,4.9471,4.9682,4.9681,4.8449,4.7679,0.0,0.0,0.0,0.0,0.0,0.0,0.0,0.0,0.0,0.0,0.0,0.0,0.0,0.0,0.0,0.0,0.0,0.0,0.0,0.0,0.0,0.0,0.0,0.0,0.0,0.0,0.0,0.0,0.0,0.0,0.0,0.0,0.0,0.0,0.0,0.0,0.0,0.0,0.0,0.0,0.0,0.0,0.0,0.0,0.0,0.0,0.0,0.0,0.0,0.0,0.0,0.0,0.0,0.0,0.0,0.0,0.0,0.0,0.0,0.0,0.0,0.0,0.0,0.0,0.0,0.0,0.0,0.0,0.0,0.0,0.0,0.0,0.0,0.0,0.0,0.0,0.0,0.0,0.0,0.0,0.0,0.0,0.0,0.0,0.0,0.0,0.0,0.0,0.0,0.0,0.0,0.0,0.0,0.0,0.0,0.0,0.0,0.0,0.0,0.0,0.0,0.0,0.0,0.0,0.0,0.0,0.0,0.0,4.9663,5.0971,5.1856,5.2453,5.2781,5.0798,4.9026,0.0,0.0,0.0,0.0,0.0,0.0,0.0,0.0,0.0,0.0,0.0,0.0,0.0,0.0,0.0,0.0,0.0,0.0,0.0,0.0,0.0,0.0,0.0,0.0,0.0,0.0,0.0,0.0,0.0,0.0,0.0,0.0,0.0,0.0,0.0,0.0,0.0,0.0,0.0,0.0,0.0,0.0,0.0,0.0,0.0,0.0,0.0,0.0,0.0,0.0,0.0,0.0,0.0,0.0,0.0,0.0,0.0,0.0,0.0,0.0,0.0,0.0,0.0,0.0,0.0,0.0,0.0,0.0,0.0,0.0,0.0,0.0,0.0,0.0,0.0,0.0,0.0,0.0,0.0,0.0,0.0,0.0,0.0,0.0,0.0,0.0,0.0,0.0,0.0,0.0,0.0,0.0,0.0,0.0,0.0,0.0,0.0,0.0,0.0,0.0,0.0,0.0,0.0,0.0,0.0,0.0,0.0,0.0,5.2356,5.3318,5.428,5.5049,5.5588,5.3146,5.0356,0.0,0.0,0.0,0.0,0.0,0.0,0.0,0.0,0.0,0.0,0.0,0.0,0.0,0.0,0.0,0.0,0.0,0.0,0.0,0.0,0.0,0.0,0.0,0.0,0.0,0.0,0.0,0.0,0.0,0.0,0.0,0.0,0.0,0.0,0.0,0.0,0.0,0.0,0.0,0.0,0.0,0.0,0.0,0.0,0.0,0.0,0.0,0.0,0.0,0.0,0.0,0.0,0.0,0.0,0.0,0.0,0.0,0.0,0.0,0.0,0.0,0.0,0.0,0.0,0.0,0.0,0.0,0.0,0.0,0.0,0.0,0.0,0.0,0.0,0.0,0.0,0.0,0.0,0.0,0.0,0.0,0.0,0.0,0.0,0.0,0.0,0.0,0.0,0.0,0.0,0.0,0.0,0.0,0.0,0.0,0.0,0.0,0.0,0.0,0.0,0.0,0.0,0.0,0.0,0.0,0.0,0.0,0.0,5.2664,5.4203,5.5703,5.6203,5.5665,5.2623,5.0276,0.0,0.0,0.0,0.0,0.0,0.0,0.0,0.0,0.0,0.0,0.0,0.0,0.0,0.0,0.0,0.0,0.0,0.0,0.0,0.0,0.0,0.0,0.0,0.0,0.0,0.0,0.0,0.0,0.0,0.0,0.0,0.0,0.0,0.0,0.0,0.0,0.0,0.0,0.0,0.0,0.0,0.0,0.0,0.0,0.0,0.0,0.0,0.0,4.6245,0.0,0.0,0.0,0.0,0.0,0.0,0.0,0.0,0.0,0.0,0.0,0.0,0.0,0.0,0.0,0.0,0.0,0.0,0.0,0.0,0.0,0.0,0.0,0.0,0.0,0.0,0.0,0.0,0.0,0.0,0.0,0.0,0.0,0.0,0.0,0.0,0.0,0.0,0.0,0.0,0.0,0.0,0.0,0.0,0.0,0.0,0.0,0.0,0.0,0.0,0.0,0.0,0.0,0.0,0.0,0.0,0.0,0.0,0.0,5.3972,5.5626,5.6934,5.7396,5.6874,5.4045,5.17,0.0,0.0,0.0,0.0,0.0,0.0,0.0,0.0,0.0,0.0,0.0,0.0,0.0,0.0,0.0,0.0,0.0,0.0,0.0,0.0,0.0,0.0,0.0,0.0,0.0,0.0,0.0,0.0,0.0,0.0,0.0,0.0,0.0,0.0,0.0,0.0,0.0,0.0,0.0,0.0,0.0,0.0,0.0,0.0,0.0,0.0,0.0,0.0,0.0,0.0,0.0,0.0,0.0,0.0,0.0,0.0,0.0,0.0,0.0,0.0,0.0,0.0,0.0,0.0,0.0,0.0,0.0,0.0,0.0,0.0,0.0,0.0,0.0,0.0,0.0,0.0,0.0,0.0,0.0,0.0,0.0,0.0,0.0,0.0,0.0,0.0,0.0,0.0,0.0,0.0,0.0,0.0,0.0,0.0,0.0,0.0,0.0,0.0,0.0,0.0,0.0,0.0,0.0,0.0,0.0,0.0,0.0,5.3818,5.5511,5.7165,5.8165,5.8566,5.8289,5.6236,5.3839,5.12,0.0,0.0,0.0,0.0,0.0,0.0,0.0,0.0,0.0,0.0,0.0,0.0,0.0,0.0,0.0,0.0,0.0,0.0,0.0,0.0,0.0,0.0,0.0,0.0,0.0,0.0,0.0,0.0,0.0,0.0,0.0,0.0,0.0,0.0,0.0,0.0,0.0,0.0,4.5814,4.5959,0.0,0.0,0.0,0.0,0.0,0.0,0.0,0.0,4.6417,0.0,0.0,0.0,0.0,0.0,0.0,0.0,0.0,0.0,0.0,0.0,0.0,0.0,0.0,0.0,0.0,0.0,0.0,0.0,0.0,0.0,0.0,0.0,0.0,0.0,0.0,0.0,0.0,0.0,0.0,0.0,0.0,0.0,0.0,0.0,0.0,0.0,0.0,0.0,0.0,0.0,0.0,0.0,0.0,0.0,0.0,0.0,0.0,0.0,0.0,0.0,0.0,0.0,0.0,0.0,0.0,5.2972,5.4626,5.6357,5.8088,5.9588,5.9719,5.8366,5.7912,5.6143,5.2931,0.0,0.0,0.0,0.0,0.0,0.0,0.0,0.0,0.0,0.0,0.0,0.0,0.0,0.0,0.0,0.0,0.0,0.0,0.0,0.0,0.0,0.0,0.0,0.0,0.0,0.0,0.0,0.0,0.0,0.0,0.0,0.0,0.0,0.0,0.0,0.0,0.0,0.0,0.0,4.5996,4.6164,0.0,0.0,0.0,0.0,0.0,0.0,0.0,0.0,4.6534,0.0,0.0,0.0,0.0,0.0,0.0,0.0,0.0,0.0,0.0,0.0,0.0,0.0,0.0,0.0,0.0,0.0,0.0,0.0,0.0,0.0,0.0,0.0,0.0,0.0,0.0,0.0,0.0,0.0,0.0,0.0,0.0,0.0,0.0,0.0,0.0,0.0,0.0,0.0,0.0,0.0,0.0,0.0,0.0,0.0,0.0,0.0,0.0,0.0,0.0,0.0,0.0,0.0,0.0,0.0,5.3857,5.5549,5.7203,5.8896,6.0165,5.9988,5.8366,5.7851,5.6236,0.0,0.0,0.0,0.0,0.0,0.0,0.0,0.0,0.0,0.0,0.0,0.0,0.0,0.0,0.0,0.0,0.0,0.0,0.0,0.0,0.0,0.0,0.0,0.0,0.0,0.0,0.0,0.0,0.0,0.0,0.0,0.0,0.0,0.0,0.0,0.0,0.0,0.0,0.0,0.0,4.6397,4.6597,4.6327,0.0,0.0,0.0,0.0,0.0,0.0,4.658,4.6463,0.0,0.0,0.0,0.0,0.0,0.0,0.0,0.0,0.0,0.0,0.0,0.0,0.0,0.0,0.0,0.0,0.0,0.0,0.0,0.0,0.0,0.0,0.0,0.0,0.0,0.0,0.0,0.0,0.0,0.0,0.0,0.0,0.0,0.0,0.0,0.0,0.0,0.0,0.0,0.0,0.0,0.0,0.0,0.0,0.0,0.0,0.0,0.0,0.0,0.0,0.0,0.0,0.0,0.0,0.0,5.4241,5.6088,5.7742,5.9204,6.0281,5.9988,5.8366,5.7466,5.5813,0.0,0.0,0.0,0.0,0.0,0.0,0.0,0.0,0.0,0.0,0.0,0.0,0.0,0.0,0.0,0.0,0.0,0.0,0.0,0.0,0.0,0.0,0.0,0.0,0.0,0.0,0.0,0.0,0.0,0.0,0.0,0.0,0.0,0.0,0.0,0.0,0.0,0.0,0.0,0.0,0.0,4.7086,4.6644,4.7322,0.0,0.0,0.0,0.0,4.6846,4.709,0.0,0.0,0.0,0.0,0.0,0.0,0.0,0.0,0.0,0.0,0.0,0.0,0.0,0.0,0.0,0.0,0.0,0.0,0.0,0.0,0.0,0.0,0.0,0.0,0.0,0.0,0.0,0.0,0.0,0.0,0.0,0.0,0.0,0.0,0.0,0.0,0.0,0.0,0.0,0.0,0.0,0.0,0.0,0.0,0.0,0.0,0.0,0.0,0.0,0.0,0.0,0.0,0.0,0.0,0.0,0.0,5.3395,5.5742,5.7473,5.8434,6.0012,5.9988,5.8366,5.7466,5.5797,0.0,0.0,0.0,0.0,0.0,0.0,0.0,0.0,0.0,0.0,0.0,0.0,0.0,0.0,0.0,0.0,0.0,0.0,0.0,0.0,0.0,0.0,0.0,0.0,0.0,0.0,0.0,0.0,0.0,0.0,0.0,0.0,0.0,0.0,0.0,0.0,0.0,0.0,0.0,0.0,0.0,4.7545,4.745,4.8192,4.846,0.0,0.0,0.0,4.8724,4.9859,0.0,0.0,0.0,0.0,0.0,0.0,0.0,0.0,0.0,0.0,0.0,0.0,0.0,0.0,0.0,0.0,0.0,0.0,0.0,0.0,0.0,0.0,0.0,0.0,0.0,0.0,0.0,0.0,0.0,0.0,0.0,0.0,0.0,0.0,0.0,0.0,0.0,0.0,0.0,0.0,0.0,0.0,0.0,0.0,0.0,0.0,0.0,0.0,0.0,0.0,0.0,0.0,0.0,0.0,0.0,5.3415,5.4747,5.6729,5.8357,5.9665,6.0435,5.9988,5.8327,5.6982,5.5297,0.0,0.0,0.0,0.0,0.0,0.0,0.0,0.0,0.0,0.0,0.0,0.0,0.0,0.0,0.0,0.0,0.0,0.0,0.0,0.0,0.0,0.0,0.0,0.0,0.0,0.0,0.0,0.0,0.0,0.0,0.0,0.0,0.0,0.0,0.0,0.0,0.0,0.0,0.0,0.0,0.0,0.0,4.7645,4.874,0.0,0.0,0.0,5.0727,5.0376,0.0,0.0,0.0,0.0,0.0,0.0,0.0,0.0,0.0,0.0,0.0,0.0,0.0,0.0,0.0,0.0,0.0,0.0,0.0,0.0,0.0,0.0,0.0,0.0,0.0,0.0,0.0,0.0,0.0,0.0,0.0,0.0,0.0,0.0,0.0,0.0,0.0,0.0,0.0,0.0,0.0,0.0,0.0,0.0,0.0,0.0,0.0,0.0,0.0,0.0,0.0,0.0,0.0,0.0,0.0,0.0,0.0,5.5608,5.7389,5.904,6.0435,6.0704,6.0104,5.8635,5.6944,0.0,0.0,0.0,0.0,0.0,0.0,0.0,0.0,0.0,0.0,0.0,0.0,0.0,0.0,0.0,0.0,0.0,0.0,0.0,0.0,0.0,0.0,0.0,0.0,0.0,0.0,0.0,4.5712,0.0,0.0,0.0,0.0,0.0,0.0,0.0,0.0,0.0,0.0,0.0,0.0,0.0,0.0,4.8911,4.8616,4.9994,5.1086,0.0,0.0,5.257,5.2105,5.2578,5.2226,0.0,0.0,0.0,0.0,0.0,0.0,0.0,0.0,0.0,0.0,0.0,0.0,0.0,0.0,0.0,0.0,0.0,0.0,0.0,0.0,0.0,0.0,0.0,0.0,0.0,0.0,0.0,0.0,0.0,0.0,0.0,0.0,0.0,0.0,0.0,0.0,0.0,0.0,0.0,0.0,0.0,0.0,0.0,0.0,0.0,0.0,0.0,0.0,0.0,0.0,0.0,0.0,0.0,0.0,0.0,5.4834,5.7232,5.8877,5.9588,6.0358,6.0396,5.9427,5.7774,5.6456,0.0,0.0,0.0,0.0,0.0,0.0,0.0,0.0,0.0,0.0,0.0,0.0,0.0,0.0,0.0,0.0,0.0,0.0,0.0,0.0,0.0,0.0,0.0,0.0,0.0,0.0,0.0,0.0,0.0,0.0,0.0,0.0,0.0,0.0,0.0,0.0,0.0,0.0,0.0,0.0,0.0,5.0282,5.1031,5.2613,5.3748,0.0,0.0,5.5687,5.4101,5.5859,5.6055,5.1914,0.0,0.0,0.0,0.0,0.0,0.0,0.0,0.0,0.0,0.0,0.0,0.0,0.0,0.0,0.0,0.0,0.0,0.0,0.0,0.0,0.0,0.0,0.0,0.0,0.0,0.0,0.0,0.0,0.0,0.0,0.0,0.0,0.0,0.0,0.0,0.0,0.0,0.0,0.0,0.0,0.0,0.0,0.0,0.0,0.0,0.0,0.0,0.0,0.0,0.0,0.0,0.0,0.0,5.5169,5.6484,5.7882,5.9215,6.0344,6.0769,6.0453,5.9527,5.7943,5.6698,0.0,0.0,0.0,0.0,0.0,0.0,0.0,0.0,0.0,0.0,0.0,0.0,0.0,0.0,0.0,0.0,0.0,0.0,0.0,0.0,0.0,0.0,0.0,0.0,0.0,0.0,0.0,0.0,4.5852,4.5929,4.6151,0.0,0.0,0.0,0.0,0.0,0.0,0.0,0.0,0.0,0.0,5.2007,5.2866,5.4487,0.0,0.0,5.7444,5.7991,5.7304,5.7578,5.6797,5.3516,5.2383,0.0,0.0,0.0,0.0,0.0,0.0,0.0,0.0,0.0,0.0,0.0,0.0,0.0,0.0,0.0,0.0,0.0,0.0,0.0,0.0,0.0,0.0,0.0,0.0,0.0,0.0,0.0,0.0,0.0,0.0,0.0,0.0,0.0,0.0,0.0,0.0,0.0,0.0,0.0,0.0,0.0,0.0,0.0,0.0,0.0,0.0,0.0,0.0,0.0,0.0,0.0,0.0,5.5981,5.7585,5.8371,5.9502,6.1014,6.1053,6.0732,6.0012,5.8481,5.7345,0.0,0.0,0.0,0.0,0.0,0.0,0.0,0.0,0.0,0.0,0.0,0.0,0.0,0.0,0.0,0.0,0.0,0.0,0.0,0.0,0.0,0.0,0.0,0.0,0.0,0.0,0.0,0.0,4.5996,4.6098,4.6257,0.0,0.0,0.0,0.0,0.0,0.0,0.0,0.0,0.0,0.0,5.3377,5.4284,5.5896,5.7226,5.7812,5.8393,5.8821,5.8828,5.832,5.7109,5.4765,0.0,0.0,0.0,0.0,0.0,0.0,0.0,0.0,0.0,0.0,0.0,0.0,0.0,0.0,0.0,0.0,0.0,0.0,0.0,0.0,0.0,0.0,0.0,0.0,0.0,0.0,0.0,0.0,0.0,0.0,0.0,0.0,0.0,0.0,0.0,0.0,0.0,0.0,0.0,0.0,0.0,0.0,0.0,0.0,0.0,0.0,0.0,0.0,0.0,0.0,0.0,0.0,0.0,0.0,5.7624,5.852,5.9677,6.1186,6.1186,6.1225,6.1135,5.9565,5.8678,5.8543,0.0,0.0,0.0,0.0,0.0,0.0,0.0,0.0,0.0,0.0,0.0,0.0,0.0,0.0,0.0,0.0,0.0,0.0,0.0,0.0,0.0,0.0,0.0,0.0,0.0,0.0,4.6076,4.6231,4.6296,0.0,0.0,0.0,0.0,0.0,0.0,0.0,0.0,0.0,0.0,5.2866,5.4284,5.5195,5.6758,5.793,5.793,5.7969,5.7969,5.8047,5.7969,5.7305,0.0,0.0,0.0,0.0,0.0,0.0,0.0,0.0,0.0,0.0,0.0,0.0,0.0,0.0,0.0,0.0,0.0,0.0,0.0,0.0,0.0,0.0,0.0,0.0,0.0,0.0,0.0,0.0,5.141,0.0,0.0,0.0,0.0,0.0,0.0,0.0,0.0,0.0,0.0,0.0,5.1913,5.2637,0.0,0.0,0.0,0.0,0.0,0.0,0.0,0.0,0.0,0.0,0.0,0.0,5.726,5.9352,5.9742,6.091,6.2969,6.3075,6.2731,6.2095,6.1109,5.9503,5.7259,0.0,0.0,0.0,0.0,0.0,0.0,0.0,0.0,0.0,0.0,0.0,0.0,0.0,0.0,0.0,0.0,0.0,0.0,0.0,0.0,0.0,0.0,0.0,0.0,0.0,4.5879,0.0,0.0,0.0,0.0,0.0,0.0,0.0,0.0,0.0,0.0,0.0,5.064,5.2085,5.4249,5.6053,5.6914,5.8476,5.957,0.0,0.0,0.0,0.0,0.0,0.0,0.0,0.0,0.0,0.0,0.0,0.0,0.0,0.0,5.4687,5.2656,5.2305,5.2305,5.2305,0.0,0.0,0.0,0.0,0.0,0.0,0.0,0.0,0.0,0.0,0.0,0.0,0.0,0.0,0.0,0.0,5.1474,0.0,0.0,0.0,0.0,0.0,0.0,0.0,0.0,5.2551,5.3128,5.3399,5.4429,5.4713,0.0,5.4406,5.4111,0.0,0.0,0.0,0.0,0.0,0.0,0.0,0.0,5.8128,6.0315,6.0705,6.19,6.3998,6.4115,6.3778,6.3125,6.2104,6.0087,5.7031,5.6328,5.5474,0.0,0.0,0.0,0.0,0.0,0.0,0.0,0.0,0.0,0.0,0.0,0.0,0.0,0.0,0.0,0.0,0.0,0.0,0.0,0.0,0.0,0.0,0.0,4.6143,0.0,0.0,0.0,0.0,0.0,0.0,0.0,0.0,0.0,4.9824,5.0992,5.2401,5.3857,5.5779,5.7344,5.8242,0.0,0.0,0.0,0.0,0.0,0.0,0.0,5.9883,5.9336,5.875,5.8359,5.8359,5.8828,5.9023,5.8476,0.0,0.0,5.543,5.4922,5.4922,5.4922,5.4453,5.4414,5.5508,5.4883,5.4492,0.0,0.0,0.0,0.0,0.0,0.0,0.0,0.0,5.1531,5.196,0.0,5.1713,0.0,0.0,0.0,0.0,0.0,0.0,0.0,0.0,5.3635,5.4537,5.5396,5.6255,5.6255,5.5435,5.5474,5.5435,5.5435,5.5435,0.0,0.0,0.0,0.0,0.0,0.0,5.8714,6.0475,6.1334,6.2623,6.4336,6.4414,6.4375,6.4219,6.2651,6.0586,5.8125,5.7851,5.6992,5.5273,5.5145,0.0,0.0,0.0,0.0,0.0,0.0,0.0,0.0,0.0,0.0,0.0,0.0,0.0,0.0,0.0,0.0,0.0,0.0,0.0,0.0,4.6215,0.0,0.0,0.0,0.0,0.0,0.0,0.0,0.0,0.0,0.0,5.1633,5.2329,5.3737,5.6211,0.0,0.0,0.0,0.0,6.0469,6.0508,6.0508,6.0859,6.164,6.1758,6.1719,6.1719,0.0,0.0,6.1758,6.1758,6.1758,6.1758,6.1719,6.0742,5.7539,5.6953,5.6836,5.6836,5.6836,5.6797,5.6836,5.6992,5.707,5.6259,0.0,0.0,0.0,0.0,5.3249,5.3249,5.3249,5.3249,5.3053,5.2663,5.2377,0.0,0.0,0.0,0.0,0.0,0.0,5.3717,5.4533,5.5435,5.6294,5.7113,5.7972,5.8246,5.8011,5.8011,5.8011,5.8011,5.8011,5.7426,5.6255,0.0,0.0,0.0,0.0,5.989,6.2115,6.2478,6.3774,6.6117,6.6156,6.5563,6.4336,6.3198,6.1719,5.9765,5.9648,5.8828,5.7187,5.6517,0.0,0.0,0.0,0.0,0.0,0.0,0.0,0.0,0.0,0.0,0.0,0.0,0.0,0.0,0.0,0.0,0.0,0.0,0.0,4.7826,4.8045,4.8236,0.0,0.0,0.0,0.0,0.0,0.0,0.0,0.0,0.0,5.5017,5.4759,5.5077,0.0,0.0,5.8398,5.9844,6.0781,6.1562,6.2148,0.0,0.0,0.0,6.2617,6.2617,6.2617,6.3125,6.3555,6.3555,6.3555,6.3555,6.3555,6.3555,6.3203,6.2305,6.1055,6.0312,6.0234,6.0234,6.0469,6.1015,6.0703,6.0469,5.969,5.6957,5.5942,5.5318,5.5083,5.5396,5.5318,5.5044,5.5357,5.5201,5.4693,5.4381,5.3951,5.3444,5.3288,0.0,0.0,0.0,5.5157,5.6328,5.7192,5.8011,5.887,6.008,6.0471,6.0159,6.0471,6.0276,5.9612,5.9616,5.8948,5.766,0.0,0.0,5.8363,5.9503,6.1069,6.2935,6.3689,6.4948,6.6832,6.691,6.6242,6.4867,6.3974,6.2848,6.1484,6.0742,5.9922,5.8945,5.7773,5.6719,0.0,0.0,0.0,0.0,0.0,0.0,0.0,0.0,0.0,0.0,0.0,4.8282,0.0,0.0,0.0,0.0,4.7743,4.8012,4.8722,4.8858,0.0,0.0,0.0,0.0,0.0,0.0,0.0,5.3631,5.4948,5.6142,5.7005,5.6948,5.7148,5.8008,5.8555,5.9375,6.0742,0.0,6.2539,6.3398,6.4258,6.4765,6.457,6.4531,6.4531,6.4531,6.4961,6.5312,6.5312,6.5351,6.5312,6.5312,6.5312,6.5312,6.5312,6.4453,6.3476,6.289,6.2734,6.293,6.3437,6.3086,6.289,6.2813,6.1798,5.9412,5.789,5.7109,5.7738,5.7582,5.6957,5.7621,5.7855,5.7738,5.7035,5.6684,5.6606,5.5005,0.0,0.0,5.5665,5.6602,5.8124,5.9026,5.9885,6.0783,6.2345,6.2696,6.1915,6.2735,6.2267,6.0783,6.0749,6.0319,5.9542,5.9542,5.946,5.9421,6.104,6.2332,6.3217,6.4774,6.6042,6.6875,6.6914,6.6484,6.5625,6.4906,6.4047,6.3125,6.1562,6.0625,6.0469,5.8984,5.7695,5.6836,0.0,0.0,0.0,0.0,0.0,0.0,0.0,0.0,0.0,0.0,0.0,0.0,0.0,0.0,0.0,4.8855,0.0,4.9175,4.9258,0.0,0.0,0.0,5.2244,5.392,5.4175,5.457,5.539,0.0,0.0,0.0,0.0,5.9609,6.039,6.043,6.0781,6.1758,6.2617,6.3437,6.4414,6.5195,6.5976,6.6523,6.668,6.664,6.664,6.6914,6.6797,6.6797,6.6797,6.6875,6.6797,6.6875,6.6836,6.6875,6.668,6.6406,6.4765,6.4531,6.4492,6.457,6.4531,6.4531,6.5429,6.4648,6.3984,6.2501,6.0471,5.9963,5.9651,5.9456,5.8987,5.8402,5.7777,5.7621,5.7504,5.7508,5.7079,5.7391,5.8246,5.887,5.9763,6.0822,6.1681,6.254,6.3399,6.3789,6.3867,6.3711,6.3906,6.3789,6.3399,6.336,6.3263,6.3083,6.3045,6.2419,6.1208,6.2812,6.4101,6.4959,6.5388,6.6015,6.6875,6.6914,6.6484,6.5625,6.6054,6.5545,6.4062,6.3594,6.2773,6.1445,6.0351,5.9414,5.8633,5.6914,0.0,0.0,0.0,0.0,0.0,0.0,0.0,0.0,0.0,5.0428,4.9766,0.0,4.9658,0.0,5.1001,5.1769,5.1815,5.238,0.0,0.0,5.3398,5.3788,5.4881,5.5586,5.6328,5.7187,5.8046,5.8866,5.9686,6.0,6.043,6.125,6.082,6.1211,6.3281,6.3828,6.4531,6.5898,6.6406,6.668,6.6836,6.6914,6.6914,6.6914,6.6914,6.6914,6.6914,6.6914,6.6914,6.6914,6.6914,6.6914,6.6914,6.6914,6.6797,6.6367,6.6289,6.6289,6.6289,6.625,6.625,6.6561,6.6131,6.6131,6.5312,6.3906,6.3086,6.2501,6.211,6.2032,6.1525,6.0666,6.0276,6.0119,6.008,5.9694,6.0007,6.0861,6.133,6.2032,6.2891,6.336,6.3833,6.4314,6.4704,6.486,6.4899,6.5282,6.5234,6.4882,6.4903,6.4682,6.4336,6.4687,6.4375,6.3515,6.4414,6.5117,6.5586,6.5976,6.6406,6.6836,6.6523,6.6289,6.6172,6.5508,6.5078,6.4883,6.375,6.3047,6.2851,6.164,6.0781,6.0312,5.8672,5.7187,0.0,0.0,0.0,0.0,0.0,0.0,0.0,0.0,0.0,0.0,0.0,5.1828,0.0,5.2733,0.0,5.3273,5.371,5.4141,5.4531,5.4922,5.5508,5.6367,5.7226,5.793,5.8437,5.9219,5.9883,6.0351,6.0742,6.1133,6.164,6.1601,6.207,6.3398,6.4023,6.4805,6.6094,6.664,6.6914,6.6914,6.6914,6.6914,6.6914,6.6914,6.6914,6.6914,6.6914,6.6914,6.6914,6.6914,6.6914,6.6914,6.6914,6.6914,6.6914,6.6914,6.6914,6.6914,6.6914,6.6914,6.6951,6.6951,6.6873,6.6795,6.6756,6.6053,6.5273,6.4492,6.5155,6.4999,6.4258,6.3477,6.3164,6.3125,6.2384,6.2466,6.3174,6.3291,6.3759,6.4462,6.4575,6.4622,6.4675,6.5422,6.5773,6.5812,6.654,6.6531,6.575,6.5777,6.539,6.4687,6.539,6.582,6.5937,6.5937,6.5937,6.5937,6.668,6.7109,6.7226,6.6367,6.6289,6.6914,6.4648,6.4023,6.543,6.3203,6.2578,6.3945,6.2578,6.1719,6.168,6.0195,5.8633,0.0,5.6133,0.0,0.0,0.0,0.0,0.0,0.0,0.0,0.0,5.3984,5.3984,5.3984,5.4101,5.418,5.4141,5.4375,5.4805,5.5547,5.6406,5.7226,5.7969,5.8828,5.9375,5.9336,6.0078,6.0586,6.0625,6.125,6.1719,6.1758,6.2383,6.2969,6.3242,6.3984,6.4883,6.5625,6.6406,6.6914,6.6914,6.6914,6.6914,6.6914,6.6914,6.6914,6.6914,6.6914,6.6914,6.6914,6.6914,6.6914,6.6914,6.6914,6.6914,6.6914,6.6914,6.6914,6.6914,6.6914,6.6913,6.7854,6.7776,6.7068,6.6795,6.6795,6.6639,6.6092,6.5312,6.4765,6.4453,6.4297,6.414,6.4062,6.4023,6.3867,6.3888,6.41,6.4803,6.5194,6.5389,6.6071,6.641,6.6414,6.6558,6.664,6.664,6.6796,6.6795,6.6639,6.664,6.6562,6.6406,6.6562,6.6992,0.0,0.0,0.0,0.0,6.7851,6.8281,6.8867,6.8125,6.7773,6.789,6.6094,0.0,6.5508,6.375,6.289,6.3164,6.2265,0.0,0.0,0.0,0.0,0.0,0.0,0.0,0.0,0.0,0.0,0.0,5.707,5.625,5.4219,5.3984,5.3984,5.4023,5.4648,5.5039,5.5078,5.6328,5.7226,5.7422,5.8203,5.8789,5.8984,5.9687,6.0156,6.0195,6.0898,6.1445,6.1445,6.1601,6.1719,6.1797,6.2461,6.3281,6.3984,6.4765,6.5664,6.6484,6.6797,6.6914,6.6914,6.6914,6.6914,6.6914,6.6914,6.6914,6.6914,6.6914,6.6914,6.6914,6.6914,6.6914,6.6914,6.6914,6.6914,6.6914,6.6914,6.6914,6.6914,6.6906,6.6887,6.8083,0.0,6.7146,6.6795,0.0,6.6795,6.66,6.6209,6.5741,6.5555,6.5563,6.5602,6.5598,6.5585,6.5585,6.557,6.5625,6.6055,6.6211,6.625,6.6676,6.6904,6.6904,6.6912,6.6914,6.6914,6.6914,6.6914,6.6914,6.6914,6.7109,6.7539,6.7539,6.7969,6.875,6.8789,6.8789,6.8789,6.8789,6.9023,6.9414,6.8633,6.8203,6.8164,0.0,0.0,0.0,0.0,0.0,0.0,0.0,0.0,0.0,0.0,0.0,5.9883,5.9375,5.8945,5.8555,5.8515,5.8555,5.8555,5.8555,5.7617,5.5469,5.5664,5.5937,5.5937,5.6719,5.7226,5.7265,5.8047,5.8515,5.8594,5.9297,5.9805,5.9883,6.0547,6.1055,6.1094,6.1406,6.1719,6.1719,6.1719,6.1914,6.2305,6.3086,6.3945,6.4765,6.5312,6.5898,6.6758,6.6914,6.6914,6.6914,6.6914,6.6914,6.6914,6.6914,6.6914,6.6914,6.6914,6.6914,6.6914,6.6914,6.6914,6.6914,6.6914,6.6914,6.6914,6.6911,6.6906,6.6943,6.7242,6.7693,6.8474,6.8239,6.7381,6.6951,6.6795,6.6795,6.6834,6.6912,0.0,0.0,0.0,6.6906,6.6901,6.6887,6.6887,6.6904,6.6914,6.6914,6.6914,6.6914,6.6914,6.6914,6.6914,6.6914,6.6914,6.6914,6.707,6.7109,6.7148,6.7265,6.7734,6.8359,6.8398,6.8828,6.957,6.9805,6.9844,6.9844,6.9726,6.9726,6.9922,6.9101,6.8633,6.8633,6.6836,6.582,6.582,6.414,6.3555,6.4219,6.3476,6.3086,6.3203,6.3086,6.2422,6.1211,6.0937,6.0586,5.9922,5.9726,5.957,5.9414,5.9258,5.8594,5.7148,5.7734,5.8125,5.8125,5.8789,5.918,5.9219,5.9336,5.9414,5.9414,6.0117,6.0625,6.0664,6.125,6.168,6.1719,6.168,6.1797,6.1953,6.1992,6.2265,6.3125,6.3984,6.4844,6.5586,6.5859,6.6133,6.6758,6.6914,6.6914,6.6914,6.6914,6.6914,6.6914,6.6914,6.6914,6.6914,6.6914,6.6914,6.6914,6.6914,6.6914,6.6914,6.6914,6.6912,6.6912,6.6901,6.7034,6.7342,6.7927,6.8507,6.9879,6.9137,6.8279,6.7498,6.6795,6.6795,6.6834,6.6878,6.6908,6.6914,6.6914,6.6914,6.6913,6.6913,6.6913,6.6914,6.6914,6.6914,6.6914,0.0,6.6914,6.6914,6.6914,6.6914,6.6914,6.6953,6.7656,6.8008,6.8086,6.875,6.918,6.9219,6.9219,6.9648,7.0508,7.125,7.164,7.164,7.0898,7.0898,7.1601,7.082,7.0351,7.0234,6.8008,6.6719,6.668,6.5039,6.418,6.4258,6.3476,6.3359,6.4023,6.3437,6.3242,6.3672,6.3047,6.2578,6.2461,6.1797,6.1015,6.0273,5.9609,5.9101,5.8867,5.8945,5.9023,5.9023,5.918,5.9219,5.9258,5.9844,6.0234,6.0273,6.0976,6.1484,6.1484,6.1601,6.1719,6.1758,6.1719,6.2031,6.2695,6.2812,6.3125,6.3984,6.4883,6.5703,6.6406,6.6719,6.6758,6.6875,6.6914,6.6914,6.6914,6.6914,6.6914,6.6914,6.6914,6.6914,6.6914,6.6914,6.6914,6.6914,6.6914,6.6914,6.6914,6.6904,6.6895,6.6891,6.6891,6.7281,6.8401,6.8903,6.902,7.0465,6.9957,6.8669,6.7893,6.7459,6.7068,6.7146,6.7581,6.7613,6.7344,6.6914,6.6914,6.6914,6.6914,6.6914,6.6914,6.6914,6.6914,6.7148,6.7578,6.7578,6.7851,6.8242,6.8281,6.8242,6.832,6.8672,6.8867,6.8867,6.9258,6.9687,7.0117,7.0547,7.1015,7.1406,7.1797,7.1992,7.1992,7.1601,7.1601,7.1992,7.1601,7.1172,7.0703,6.9531,6.875,6.8281,6.664,6.5703,6.5703,6.4883,6.4609,6.4961,6.418,6.3906,6.4219,6.3047,6.2305,6.2305,6.1914,6.1523,6.1133,6.0781,6.0547,6.0547,6.0117,5.9844,5.9883,6.0273,6.0547,6.0547,6.0898,6.1094,6.1094,6.1484,6.168,6.1719,6.1719,6.1875,6.2305,6.2422,6.2734,6.3594,6.3711,6.4023,6.4883,6.5742,6.6445,6.6836,6.6914,6.6914,6.6914,6.6914,6.6914,6.6914,6.6914,6.6914,6.6914,6.6914,6.6914,6.6914,6.6914,6.6914,6.6914,6.6911,6.6904,6.6904,6.6898,6.6887,6.6917,6.6883,6.7312,6.7888,6.8669,6.9528,7.1441,7.1128,6.9645,6.8757,6.8336,6.775,6.7863,6.8444,6.8474,6.8125,6.7539,6.75,6.75,6.75,6.7461,6.7461,6.7461,6.7461,6.7851,6.8437,6.8515,6.8828,6.9336,6.9414,6.9414,6.9453,6.9609,6.9687,6.9726,6.9883,7.0312,7.0976,7.168,7.207,7.2305,7.2305,7.2383,7.2578,7.2578,7.2461,7.2305,7.2461,7.2265,7.164,7.1406,7.0898,7.0039,6.8555,6.7578,6.7187,6.6367,6.5898,6.5859,6.5273,6.4883,6.4765,6.3633,6.2617,6.2031,6.1797,6.1719,6.1719,6.1719,6.1719,6.164,6.1094,6.0703,6.0781,6.125,6.164,6.164,6.164,6.1719,6.1719,6.1719,6.1797,6.1953,6.1992,6.2344,6.3086,6.3281,6.3633,6.4336,6.457,6.4961,6.5781,6.6484,6.6875,6.6914,6.6914,6.6953,6.7109,6.707,6.6914,6.6914,6.6914,6.6914,6.6914,6.6914,6.6914,6.6914,6.6914,6.6914,6.6914,6.6908,6.6895,6.6883,6.6887,6.6891,6.6878,6.6839,6.6951,6.7654,6.902,7.0309,7.3705,7.2963,7.1948,7.0725,6.9297,6.918,6.925,6.9386,6.9333,6.9297,6.9258,6.9258,6.9258,6.9258,6.914,6.9062,6.9101,6.918,6.9219,6.9336,6.9375,6.9375,6.9492,6.9453,6.9414,6.957,7.0234,7.0586,7.0625,7.1367,7.1797,7.1875,7.1953,7.2422,7.3086,7.3203,7.3555,7.4336,7.4336,7.3984,7.3281,7.3945,7.4297,7.4258,7.3437,7.2656,7.1797,7.0859,6.9648,6.8203,6.7305,6.6797,6.6758,6.668,6.664,6.664,6.6445,6.543,6.3164,6.2148,6.1797,6.1719,6.1797,6.1797,6.1797,6.168,6.1601,6.164,6.168,6.1719,6.1719,6.1758,6.1836,6.1953,6.1875,6.1992,6.2695,6.289,6.3203,6.4101,6.418,6.4531,6.5273,6.5469,6.5781,6.6523,6.6875,6.707,6.7031,6.7148,6.7383,6.7773,6.7461,6.707,6.707,6.6914,6.7109,6.707,6.6953,6.7109,6.7187,6.7109,6.6953,6.7383,6.7109,6.714,6.7082,6.6917,6.6995,6.7229,6.7224,6.7342,6.8825,7.0309,7.1519,7.433,7.3939,7.2573,7.0999,6.957,6.9961,7.0194,7.0189,7.0194,7.0469,7.1015,7.1523,7.0898,6.9453,6.9414,6.9414,6.9453,6.9414,6.9726,7.0156,7.0195,7.0469,7.0898,7.0937,7.0937,7.0937,7.1328,7.1445,7.1601,7.2344,7.2773,7.2851,7.3281,7.3711,7.4023,7.4062,7.4258,7.4609,7.5117,7.5195,7.4844,7.4648,7.457,7.457,7.4258,7.3906,7.3515,7.2695,7.168,7.0508,6.9609,6.8906,6.8398,6.7461,6.7148,6.7539,6.668,6.5664,6.4609,6.375,6.3242,6.3242,6.3242,6.3242,6.3242,6.3242,6.3242,6.3125,6.2305,6.1875,6.2383,6.2461,6.2656,6.3125,6.3242,6.3359,6.3711,6.3789,6.4101,6.4883,6.5078,6.539,6.6133,6.6367,6.6523,6.6953,6.7305,6.7656,6.7695,6.8086,6.8515,6.875,6.8594,6.8437,6.832,6.8398,6.8398,6.8359,6.8398,6.8398,6.832,6.839,6.8398,6.8346,6.8268,6.8265,6.8479,6.8396,6.8396,6.8279,6.8357,6.8747,6.9918,7.0738,7.1324,7.5227,7.4993,7.3408,7.1708,7.0195,7.0781,7.1055,7.1055,7.1055,7.1406,7.207,7.293,7.2148,7.0351,7.0351,7.0508,7.0508,7.0234,7.0469,7.1015,7.1055,7.1406,7.1953,7.1992,7.1992,7.2031,7.2226,7.2461,7.2734,7.332,7.3672,7.375,7.4297,7.4726,7.4922,7.4961,7.5078,7.5351,7.5976,7.625,7.6172,7.5625,7.5312,7.5312,7.5312,7.5195,7.4961,7.4336,7.3476,7.2422,7.1719,7.0898,6.9805,6.8828,6.8398,6.8359,6.668,6.5703,6.5937,6.5156,6.4648,6.4648,6.4648,6.457,6.4336,6.4297,6.4297,6.418,6.3125,6.2773,6.3203,6.3359,6.3633,6.4219,6.4297,6.4375,6.4609,6.4648,6.5,6.5781,6.5937,6.6172,6.6758,6.707,6.7305,6.7383,6.8008,6.8555,6.8594,6.9023,6.9453,6.9726,6.9726,6.9609,6.9492,6.9336,6.9453,6.9414,6.9297,6.9258,6.9411,6.939,6.9372,6.8922,6.9299,6.9333,6.9098,6.9215,6.945,6.945,6.9567,6.9879,7.0465,7.0855,7.1273,7.6984,7.6683,7.5152,7.3359,7.1914,7.1914,7.1914,7.1836,7.1914,7.1953,7.2109,7.293,7.2773,7.1953,7.2617,7.3086,7.293,7.2109,7.1797,7.1914,7.1953,7.1953,7.1992,7.1992,7.207,7.2305,7.293,7.3633,7.4336,7.4492,7.457,7.457,7.4726,7.5078,7.5742,7.5859,7.625,7.6836,7.6992,7.7109,7.7109,7.707,7.6953,7.6953,7.7031,7.6601,7.5937,7.582,7.5,7.332,7.3203,7.2383,7.0937,7.1289,7.0976,6.9492,6.7148,6.6055,6.668,6.6055,6.5547,6.5547,6.5547,6.5234,6.4648,6.457,6.457,6.4375,6.4336,6.4258,6.4297,6.4297,6.4297,6.4453,6.4414,6.4765,6.5469,6.5547,6.5937,6.6601,6.6797,6.6953,6.7031,6.7656,6.8047,6.8281,6.8828,6.9375,6.9414,6.9492,6.9961,7.0469,7.0586,7.0351,6.9648,6.9844,6.9765,6.9805,6.9986,6.9616,6.946,6.9386,6.9499,6.9533,6.9762,6.9762,6.9528,6.9489,6.9645,6.9879,7.0348,7.0738,7.1011,7.1519,7.1767,7.6458,7.5462,7.4843,7.3594,7.2148,7.2578,7.2539,7.1992,7.1992,7.1992,7.2148,7.293,7.3437,7.3672,7.3984,7.3828,7.3242,7.2383,7.2305,7.2773,7.2812,7.2851,7.289,7.3398,7.3672,7.3711,7.3984,7.4297,7.4609,7.5156,7.543,7.5547,7.5976,7.6445,7.668,7.6719,7.6914,7.7187,7.7226,7.7226,7.7226,7.7226,7.7226,7.7226,7.7226,7.7031,7.6758,7.6758,7.6172,7.5,7.4453,7.3594,7.2539,7.2656,7.2305,7.1133,6.9687,6.875,6.8398,6.7187,6.6445,6.6445,6.6406,6.6367,6.6055,6.5976,6.5937,6.5937,6.5976,6.5976,6.5859,6.5469,6.5351,6.5859,6.5976,6.6055,6.6328,6.6445,6.6562,6.6914,6.7344,6.789,6.8359,6.8828,6.9023,6.9062,6.9687,7.0156,7.0351,7.0664,7.1133,7.1406,7.1523,7.1406,7.1172,7.1094,7.1094,7.1094,7.1139,7.1095,7.0977,7.086,7.0938,7.0821,7.0777,7.0738,7.0699,7.0738,7.0738,7.0894,7.1324,7.1285,7.1558,7.1735,7.1768,7.6146,7.4722,7.457,7.3789,7.2578,7.3047,7.3125,7.2812,7.2851,7.2851,7.3047,7.4023,7.4765,7.5117,7.5625,7.5547,7.4805,7.3555,7.3164,7.3672,7.3711,7.3711,7.3828,7.4336,7.457,7.4648,7.4922,7.5156,7.5469,7.6015,7.6289,7.6367,7.6914,7.7226,7.7226,7.7226,7.7226,7.7226,7.7461,7.7617,7.7656,7.789,7.8008,7.8008,7.8008,7.7734,7.7265,7.7226,7.6953,7.6328,7.5742,7.5039,7.4258,7.3594,7.3047,7.2422,7.1601,7.1015,7.0586,6.9336,6.8555,6.8515,6.8281,6.8047,6.7812,6.7734,6.7734,6.7734,6.7734,6.7734,6.7617,6.7187,6.6875,6.6992,6.7148,6.7305,6.7344,6.7578,6.7734,6.7851,6.8242,6.8828,6.9336,6.9687,6.9805,6.9805,7.0586,7.1094,7.1211,7.1562,7.1992,7.1992,7.1953,7.1914,7.1758,7.164,7.164,7.168,7.168,7.1875,7.1987,7.1987,7.1987,7.1987,7.1987,7.1987,7.1987,7.1987,7.1987,7.1987,7.187,7.1714,7.1813,7.1768,7.1739,7.6164,7.4774,7.4609,7.4101,7.3398,7.3476,7.3867,7.4336,7.4492,7.4414,7.4492,7.6133,7.6172,7.625,7.7148,7.8125,7.75,7.5586,7.4726,7.4883,7.4765,7.4726,7.4765,7.4961,7.5039,7.5,7.5586,7.6328,7.6953,7.7031,7.707,7.7148,7.7148,7.7265,7.7265,7.7344,7.7305,7.7539,7.8164,7.8515,7.8594,7.914,7.9453,7.9531,7.9531,7.8828,7.7422,7.7305,7.7265,7.7148,7.707,7.6758,7.5742,7.4492,7.3437,7.3359,7.2539,7.25,7.293,7.2148,7.1445,7.1367,7.1015,7.0156,6.9609,6.9492,6.9492,6.9453,6.9375,6.9414,6.9414,6.914,6.8555,6.7383,6.7773,6.8164,6.832,6.8906,6.9453,6.9336,6.9414,6.9414,6.9648,7.0234,7.0664,7.0859,7.1328,7.1836,7.1797,7.1914,7.1992,7.1992,7.1992,7.1992,7.201,7.1992,7.1992,7.1948,7.1909,7.1987,7.1987,7.1987,7.1987,7.1987,7.1987,7.1987,7.1987,7.1987,7.1976,7.1976,7.1982,7.1963,7.1828,7.1716,7.1601,7.5972,7.5425,7.4843,7.4453,7.4297,7.4844,7.4961,7.4687,7.5195,7.5156,7.4805,7.5156,7.5547,7.5976,7.6523,7.707,7.75,7.6719,7.668,7.707,7.664,7.6328,7.6445,7.6953,7.7265,7.7187,7.6914,7.6914,7.7148,7.7226,7.7226,7.7226,7.7226,7.7539,7.8086,7.8125,7.832,7.8906,7.918,7.9336,7.9336,7.957,7.9726,7.9726,7.9726,7.9414,7.8945,7.8398,7.7812,7.7305,7.7226,7.707,7.6719,7.6289,7.5703,7.5078,7.4258,7.3555,7.3203,7.2539,7.2109,7.1992,7.1758,7.1523,7.1289,7.1211,7.1211,7.1094,7.0703,7.0508,7.0859,7.0039,6.9297,6.875,6.8906,6.9062,6.914,6.9336,6.9687,7.0195,7.0273,7.0547,7.1015,7.1484,7.1484,7.1523,7.1797,7.1992,7.1992,7.1992,7.1992,7.1992,7.1992,7.2014,7.1997,7.2104,7.226,7.2182,7.2104,7.1987,7.1987,7.1987,7.1987,7.1987,7.1987,7.2065,7.2065,7.2054,7.208,7.201,7.2023,7.1905,7.1719,7.1777,7.2052,7.6211,7.5859,7.5312,7.5078,7.5117,7.5703,7.5976,7.6094,7.664,7.6719,7.6523,7.6523,7.6758,7.7226,7.7305,7.7617,7.8086,7.8125,7.8437,7.8672,7.7695,7.7226,7.7265,7.7734,7.8008,7.793,7.7461,7.7226,7.7226,7.7226,7.7344,7.7617,7.7695,7.8125,7.8867,7.8945,7.9219,7.9687,8.0,8.0195,8.0234,8.0508,8.0664,8.0664,8.0664,8.0508,8.0195,7.9687,7.9023,7.8242,7.7851,7.7578,7.7265,7.7148,7.6953,7.6445,7.5898,7.5312,7.4726,7.4101,7.3437,7.3437,7.3164,7.3008,7.2969,7.2969,7.2969,7.2851,7.2539,7.2344,7.2656,7.1758,7.0937,7.0898,7.0273,7.0078,7.0234,7.0351,7.0586,7.1055,7.1172,7.1484,7.1836,7.1992,7.1992,7.1992,7.1992,7.1992,7.1992,7.1992,7.2031,7.2031,7.1992,7.1997,7.2032,7.2221,7.2495,7.2378,7.226,7.2104,7.1987,7.1987,7.1987,7.1987,7.1987,7.2378,7.2417,7.2494,7.25,7.2334,7.2471,7.291,7.3184,7.3161,7.3407,7.6719,7.6015,7.5976,7.5976,7.6015,7.6133,7.6875,7.8086,7.8359,7.8594,7.9062,7.8828,7.9101,7.9336,7.8867,7.8906,7.9453,7.914,7.9062,7.8867,7.8008,7.7422,7.7461,7.7422,7.75,7.7656,7.7461,7.7383,7.7617,7.7617,7.7773,7.8476,7.8594,7.8984,7.9609,7.9765,7.9844,8.0156,8.0742,8.1054,8.1094,8.1758,8.2148,8.2148,8.2109,8.1758,8.1172,8.0976,8.0547,7.9726,7.8867,7.8242,7.7578,7.7344,7.7461,7.7305,7.7265,7.707,7.6953,7.6133,7.5742,7.5625,7.5078,7.4765,7.4726,7.4765,7.4648,7.4531,7.4336,7.4336,7.4219,7.3359,7.289,7.289,7.1562,7.1172,7.1797,7.1836,7.1758,7.1836,7.1953,7.1992,7.1992,7.1992,7.1992,7.2031,7.207,7.2226,7.2305,7.2383,7.2265,7.2362,7.2617,7.2734,7.2963,7.308,7.3315,7.3236,7.3041,7.2885,7.2612,7.2573,7.2573,7.2495,7.2366,7.2723,7.2938,7.3085,7.3235,7.3299,7.3745,7.4416,7.4518,7.4324,7.4446,7.707,7.6875,7.6836,7.6875,7.6953,7.75,7.7656,7.7656,7.8281,7.832,7.8047,7.7851,7.8008,7.789,7.793,7.7851,7.8008,7.8008,7.7851,7.793,7.8164,7.8125,7.8008,7.7539,7.789,7.875,7.8398,7.8476,7.8984,7.8906,7.9101,7.9375,7.9414,7.9805,8.0508,8.0664,8.1015,8.1523,8.1797,8.1914,8.1953,8.2148,8.2304,8.2304,8.2304,8.2187,8.1953,8.1953,8.1211,7.9844,7.9531,7.9297,7.8984,7.8945,7.8672,7.8242,7.8125,7.7851,7.7344,7.7031,7.6875,7.6875,7.668,7.6523,7.6523,7.6523,7.6211,7.5664,7.5039,7.4687,7.4453,7.3398,7.2617,7.2305,7.2031,7.1797,7.1914,7.1992,7.1992,7.1992,7.2031,7.207,7.2148,7.2148,7.2148,7.2226,7.2578,7.2969,7.3008,7.3351,7.349,7.3798,7.4017,7.3978,7.4017,7.4095,7.4173,7.4173,7.4134,7.4128,7.3894,7.3777,7.3861,7.39,7.347,7.3579,7.3778,7.396,7.4092,7.4225,7.4557,7.4956,7.504,7.5011,7.5127,7.7226,7.7226,7.7226,7.7226,7.7265,7.7734,7.7851,7.7851,7.8242,7.8476,7.8164,7.7851,7.7734,7.7773,7.7773,7.7773,7.7773,7.8086,7.8281,7.8359,7.8789,7.8984,7.8867,7.8437,7.8789,7.9531,7.9219,7.9297,7.9609,7.9726,7.9883,8.0195,8.0234,8.0703,8.1484,8.1562,8.1758,8.2187,8.2304,8.2304,8.2304,8.2304,8.2304,8.2304,8.2304,8.2304,8.2304,8.2304,8.164,8.0547,8.0234,8.0078,7.9726,7.9726,7.9453,7.9023,7.8984,7.875,7.8398,7.8242,7.8242,7.8281,7.8242,7.8242,7.8242,7.8242,7.793,7.7578,7.6719,7.6484,7.6406,7.5195,7.3945,7.3359,7.3086,7.2812,7.2148,7.1992,7.2187,7.2383,7.2539,7.2734,7.2969,7.3047,7.3086,7.3203,7.3555,7.375,7.3897,7.4384,7.4681,7.4798,7.4798,7.4603,7.472,7.4837,7.5032,7.5032,7.5599,7.556,7.4843,7.4687,7.4507,7.4459,7.4353,7.44,7.4574,7.4763,7.4885,7.5017,7.5243,7.5658,7.5995,7.5976,7.6092,7.7305,7.7344,7.7226,7.7226,7.7226,7.7226,7.7617,7.8242,7.8281,7.8789,7.9258,7.8906,7.875,7.875,7.8906,7.8789,7.8828,7.9453,7.9805,7.9922,8.0078,8.0117,8.0078,7.9609,7.9648,7.9922,7.9844,7.9961,8.0234,8.0156,8.0429,8.0976,8.1133,8.1523,8.2031,8.2187,8.2304,8.2304,8.2304,8.2304,8.2304,8.2304,8.2304,8.2304,8.2304,8.2304,8.2304,8.2265,8.1914,8.1172,8.1133,8.0781,8.0156,8.0039,7.9922,7.9883,7.9844,7.9765,7.9648,7.9453,7.957,7.9492,7.9531,7.9726,7.9492,7.9414,7.9297,7.8945,7.8867,7.8437,7.8398,7.7695,7.6367,7.5156,7.4883,7.4101,7.2969,7.2383,7.2578,7.3281,7.3437,7.3828,7.4297,7.4609,7.4531,7.3945,7.4375,7.4648,7.4861,7.5199,7.5345,7.5345,7.5227,7.5032,7.5227,7.5501,7.5735,7.6008,7.6989,7.7004,7.5601,7.519,7.4833,7.4742,7.5121,7.5305,7.5366,7.5508,7.5553,7.5721,7.5902,7.6833,7.763,7.7284,7.7246,7.8242,7.8164,7.7461,7.7226,7.7226,7.7226,7.7344,7.7539,7.7578,7.8633,7.9453,7.9531,7.9844,8.039,8.039,8.0469,8.0429,8.0703,8.1054,8.1719,8.1719,8.1758,8.1406,8.0469,8.0156,8.0547,8.0703,8.1054,8.1484,8.1562,8.1797,8.1914,8.1914,8.2109,8.2265,8.2304,8.2304,8.2304,8.2304,8.2304,8.2304,8.2304,8.2304,8.2304,8.2304,8.2304,8.2304,8.2304,8.2187,8.207,8.1953,8.1758,8.1601,8.1601,8.1328,8.0859,8.0703,8.0429,7.9922,7.9883,7.9765,7.9883,7.9961,7.9726,7.9726,7.9805,7.9453,7.8945,7.8555,7.8515,7.8125,7.7578,7.7148,7.6797,7.664,7.6484,7.5937,7.4844,7.4258,7.4297,7.4453,7.4453,7.4687,7.4961,7.4922,7.4765,7.5111,7.5555,7.5819,7.6047,7.6047,7.6008,7.6008,7.5969,7.636,7.6555,7.662,7.677,7.7628,7.7852,7.6442,7.6118,7.5945,7.5972,7.615,7.6173,7.5932,7.5963,7.5939,7.6249,7.6524,7.7044,7.7515,7.7746,7.79,7.8476,7.8398,7.7539,7.7226,7.7344,7.8047,7.8359,7.8555,7.9297,8.0078,8.0781,8.0937,8.0976,8.1094,8.1797,8.2031,8.1797,8.207,8.2461,8.2734,8.2539,8.2265,8.2226,8.1523,8.1211,8.1601,8.1601,8.1914,8.2187,8.2304,8.2226,8.2304,8.2304,8.2265,8.2304,8.2304,8.2304,8.2304,8.2304,8.2304,8.2304,8.2304,8.2304,8.2304,8.2304,8.2304,8.2304,8.2304,8.2304,8.2304,8.2304,8.2304,8.2304,8.2304,8.2031,8.1719,8.1601,8.1445,8.1015,8.0937,8.0976,8.0898,8.0937,8.0937,8.0937,8.0937,8.0742,8.0312,7.9922,7.9336,7.8515,7.8867,7.8789,7.8437,7.8359,7.8398,7.8086,7.6875,7.582,7.5898,7.625,7.6445,7.6484,7.6328,7.6436,7.6782,7.6712,7.7048,7.6443,7.6672,7.675,7.6789,7.6906,7.7062,7.7492,7.7642,7.7582,7.7636,7.7833,7.7598,7.666,7.6832,7.7231,7.6922,7.6436,7.6459,7.6295,7.6297,7.6199,7.6289,7.648,7.6833,7.7015,7.7053,7.7246,7.8711,7.8594,7.7734,7.7461,7.7812,7.9219,7.9961,8.0351,8.164,8.2187,8.2656,8.2578,8.2265,8.2265,8.3164,8.332,8.332,8.3554,8.4062,8.3711,8.2969,8.2539,8.2304,8.2148,8.2226,8.2422,8.2265,8.2304,8.2265,8.2304,8.2304,8.2304,8.2304,8.2304,8.2304,8.2304,8.2304,8.2304,8.2304,8.2304,8.2304,8.2304,8.2304,8.2304,8.2304,8.2304,8.2304,8.2304,8.2304,8.2304,8.2304,8.2304,8.2304,8.2304,8.2304,8.2226,8.2031,8.1875,8.1914,8.1953,8.1914,8.2226,8.2265,8.2226,8.2187,8.207,8.1992,8.1875,8.1406,8.082,8.0234,8.0547,8.0625,8.0312,8.0078,8.0078,7.9844,7.8789,7.8203,7.7656,7.789,7.8086,7.8398,7.85,7.864,7.863,7.8493,7.8145,7.7464,7.7101,7.7101,7.7101,7.7101,7.7101,7.7453,7.8038,7.8058,7.7879,7.7989,7.752,7.6894,7.6975,7.7064,7.6711,7.6394,7.6433,7.6359,7.6186,7.616,7.6199,7.6263,7.6457,7.6476,7.6399,7.663,7.9492,7.9414,7.8633,7.8672,7.9414,8.039,8.125,8.1836,8.2344,8.3164,8.4297,8.3789,8.4219,8.4804,8.4687,8.4961,8.5195,8.5195,8.5,8.4414,8.3554,8.2929,8.2383,8.2461,8.2695,8.3008,8.2773,8.2422,8.2383,8.2304,8.2304,8.2304,8.2304,8.2304,8.2304,8.2304,8.2344,8.2461,8.2461,8.2461,8.2578,8.2578,8.2578,8.2578,8.2617,8.2578,8.2461,8.2383,8.2304,8.2304,8.2304,8.2383,8.2461,8.2461,8.2383,8.2187,8.1797,8.1758,8.2148,8.1719,8.1719,8.207,8.2304,8.2304,8.2304,8.2304,8.2304,8.2265,8.2187,8.1953,8.1914,8.1875,8.1992,8.1797,8.1679,8.1679,8.164,8.1243,8.0453,7.9567,7.9558,7.9499,7.966,7.9621,7.9343,7.8981,7.8557,7.8054,7.7341,7.7101,7.7101,7.7101,7.7101,7.7101,7.7218,7.7882,7.8188,7.7791,7.7723,7.756,7.71,7.6886,7.6721,7.6457,7.6278,7.6217,7.6132,7.6068,7.6079,7.616,7.6118,7.6053,7.613,7.6207,7.613,8.0625,8.0937,8.0156,8.0273,8.1211,8.2461,8.3242,8.375,8.457,8.5429,8.5937,8.582,8.5469,8.5703,8.6211,8.6328,8.6015,8.5117,8.4648,8.4062,8.332,8.2773,8.2422,8.2695,8.2812,8.2969,8.289,8.2929,8.289,8.25,8.2344,8.2304,8.2304,8.2304,8.2304,8.2304,8.2578,8.2812,8.2969,8.3203,8.3554,8.3594,8.3633,8.3633,8.3594,8.3633,8.3672,8.3633,8.3672,8.3672,8.3672,8.3633,8.3515,8.3164,8.2773,8.2383,8.1875,8.1797,8.2187,8.1875,8.1953,8.2226,8.2304,8.2304,8.2304,8.2304,8.2265,8.2304,8.2304,8.2304,8.2226,8.2304,8.2304,8.2304,8.2304,8.2304,8.2292,8.231,8.1656,8.0925,8.0922,8.0714,8.0386,8.023,7.9884,7.9371,7.8702,7.7999,7.7218,7.7101,7.7101,7.7179,7.7218,7.7414,7.7375,7.7726,7.8065,7.7745,7.7418,7.7297,7.7089,7.6777,7.6567,7.6338,7.6211,7.6103,7.6189,7.6248,7.6186,7.6079,7.6062,7.6044,7.6015,7.5976,7.5976,8.1836,8.2226,8.1562,8.1758,8.2734,8.4219,8.4961,8.5469,8.6719,8.707,8.6992,8.6797,8.6133,8.5781,8.6328,8.6719,8.582,8.4297,8.375,8.3515,8.2812,8.2344,8.2539,8.2851,8.3047,8.3008,8.3203,8.3515,8.3047,8.2617,8.2344,8.2383,8.2422,8.2578,8.2617,8.2969,8.3281,8.3594,8.3906,8.4297,8.4726,8.4883,8.4883,8.4883,8.4883,8.4804,8.4687,8.4687,8.4687,8.4726,8.4765,8.4804,8.4765,8.4219,8.3554,8.289,8.2383,8.2148,8.2187,8.1679,8.1484,8.1836,8.1992,8.1953,8.1797,8.1719,8.2031,8.2226,8.2304,8.2304,8.2304,8.2304,8.2304,8.2304,8.2304,8.2303,8.2203,8.2098,8.187,8.1608,8.1929,8.1495,8.0777,8.0224,7.9762,7.9176,7.8546,7.7999,7.7335,7.714,7.714,7.7257,7.7414,7.7726,7.7726,7.7609,7.7745,7.7519,7.717,7.696,7.6752,7.6505,7.6341,7.6234,7.6186,7.6133,7.6287,7.632,7.616,7.6062,7.6034,7.6005,7.6015,7.6015,7.5976,8.289,8.2304,8.2226,8.2656,8.3594,8.457,8.5351,8.6094,8.6953,8.6562,8.5429,8.5351,8.5586,8.5859,8.5976,8.5742,8.4961,8.4023,8.3437,8.3281,8.2656,8.2344,8.2383,8.2344,8.3203,8.3437,8.3672,8.3086,8.2969,8.2695,8.2461,8.2617,8.3164,8.3437,8.3515,8.3945,8.4648,8.4726,8.4765,8.4883,8.5039,8.5078,8.5078,8.5078,8.5078,8.5156,8.5234,8.5234,8.5156,8.5117,8.5,8.4961,8.4883,8.4844,8.4726,8.3945,8.2773,8.1484,8.2109,8.164,8.1211,8.1758,8.164,8.0859,8.0898,8.1054,8.1562,8.2265,8.2187,8.207,8.1953,8.2148,8.2237,8.2125,8.1904,8.2019,8.2032,8.1356,8.12,8.0888,8.0749,8.0821,8.0459,7.999,7.9522,7.8936,7.835,7.7804,7.7414,7.7218,7.7101,7.7179,7.7257,7.7531,7.7648,7.757,7.7458,7.7258,7.6987,7.6675,7.6493,7.6341,7.6204,7.6095,7.6111,7.6092,7.6118,7.6106,7.6034,7.6005,7.6005,7.6044,7.6015,7.6015,7.6207,8.4844,8.4531,8.4531,8.5,8.5742,8.5703,8.582,8.6133,8.6054,8.5625,8.5,8.4883,8.5156,8.5273,8.4531,8.4062,8.3906,8.332,8.289,8.2969,8.2578,8.2617,8.3125,8.3515,8.4062,8.4258,8.4726,8.4687,8.4023,8.375,8.3789,8.375,8.4101,8.4336,8.4375,8.4687,8.5156,8.5586,8.6094,8.6367,8.6367,8.6328,8.6328,8.6367,8.6328,8.6289,8.6289,8.6367,8.6367,8.6367,8.6367,8.6367,8.625,8.5976,8.5625,8.5469,8.4219,8.3515,8.3633,8.2929,8.2734,8.2929,8.3008,8.2734,8.1601,8.1054,8.0898,8.0781,8.082,8.0925,8.1006,8.0801,8.0827,8.0866,8.1109,8.1105,8.1056,8.0621,8.0185,7.9873,7.9678,7.9873,7.999,7.96,7.9092,7.8546,7.7999,7.7492,7.7257,7.714,7.7101,7.7101,7.714,7.7179,7.7257,7.7218,7.7168,7.7033,7.6855,7.6588,7.6376,7.621,7.6249,7.6167,7.6082,7.6053,7.6053,7.6053,7.6159,7.6092,7.5976,7.6361,7.6746,7.6861,7.7284,8.6054,8.5859,8.5625,8.6054,8.6797,8.6133,8.5703,8.5469,8.539,8.4883,8.4414,8.4414,8.4453,8.414,8.3281,8.3125,8.3242,8.2812,8.2656,8.2656,8.2929,8.3398,8.3906,8.457,8.4804,8.4961,8.5586,8.5625,8.5429,8.5351,8.5351,8.4961,8.5078,8.5195,8.5312,8.5586,8.6054,8.6523,8.7031,8.7304,8.7344,8.7383,8.7383,8.7422,8.75,8.75,8.75,8.7422,8.7422,8.7383,8.7304,8.7226,8.7187,8.6797,8.6562,8.6406,8.5664,8.5469,8.5195,8.4726,8.4687,8.4492,8.4336,8.3359,8.3164,8.2148,8.1719,8.164,8.125,8.0988,8.0392,8.0363,8.0163,8.0152,7.9957,7.9912,7.9912,7.9951,8.0107,8.0263,7.9951,7.9287,7.9248,7.9014,7.8624,7.8116,7.7609,7.7218,7.714,7.714,7.7101,7.7101,7.714,7.714,7.7134,7.7082,7.6956,7.6936,7.6793,7.6749,7.6712,7.6673,7.6755,7.6583,7.6515,7.6784,7.7207,7.6746,7.6322,7.6553,7.6823,7.7323,7.763,7.79,7.8592,8.5703,8.4922,8.414,8.4375,8.5156,8.5039,8.4531,8.414,8.539,8.4531,8.2969,8.3242,8.3281,8.289,8.3203,8.3047,8.2539,8.3164,8.3437,8.3789,8.4258,8.4531,8.4844,8.4961,8.5078,8.5234,8.6015,8.6289,8.6289,8.6679,8.6094,8.5234,8.5859,8.6054,8.6289,8.6601,8.6914,8.7226,8.7461,8.7461,8.75,8.75,8.75,8.75,8.75,8.75,8.75,8.75,8.75,8.75,8.75,8.75,8.7422,8.7304,8.7187,8.7109,8.707,8.6875,8.6601,8.5429,8.4101,8.3594,8.3476,8.3711,8.4101,8.3726,8.3672,8.356,8.2584,8.2276,8.1798,8.1441,8.0699,8.0191,8.0107,8.0263,8.0185,7.9834,8.0068,8.0537,8.0263,7.9522,7.9326,7.9248,7.8936,7.8507,7.7921,7.7492,7.7296,7.7296,7.714,7.7101,7.7179,7.7212,7.7167,7.7246,7.7506,7.7447,7.7254,7.7326,7.7428,7.7391,7.7361,7.7861,7.8015,7.8169,7.8323,7.8323,7.813,7.763,7.7746,7.84,7.9477,8.0246,8.09,8.4726,8.4765,8.3398,8.3633,8.4844,8.4336,8.3906,8.3633,8.375,8.3359,8.2304,8.2617,8.2617,8.2617,8.3164,8.3437,8.3242,8.4023,8.4297,8.4453,8.4765,8.5195,8.5429,8.5781,8.5976,8.6367,8.6836,8.7031,8.707,8.7344,8.7187,8.6797,8.6758,8.6914,8.7187,8.7265,8.7422,8.75,8.75,8.75,8.75,8.75,8.75,8.75,8.75,8.75,8.75,8.75,8.75,8.75,8.75,8.75,8.75,8.75,8.75,8.75,8.75,8.75,8.75,8.6523,8.6054,8.582,8.5312,8.4784,8.5101,8.419,8.3476,8.3242,8.3276,8.2891,8.1675,8.163,8.1513,8.081,8.0576,8.0771,8.0771,8.0537,8.0537,8.12,8.0537,7.9678,7.9639,7.9639,7.9326,7.8936,7.835,7.7921,7.7921,7.796,7.7999,7.796,7.8116,7.8004,7.7987,7.8063,7.8192,7.801,7.7798,7.8219,7.8536,7.816,7.8246,7.8861,7.9438,7.9515,7.9746,8.0092,7.99,7.9285,7.9323,7.9746,8.0977,8.2362,8.3016,8.3789,8.3984,8.2812,8.3164,8.4336,8.3867,8.3437,8.3164,8.2929,8.25,8.2344,8.2539,8.2695,8.2929,8.3594,8.4023,8.4219,8.4804,8.5195,8.5429,8.5664,8.6015,8.6406,8.664,8.6836,8.7422,8.75,8.7461,8.7422,8.75,8.7383,8.7383,8.75,8.7422,8.7461,8.75,8.75,8.75,8.75,8.75,8.75,8.75,8.75,8.75,8.75,8.75,8.75,8.75,8.75,8.75,8.75,8.75,8.75,8.75,8.75,8.75,8.75,8.75,8.7498,8.7461,8.7461,8.7031,8.6776,8.6171,8.5657,8.5044,8.496,8.4401,8.3894,8.3074,8.2215,8.2567,8.2332,8.163,8.1435,8.1552,8.1825,8.1747,8.1747,8.1942,8.1435,8.1591,8.1669,8.1786,8.0615,8.0224,7.9639,7.9366,7.9444,7.9483,7.9522,7.9444,7.9366,7.9197,7.8971,7.8946,7.8937,7.9072,7.9069,7.9671,7.9807,7.9507,7.99,8.0977,8.1323,8.1016,8.1246,8.1785,8.14,8.0785,8.1246,8.19,8.2631,8.3939,8.4555,8.3125,8.2383,8.2344,8.2812,8.3594,8.3594,8.3125,8.2617,8.3164,8.3086,8.2578,8.3203,8.3594,8.3789,8.4492,8.4844,8.5078,8.5742,8.6172,8.6289,8.6679,8.7226,8.7304,8.7344,8.7304,8.7422,8.75,8.75,8.75,8.75,8.75,8.75,8.75,8.75,8.75,8.75,8.75,8.75,8.75,8.75,8.75,8.75,8.75,8.75,8.75,8.75,8.75,8.75,8.75,8.75,8.75,8.75,8.75,8.75,8.75,8.75,8.75,8.7492,8.7504,8.7416,8.7422,8.7422,8.7157,8.7056,8.7173,8.7056,8.6789,8.6002,8.5963,8.5377,8.4714,8.405,8.3426,8.2957,8.2801,8.284,8.3191,8.3035,8.3035,8.3035,8.3894,8.4597,8.4519,8.4128,8.2528,8.1591,8.1005,8.0849,8.0966,8.081,8.081,8.0836,8.0712,8.0708,8.0454,7.9787,7.968,7.9903,8.0431,8.1176,8.1624,8.1662,8.2247,8.3131,8.3093,8.2708,8.3054,8.3516,8.3131,8.2939,8.3747,8.4439,8.4978,8.5209,8.5555,8.2578,8.2304,8.2304,8.2461,8.2734,8.2734,8.2539,8.25,8.3125,8.3437,8.3398,8.4062,8.4453,8.4726,8.5312,8.5781,8.5937,8.664,8.707,8.707,8.7383,8.7422,8.75,8.75,8.75,8.75,8.75,8.75,8.75,8.75,8.75,8.75,8.75,8.75,8.75,8.75,8.75,8.75,8.75,8.75,8.75,8.75,8.75,8.75,8.75,8.75,8.75,8.75,8.75,8.75,8.75,8.75,8.75,8.75,8.75,8.7486,8.7479,8.744,8.7426,8.7405,8.7397,8.7392,8.7387,8.7407,8.7407,8.7407,8.7407,8.7407,8.7095,8.6392,8.5729,8.608,8.5729,8.5182,8.4987,8.4987,8.5065,8.4519,8.4239,8.4245,8.4792,8.4831,8.4831,8.5221,8.4128,8.3504,8.2957,8.2645,8.2684,8.2137,8.1864,8.2031,8.2075,8.2208,8.2053,8.1524,8.1484,8.1937,8.2409,8.3002,8.3362,8.3401,8.3632,8.4016,8.4247,8.4439,8.4478,8.4593,8.5016,8.5286,8.5401,8.5478,8.5593,8.567,8.5863,8.2304,8.2304,8.2304,8.2304,8.2304,8.2304,8.2422,8.2812,8.3359,8.375,8.4179,8.4961,8.5351,8.5625,8.6211,8.664,8.6719,8.7187,8.7461,8.75,8.75,8.75,8.75,8.75,8.75,8.75,8.75,8.75,8.75,8.75,8.75,8.75,8.75,8.75,8.75,8.75,8.75,8.75,8.75,8.75,8.75,8.75,8.75,8.75,8.75,8.75,8.75,8.75,8.75,8.75,8.75,8.75,8.75,8.75,8.75,8.7483,8.7459,8.7426,8.7426,8.742,8.7414,8.7414,8.7407,8.7407,8.7407,8.7407,8.7407,8.7407,8.7407,8.7095,8.6744,8.7329,8.7095,8.6471,8.6431,8.6392,8.6275,8.5729,8.5605,8.5612,8.5299,8.5182,8.5065,8.5534,8.5573,8.526,8.4987,8.4675,8.4401,8.3972,8.3536,8.3709,8.3732,8.3817,8.3735,8.338,8.3502,8.3965,8.417,8.4362,8.4516,8.4478,8.4709,8.4901,8.5055,8.5209,8.5401,8.5593,8.567,8.5786,8.5901,8.5978,8.6094,8.6094,8.6094,8.2304,8.2304,8.2304,8.2304,8.2304,8.2383,8.2851,8.3594,8.3711,8.4219,8.5,8.5859,8.6211,8.6406,8.7109,8.7383,8.7344,8.7461,8.75,8.75,8.75,8.75,8.75,8.75,8.75,8.75,8.75,8.75,8.75,8.75,8.75,8.75,8.75,8.75,8.75,8.75,8.75,8.75,8.75,8.75,8.75,8.75,8.75,8.75,8.75,8.75,8.75,8.75,8.75,8.75,8.75,8.75,8.75,8.75,8.75,8.7459,8.7436,8.7426,8.7407,8.7407,8.7407,8.7407,8.7407,8.7407,8.7407,8.7407,8.7407,8.7407,8.7407,8.7407,8.7407,8.7407,8.7368,8.7212,8.7212,8.7212,8.7212,8.7095,8.7056,8.6861,8.6392,8.6119,8.5768,8.608,8.6471,8.6392,8.6119,8.6119,8.5963,8.6275,8.5956,8.5981,8.5877,8.5541,8.5272,8.48,8.4695,8.4863,8.4901,8.5055,8.5247,8.5363,8.5401,8.5478,8.5786,8.5901,8.5824,8.5863,8.5978,8.6094,8.6094,8.6094,8.6094,8.6094,8.6094,8.2304,8.2304,8.2304,8.2304,8.2383,8.2969,8.3359,8.3711,8.4804,8.5625,8.5859,8.6758,8.7031,8.7187,8.7422,8.7461,8.75,8.75,8.75,8.75,8.75,8.75,8.75,8.75,8.75,8.75,8.75,8.75,8.75,8.75,8.75,8.75,8.75,8.75,8.75,8.75,8.75,8.75,8.75,8.75,8.75,8.75,8.75,8.75,8.75,8.75,8.75,8.75,8.75,8.75,8.75,8.75,8.75,8.75,8.75,8.7416,8.7405,8.7397,8.7414,8.7407,8.7407,8.7407,8.7407,8.7407,8.7407,8.7407,8.7407,8.7407,8.7407,8.7407,8.7407,8.7407,8.7407,8.7407,8.7407,8.7407,8.7407,8.7407,8.7368,8.7095,8.6666,8.6549,8.6275,8.6627,8.6978,8.7095,8.7134,8.7095,8.7134,8.729,8.7323,8.7276,8.6962,8.6294,8.62,8.5785,8.5728,8.5703,8.5632,8.5555,8.5593,8.567,8.5863,8.594,8.6017,8.6055,8.6055,8.6094,8.6094,8.6094,8.6094,8.6094,8.6094,8.6094,8.6094,8.2304,8.2304,8.2304,8.25,8.3008,8.4101,8.4609,8.4844,8.5781,8.6367,8.6758,8.7265,8.75,8.7461,8.75,8.75,8.75,8.75,8.75,8.75,8.75,8.75,8.75,8.75,8.75,8.75,8.75,8.75,8.75,8.75,8.75,8.75,8.75,8.75,8.75,8.75,8.75,8.75,8.75,8.75,8.75,8.75,8.75,8.75,8.75,8.75,8.75,8.75,8.75,8.7495,8.7492,8.7461,8.7461,8.7461,8.7457,8.7408,8.7397,8.7387,8.7407,8.7407,8.7407,8.7407,8.7407,8.7407,8.7407,8.7407,8.7407,8.7407,8.7407,8.7407,8.7407,8.7407,8.7407,8.7407,8.7407,8.7407,8.7407,8.7407,8.7212,8.6978,8.6822,8.6705,8.6822,8.7212,8.7251,8.6939,8.7017,8.729,8.729,8.7329,8.7368,8.7362,8.7092,8.6652,8.6615,8.6455,8.6131,8.594,8.594,8.5901,8.5901,8.5901,8.5978,8.6017,8.6094,8.6094,8.6094,8.6094,8.6094,8.6094,8.6094,8.6094,8.6094,8.6094,8.6094,8.2304,8.2304,8.2383,8.3008,8.3984,8.5469,8.6133,8.6289,8.6367,8.6758,8.7344,8.75,8.75,8.75,8.75,8.75,8.75,8.75,8.75,8.75,8.75,8.75,8.75,8.75,8.75,8.75,8.75,8.75,8.75,8.75,8.75,8.75,8.75,8.75,8.75,8.75,8.75,8.75,8.75,8.75,8.75,8.75,8.75,8.75,8.75,8.75,8.75,8.75,8.7495,8.747,8.7446,8.7414,8.7426,8.7397,8.7405,8.7401,8.7387,8.7414,8.7407,8.7407,8.7407,8.7407,8.7407,8.7407,8.7407,8.7407,8.7407,8.7407,8.7407,8.7407,8.7407,8.7407,8.7407,8.7407,8.7407,8.7407,8.7407,8.7368,8.7251,8.7095,8.7095,8.6978,8.6744,8.7017,8.7329,8.6822,8.6822,8.7329,8.7407,8.7407,8.7401,8.7393,8.7064,8.6787,8.6661,8.6481,8.6215,8.6094,8.6094,8.5978,8.5824,8.594,8.6094,8.6094,8.6094,8.6094,8.6094,8.6094,8.6094,8.6094,8.6094,8.6094,8.6094,8.6094,8.6094,8.2304,8.2383,8.3008,8.414,8.5508,8.6015,8.6601,8.7187,8.7187,8.7265,8.7461,8.75,8.75,8.75,8.75,8.75,8.75,8.75,8.75,8.75,8.75,8.75,8.75,8.75,8.75,8.75,8.75,8.75,8.75,8.75,8.75,8.75,8.75,8.75,8.75,8.75,8.75,8.75,8.75,8.75,8.75,8.75,8.75,8.75,8.75,8.75,8.75,8.7461,8.7451,8.742,8.7407,8.7407,8.7407,8.7414,8.742,8.7414,8.7414,8.7407,8.7407,8.7407,8.7407,8.7407,8.7407,8.7407,8.7407,8.7407,8.7407,8.7407,8.7407,8.7407,8.7407,8.7407,8.7407,8.7407,8.7407,8.7407,8.7407,8.7329,8.7251,8.729,8.7329,8.7134,8.6861,8.69,8.7134,8.7251,8.7251,8.7407,8.7407,8.7401,8.7377,8.7312,8.7035,8.6787,8.6661,8.6442,8.6184,8.6094,8.6094,8.594,8.5786,8.594,8.6094,8.6094,8.6094,8.6094,8.6094,8.6094,8.6094,8.6094,8.6094,8.6094,8.6094,8.6094,8.6094,8.2539,8.3008,8.4258,8.5273,8.6172,8.6601,8.707,8.7461,8.75,8.75,8.75,8.75,8.75,8.75,8.75,8.75,8.75,8.75,8.75,8.75,8.75,8.75,8.75,8.75,8.75,8.75,8.75,8.75,8.75,8.75,8.75,8.75,8.75,8.75,8.75,8.75,8.75,8.75,8.75,8.75,8.75,8.75,8.75,8.75,8.7461,8.7461,8.7461,8.7418,8.7401,8.7414,8.7407,8.7407,8.7407,8.7407,8.7407,8.7407,8.7407,8.7407,8.7407,8.7407,8.7407,8.7407,8.7407,8.7407,8.7407,8.7407,8.7407,8.7407,8.7407,8.7407,8.7407,8.7407,8.7407,8.7407,8.7407,8.7407,8.7407,8.7368,8.7329,8.7368,8.7368,8.7329,8.7134,8.7134,8.7329,8.7329,8.7407,8.7407,8.7407,8.7393,8.733,8.722,8.6955,8.6726,8.6544,8.6373,8.612,8.6094,8.6094,8.6017,8.594,8.6017,8.6094,8.6094,8.6094,8.6094,8.6094,8.6094,8.6094,8.6094,8.6094,8.6094,8.6094,8.6094,8.6094,8.3047,8.4101,8.5547,8.625,8.6484,8.7148,8.7461,8.75,8.75,8.75,8.75,8.75,8.75,8.75,8.75,8.75,8.75,8.75,8.75,8.75,8.75,8.75,8.75,8.75,8.75,8.75,8.75,8.75,8.75,8.75,8.75,8.75,8.75,8.75,8.75,8.75,8.75,8.75,8.75,8.7461,8.7461,8.75,8.7461,8.7461,8.7421,8.7421,8.7416,8.7405,8.7407,8.7407,8.7407,8.7407,8.7407,8.7407,8.7407,8.7407,8.7407,8.7407,8.7407,8.7407,8.7407,8.7407,8.7407,8.7407,8.7407,8.7407,8.7407,8.7407,8.7407,8.7407,8.7407,8.7407,8.7407,8.7407,8.7407,8.7407,8.7407,8.7407,8.7407,8.7407,8.7407,8.7407,8.7407,8.7407,8.7407,8.7407,8.7407,8.7407,8.7401,8.7338,8.7312,8.7131,8.6903,8.6661,8.6468,8.6259,8.6094,8.6094,8.6094,8.6094,8.6094,8.6094,8.6094,8.6094,8.6094,8.6094,8.6094,8.6094,8.6094,8.6094,8.6094,8.6094,8.6094,8.6094,8.6094,8.4297,8.5742,8.6094,8.6601,8.7187,8.7461,8.75,8.75,8.75,8.75,8.75,8.75,8.75,8.75,8.75,8.75,8.75,8.75,8.75,8.75,8.75,8.75,8.75,8.75,8.75,8.75,8.75,8.75,8.75,8.75,8.75,8.75,8.75,8.75,8.75,8.75,8.75,8.7498,8.7447,8.7436,8.7431,8.7431,8.7426,8.7401,8.7416,8.7411,8.7397,8.7414,8.7407,8.7407,8.7407,8.7407,8.7407,8.7407,8.7407,8.7407,8.7407,8.7407,8.7407,8.7407,8.7407,8.7407,8.7407,8.7407,8.7407,8.7407,8.7407,8.7407,8.7407,8.7407,8.7407,8.7407,8.7407,8.7407,8.7407,8.7407,8.7407,8.7407,8.7407,8.7407,8.7407,8.7407,8.7407,8.7407,8.7407,8.7407,8.7407,8.7407,8.7401,8.7338,8.7253,8.7035,8.6826,8.6638,8.6468,8.6238,8.6094,8.6094,8.6094,8.6094,8.6094,8.6094,8.6094,8.6094,8.6094,8.6094,8.6094,8.6094,8.6094,8.6094,8.6094,8.6094,8.6094,8.6094,8.6094]},{"header":{"parameterUnit":"m.s-1","parameterCategory":1,"la1":31.0,"la2":29.5877,"lo1":-88.7671,"lo2":-86.6584,"dy":0.0162,"dx":0.0185,"nx":115,"ny":88,"refTime":"2024-02-03T06:00:00:Z","depth":0,"parameterNumber":3,"parameterNumberName":"V-component_of_WINDS"},"data":[0.0,0.0,0.0,0.0,0.0,0.0,0.0,0.0,0.0,0.0,0.0,0.0,0.0,0.0,0.0,0.0,0.0,0.0,0.0,0.0,0.0,0.0,0.0,0.0,0.0,0.0,0.0,0.0,0.0,0.0,0.0,0.0,0.0,0.0,0.0,0.0,0.0,0.0,0.0,0.0,0.0,0.0,0.0,0.0,0.0,0.0,0.0,0.0,0.0,0.0,0.0,0.0,0.0,0.0,0.0,0.0,0.0,0.0,0.0,0.0,0.0,0.0,0.0,0.0,0.0,0.0,0.0,0.0,0.0,0.0,0.0,0.0,0.0,0.0,0.0,0.0,0.0,0.0,0.0,0.0,0.0,0.0,0.0,0.0,0.0,0.0,0.0,0.0,0.0,0.0,0.0,0.0,0.0,0.0,0.0,0.0,0.0,0.0,0.0,0.0,0.0,0.0,0.0,0.0,0.0,0.0,0.0,0.0,0.0,0.0,0.0,0.0,0.0,0.0,0.0,0.0,0.0,0.0,0.0,0.0,0.0,0.0,0.0,0.0,0.0,0.0,0.0,0.0,0.0,0.0,0.0,0.0,0.0,0.0,0.0,0.0,0.0,0.0,0.0,0.0,0.0,0.0,0.0,0.0,0.0,0.0,0.0,0.0,0.0,0.0,0.0,0.0,0.0,0.0,0.0,0.0,0.0,0.0,0.0,0.0,0.0,0.0,0.0,0.0,0.0,0.0,0.0,0.0,0.0,0.0,0.0,0.0,0.0,0.0,0.0,0.0,0.0,0.0,0.0,0.0,0.0,0.0,0.0,0.0,0.0,0.0,0.0,0.0,0.0,0.0,0.0,0.0,0.0,0.0,0.0,0.0,0.0,0.0,0.0,0.0,0.0,0.0,0.0,0.0,0.0,0.0,0.0,0.0,0.0,0.0,0.0,0.0,0.0,0.0,0.0,0.0,0.0,0.0,0.0,0.0,0.0,0.0,0.0,0.0,0.0,0.0,0.0,0.0,0.0,0.0,0.0,0.0,0.0,0.0,0.0,0.0,0.0,0.0,0.0,0.0,0.0,0.0,0.0,0.0,0.0,0.0,0.0,0.0,0.0,0.0,0.0,0.0,0.0,0.0,0.0,0.0,0.0,0.0,0.0,0.0,0.0,0.0,0.0,0.0,0.0,0.0,0.0,0.0,0.0,0.0,0.0,0.0,0.0,0.0,0.0,0.0,0.0,0.0,0.0,0.0,0.0,0.0,0.0,0.0,0.0,0.0,0.0,0.0,0.0,0.0,0.0,0.0,0.0,0.0,0.0,0.0,0.0,0.0,0.0,0.0,0.0,0.0,0.0,0.0,0.0,0.0,0.0,0.0,0.0,0.0,0.0,0.0,0.0,0.0,0.0,0.0,0.0,0.0,0.0,0.0,0.0,0.0,0.0,0.0,0.0,0.0,0.0,0.0,0.0,0.0,0.0,0.0,0.0,0.0,0.0,0.0,0.0,0.0,0.0,0.0,0.0,0.0,0.0,0.0,0.0,0.0,0.0,0.0,0.0,0.0,0.0,0.0,0.0,0.0,0.0,0.0,0.0,0.0,0.0,0.0,0.0,0.0,0.0,0.0,0.0,0.0,0.0,0.0,0.0,0.0,0.0,0.0,0.0,0.0,0.0,0.0,0.0,0.0,0.0,0.0,0.0,0.0,0.0,0.0,0.0,0.0,0.0,0.0,0.0,0.0,0.0,0.0,0.0,0.0,0.0,0.0,0.0,0.0,0.0,0.0,0.0,0.0,0.0,0.0,0.0,0.0,0.0,0.0,0.0,0.0,0.0,0.0,0.0,0.0,0.0,0.0,0.0,0.0,0.0,0.0,0.0,0.0,0.0,0.0,0.0,0.0,0.0,0.0,0.0,0.0,0.0,0.0,0.0,0.0,0.0,0.0,0.0,0.0,0.0,0.0,0.0,0.0,0.0,0.0,0.0,0.0,0.0,0.0,0.0,0.0,0.0,0.0,0.0,0.0,0.0,0.0,0.0,0.0,0.0,0.0,0.0,0.0,0.0,0.0,0.0,0.0,0.0,0.0,0.0,0.0,0.0,0.0,0.0,0.0,0.0,0.0,0.0,0.0,0.0,0.0,0.0,0.0,0.0,0.0,0.0,0.0,0.0,0.0,0.0,0.0,0.0,0.0,0.0,0.0,0.0,0.0,0.0,0.0,0.0,0.0,0.0,0.0,0.0,0.0,0.0,0.0,0.0,0.0,0.0,0.0,0.0,0.0,0.0,0.0,0.0,0.0,0.0,0.0,0.0,0.0,0.0,0.0,0.0,0.0,0.0,0.0,0.0,0.0,0.0,0.0,0.0,0.0,0.0,0.0,0.0,0.0,0.0,0.0,0.0,0.0,0.0,0.0,0.0,0.0,0.0,0.0,0.0,0.0,0.0,0.0,0.0,0.0,0.0,0.0,0.0,0.0,0.0,0.0,0.0,0.0,0.0,0.0,0.0,0.0,0.0,0.0,0.0,0.0,0.0,0.0,0.0,0.0,0.0,0.0,0.0,0.0,0.0,0.0,0.0,0.0,0.0,0.0,0.0,0.0,0.0,0.0,0.0,0.0,0.0,0.0,0.0,0.0,0.0,0.0,0.0,0.0,0.0,0.0,0.0,0.0,0.0,0.0,0.0,0.0,0.0,0.0,0.0,0.0,0.0,0.0,0.0,0.0,0.0,0.0,0.0,0.0,0.0,0.0,0.0,0.0,0.0,0.0,0.0,0.0,0.0,0.0,0.0,0.0,0.0,0.0,0.0,0.0,0.0,0.0,0.0,0.0,0.0,0.0,0.0,0.0,0.0,0.0,0.0,0.0,0.0,0.0,0.0,0.0,0.0,0.0,0.0,0.0,0.0,0.0,0.0,0.0,0.0,0.0,0.0,0.0,0.0,0.0,0.0,0.0,0.0,0.0,0.0,0.0,0.0,0.0,0.0,0.0,0.0,0.0,0.0,0.0,0.0,0.0,0.0,0.0,0.0,0.0,0.0,0.0,0.0,0.0,0.0,0.0,0.0,0.0,0.0,0.0,0.0,0.0,0.0,0.0,0.0,0.0,0.0,0.0,0.0,0.0,0.0,0.0,0.0,0.0,0.0,0.0,0.0,0.0,0.0,0.0,0.0,0.0,0.0,0.0,0.0,0.0,0.0,0.0,0.0,0.0,0.0,0.0,0.0,0.0,0.0,0.0,0.0,0.0,0.0,0.0,0.0,0.0,0.0,0.0,0.0,0.0,0.0,0.0,0.0,0.0,0.0,0.0,0.0,0.0,0.0,0.0,0.0,0.0,0.0,0.0,0.0,0.0,0.0,0.0,0.0,0.0,0.0,0.0,0.0,0.0,0.0,0.0,0.0,0.0,0.0,0.0,0.0,0.0,0.0,0.0,0.0,0.0,0.0,0.0,0.0,0.0,0.0,0.0,0.0,0.0,0.0,0.0,0.0,0.0,0.0,0.0,0.0,0.0,0.0,0.0,0.0,0.0,0.0,0.0,0.0,0.0,0.0,0.0,0.0,0.0,0.0,0.0,0.0,0.0,0.0,0.0,0.0,0.0,0.0,0.0,0.0,0.0,0.0,0.0,0.0,0.0,0.0,0.0,0.0,0.0,0.0,0.0,0.0,0.0,0.0,0.0,0.0,0.0,0.0,0.0,0.0,0.0,0.0,0.0,0.0,0.0,0.0,0.0,0.0,0.0,0.0,0.0,0.0,0.0,0.0,0.0,0.0,0.0,0.0,0.0,0.0,0.0,0.0,0.0,0.0,0.0,0.0,0.0,0.0,0.0,0.0,0.0,0.0,0.0,0.0,0.0,0.0,0.0,0.0,0.0,0.0,0.0,0.0,0.0,0.0,0.0,0.0,0.0,0.0,0.0,0.0,0.0,0.0,0.0,0.0,0.0,0.0,0.0,0.0,0.0,0.0,0.0,0.0,0.0,0.0,0.0,0.0,0.0,0.0,0.0,0.0,0.0,0.0,0.0,0.0,0.0,0.0,0.0,0.0,0.0,0.0,0.0,0.0,0.0,0.0,0.0,0.0,0.0,0.0,0.0,0.0,0.0,0.0,0.0,0.0,0.0,0.0,0.0,0.0,0.0,0.0,0.0,0.0,0.0,0.0,0.0,0.0,0.0,0.0,0.0,0.0,0.0,0.0,0.0,0.0,0.0,0.0,0.0,0.0,0.0,0.0,0.0,0.0,0.0,0.0,0.0,0.0,0.0,0.0,0.0,0.0,0.0,0.0,0.0,-0.8038,0.0,0.0,0.0,0.0,0.0,0.0,0.0,0.0,0.0,0.0,0.0,0.0,0.0,0.0,0.0,0.0,0.0,0.0,0.0,0.0,0.0,0.0,0.0,0.0,0.0,0.0,0.0,0.0,0.0,0.0,0.0,0.0,0.0,0.0,0.0,0.0,0.0,0.0,0.0,0.0,0.0,0.0,0.0,0.0,0.0,0.0,0.0,0.0,0.0,0.0,0.0,0.0,0.0,0.0,0.0,0.0,0.0,0.0,0.0,0.0,0.0,0.0,0.0,0.0,0.0,0.0,0.0,0.0,0.0,0.0,0.0,0.0,0.0,0.0,0.0,0.0,0.0,0.0,0.0,0.0,0.0,0.0,0.0,0.0,0.0,0.0,0.0,0.0,0.0,0.0,0.0,0.0,0.0,0.0,0.0,0.0,0.0,0.0,0.0,0.0,0.0,0.0,0.0,0.0,0.0,0.0,0.0,0.0,0.0,0.0,-0.8038,-0.8038,-0.8038,-0.8038,-0.8038,0.0,0.0,0.0,0.0,0.0,0.0,0.0,0.0,0.0,0.0,0.0,0.0,0.0,0.0,0.0,0.0,0.0,0.0,0.0,0.0,0.0,0.0,0.0,0.0,0.0,0.0,0.0,0.0,0.0,0.0,0.0,0.0,0.0,0.0,0.0,0.0,0.0,0.0,0.0,0.0,0.0,0.0,0.0,0.0,0.0,0.0,0.0,0.0,0.0,0.0,0.0,0.0,0.0,0.0,0.0,0.0,0.0,0.0,0.0,0.0,0.0,0.0,0.0,0.0,0.0,0.0,0.0,0.0,0.0,0.0,0.0,0.0,0.0,0.0,0.0,0.0,0.0,0.0,0.0,0.0,0.0,0.0,0.0,0.0,0.0,0.0,0.0,0.0,0.0,0.0,0.0,0.0,0.0,0.0,0.0,0.0,0.0,0.0,0.0,0.0,0.0,0.0,0.0,0.0,0.0,0.0,0.0,0.0,0.0,0.0,0.0,0.0,-0.8038,-0.8038,-0.8038,0.0,0.0,0.0,0.0,0.0,0.0,0.0,0.0,0.0,0.0,0.0,0.0,0.0,0.0,0.0,0.0,0.0,0.0,0.0,0.0,0.0,0.0,0.0,0.0,0.0,0.0,0.0,0.0,0.0,0.0,0.0,0.0,0.0,0.0,0.0,0.0,0.0,0.0,0.0,0.0,0.0,0.0,0.0,0.0,0.0,0.0,0.0,0.0,0.0,0.0,0.0,0.0,0.0,0.0,0.0,0.0,0.0,0.0,0.0,0.0,0.0,0.0,0.0,0.0,0.0,0.0,0.0,0.0,0.0,0.0,0.0,0.0,0.0,0.0,0.0,0.0,0.0,0.0,0.0,0.0,0.0,0.0,0.0,0.0,0.0,0.0,0.0,0.0,0.0,0.0,0.0,0.0,0.0,0.0,0.0,0.0,0.0,0.0,0.0,0.0,0.0,0.0,0.0,0.0,0.0,0.0,0.0,0.0,0.0,0.0,-0.8038,-0.8038,-0.8038,0.0,-0.8038,0.0,0.0,0.0,0.0,0.0,0.0,0.0,0.0,0.0,0.0,0.0,0.0,0.0,0.0,0.0,0.0,0.0,0.0,0.0,0.0,0.0,0.0,0.0,0.0,0.0,0.0,0.0,0.0,0.0,0.0,0.0,0.0,0.0,0.0,0.0,0.0,0.0,0.0,0.0,0.0,0.0,0.0,0.0,0.0,0.0,0.0,0.0,0.0,0.0,0.0,0.0,0.0,0.0,0.0,0.0,0.0,0.0,0.0,0.0,0.0,0.0,0.0,0.0,0.0,0.0,0.0,0.0,0.0,0.0,0.0,0.0,0.0,0.0,0.0,0.0,0.0,0.0,0.0,0.0,0.0,0.0,0.0,0.0,0.0,0.0,0.0,0.0,0.0,0.0,0.0,0.0,0.0,0.0,0.0,0.0,0.0,0.0,0.0,0.0,0.0,0.0,0.0,0.0,0.0,0.0,0.0,0.0,0.0,0.0,0.0,-0.8038,-0.8038,-0.8038,-0.8038,0.0,0.0,0.0,0.0,0.0,0.0,0.0,0.0,0.0,0.0,0.0,0.0,0.0,0.0,0.0,0.0,0.0,0.0,0.0,0.0,0.0,0.0,0.0,0.0,0.0,0.0,0.0,0.0,0.0,0.0,0.0,0.0,0.0,0.0,0.0,0.0,0.0,0.0,0.0,0.0,0.0,0.0,0.0,0.0,0.0,0.0,0.0,0.0,0.0,0.0,0.0,0.0,0.0,0.0,0.0,0.0,0.0,0.0,0.0,0.0,0.0,0.0,0.0,0.0,0.0,0.0,0.0,0.0,0.0,0.0,0.0,0.0,0.0,0.0,0.0,0.0,0.0,0.0,0.0,0.0,0.0,0.0,0.0,0.0,0.0,0.0,0.0,0.0,0.0,0.0,0.0,0.0,0.0,0.0,0.0,0.0,0.0,0.0,0.0,0.0,0.0,0.0,0.0,0.0,0.0,0.0,0.0,0.0,0.0,0.0,-0.8038,-0.8038,-0.8038,-0.8038,-0.8038,-0.8038,0.0,0.0,0.0,0.0,0.0,0.0,0.0,0.0,0.0,0.0,0.0,0.0,0.0,0.0,0.0,0.0,0.0,0.0,0.0,0.0,0.0,0.0,0.0,0.0,0.0,0.0,0.0,0.0,0.0,0.0,0.0,0.0,0.0,0.0,0.0,0.0,0.0,0.0,0.0,0.0,0.0,0.0,0.0,0.0,0.0,0.0,0.0,0.0,0.0,0.0,0.0,0.0,0.0,0.0,0.0,0.0,0.0,0.0,0.0,0.0,0.0,0.0,0.0,0.0,0.0,0.0,0.0,0.0,0.0,0.0,0.0,0.0,0.0,0.0,0.0,0.0,0.0,0.0,0.0,0.0,0.0,0.0,0.0,0.0,0.0,0.0,0.0,0.0,0.0,0.0,0.0,0.0,0.0,0.0,0.0,0.0,0.0,0.0,0.0,0.0,0.0,0.0,0.0,0.0,0.0,0.0,0.0,0.0,-0.8038,-0.8038,-0.8038,-0.8038,-0.8038,-0.8038,0.0,0.0,0.0,0.0,0.0,0.0,0.0,0.0,0.0,0.0,0.0,0.0,0.0,0.0,0.0,0.0,0.0,0.0,0.0,0.0,0.0,0.0,0.0,0.0,0.0,0.0,0.0,0.0,0.0,0.0,0.0,0.0,0.0,0.0,0.0,0.0,0.0,0.0,0.0,0.0,0.0,0.0,0.0,0.0,0.0,0.0,0.0,0.0,0.0,0.0,0.0,0.0,0.0,0.0,0.0,0.0,0.0,0.0,0.0,0.0,0.0,0.0,0.0,0.0,0.0,0.0,0.0,0.0,0.0,0.0,0.0,0.0,0.0,0.0,0.0,0.0,0.0,0.0,0.0,0.0,0.0,0.0,0.0,0.0,0.0,0.0,0.0,0.0,0.0,0.0,0.0,0.0,0.0,0.0,0.0,0.0,0.0,0.0,0.0,0.0,0.0,0.0,0.0,0.0,0.0,0.0,0.0,0.0,0.0,-0.8038,-0.8038,-0.8038,-0.8038,-0.8038,-0.8038,0.0,0.0,0.0,0.0,0.0,0.0,0.0,0.0,0.0,0.0,0.0,0.0,0.0,0.0,0.0,0.0,0.0,0.0,0.0,0.0,0.0,0.0,0.0,0.0,0.0,0.0,0.0,0.0,0.0,0.0,0.0,0.0,0.0,0.0,0.0,0.0,0.0,0.0,0.0,0.0,0.0,0.0,0.0,0.0,0.0,0.0,0.0,0.0,0.0,0.0,0.0,0.0,0.0,0.0,0.0,0.0,0.0,0.0,0.0,0.0,0.0,0.0,0.0,0.0,0.0,0.0,0.0,0.0,0.0,0.0,0.0,0.0,0.0,0.0,0.0,0.0,0.0,0.0,0.0,0.0,0.0,0.0,0.0,0.0,0.0,0.0,0.0,0.0,0.0,0.0,0.0,0.0,0.0,0.0,0.0,0.0,0.0,0.0,0.0,0.0,0.0,0.0,0.0,0.0,0.0,0.0,0.0,0.0,0.0,-0.8038,0.0,-0.8038,-0.8038,-0.8038,-0.8038,0.0,0.0,0.0,0.0,0.0,0.0,0.0,0.0,0.0,0.0,0.0,0.0,0.0,0.0,0.0,0.0,0.0,0.0,0.0,0.0,0.0,0.0,0.0,0.0,0.0,0.0,0.0,0.0,0.0,0.0,0.0,0.0,0.0,0.0,0.0,0.0,0.0,0.0,0.0,0.0,0.0,0.0,0.0,0.0,0.0,0.0,0.0,0.0,0.0,0.0,0.0,0.0,0.0,0.0,0.0,0.0,0.0,0.0,0.0,0.0,0.0,0.0,0.0,0.0,0.0,0.0,0.0,0.0,0.0,0.0,0.0,0.0,0.0,0.0,0.0,0.0,0.0,0.0,0.0,0.0,0.0,0.0,0.0,0.0,0.0,0.0,0.0,0.0,0.0,0.0,0.0,0.0,0.0,0.0,0.0,0.0,0.0,0.0,0.0,0.0,0.0,0.0,0.0,0.0,0.0,0.0,0.0,0.0,-0.8038,-0.8038,-0.8038,-0.8045,-0.8038,-0.8045,-0.8038,0.0,0.0,0.0,0.0,0.0,0.0,0.0,0.0,0.0,0.0,0.0,0.0,0.0,0.0,0.0,0.0,0.0,0.0,0.0,0.0,0.0,0.0,0.0,0.0,0.0,0.0,0.0,0.0,0.0,0.0,0.0,0.0,0.0,0.0,0.0,0.0,0.0,0.0,0.0,0.0,0.0,0.0,0.0,0.0,0.0,0.0,0.0,0.0,0.0,0.0,0.0,0.0,0.0,0.0,0.0,0.0,0.0,0.0,0.0,0.0,0.0,0.0,0.0,0.0,0.0,0.0,0.0,0.0,0.0,0.0,0.0,0.0,0.0,0.0,0.0,0.0,0.0,0.0,0.0,0.0,0.0,0.0,0.0,0.0,0.0,0.0,0.0,0.0,0.0,0.0,0.0,0.0,0.0,0.0,0.0,0.0,0.0,0.0,0.0,0.0,0.0,0.0,0.0,0.0,0.0,0.0,0.0,0.0,0.0,-0.8038,-0.8038,-0.7992,-0.7985,-0.7992,-0.7992,0.0,0.0,0.0,0.0,0.0,0.0,0.0,0.0,0.0,0.0,0.0,0.0,0.0,0.0,0.0,0.0,0.0,0.0,0.0,0.0,0.0,0.0,0.0,0.0,0.0,0.0,0.0,0.0,0.0,0.0,0.0,0.0,0.0,0.0,0.0,0.0,0.0,0.0,0.0,0.0,0.0,0.0,0.0,0.0,0.0,0.0,0.0,0.0,0.0,0.0,0.0,0.0,0.0,0.0,0.0,0.0,0.0,0.0,0.0,0.0,0.0,0.0,0.0,0.0,0.0,0.0,0.0,0.0,0.0,0.0,0.0,0.0,0.0,0.0,0.0,0.0,0.0,0.0,0.0,0.0,0.0,0.0,0.0,0.0,0.0,0.0,0.0,0.0,0.0,0.0,0.0,0.0,0.0,0.0,0.0,0.0,0.0,0.0,0.0,0.0,0.0,0.0,0.0,0.0,0.0,0.0,0.0,0.0,0.0,-0.8201,-0.8153,-0.8073,-0.7955,-0.8073,-0.8147,-0.7971,0.0,0.0,0.0,0.0,0.0,0.0,0.0,0.0,0.0,0.0,0.0,0.0,0.0,0.0,0.0,0.0,0.0,0.0,0.0,0.0,0.0,0.0,0.0,0.0,0.0,0.0,0.0,0.0,0.0,0.0,0.0,0.0,0.0,0.0,0.0,0.0,0.0,0.0,0.0,0.0,0.0,0.0,0.0,0.0,0.0,0.0,0.0,0.0,0.0,0.0,0.0,0.0,0.0,0.0,0.0,0.0,0.0,0.0,0.0,0.0,0.0,0.0,0.0,0.0,0.0,0.0,0.0,0.0,0.0,0.0,0.0,0.0,0.0,0.0,0.0,0.0,0.0,0.0,0.0,0.0,0.0,0.0,0.0,0.0,0.0,0.0,0.0,0.0,0.0,0.0,0.0,0.0,0.0,0.0,0.0,0.0,0.0,0.0,0.0,0.0,0.0,0.0,0.0,0.0,0.0,0.0,0.0,0.0,-0.8492,-0.837,-0.8206,-0.8104,-0.8296,-0.8323,0.0,0.0,0.0,0.0,0.0,0.0,0.0,0.0,0.0,0.0,0.0,0.0,0.0,0.0,0.0,0.0,0.0,0.0,0.0,0.0,0.0,0.0,0.0,0.0,0.0,0.0,0.0,0.0,0.0,0.0,0.0,0.0,0.0,0.0,0.0,0.0,0.0,0.0,0.0,0.0,0.0,0.0,0.0,0.0,0.0,0.0,0.0,0.0,0.0,0.0,0.0,0.0,0.0,0.0,0.0,0.0,0.0,0.0,0.0,0.0,0.0,0.0,0.0,0.0,0.0,0.0,0.0,0.0,0.0,0.0,0.0,0.0,0.0,0.0,0.0,0.0,0.0,0.0,0.0,0.0,0.0,0.0,0.0,0.0,0.0,0.0,0.0,0.0,0.0,0.0,0.0,0.0,0.0,0.0,0.0,0.0,0.0,0.0,0.0,0.0,0.0,0.0,0.0,0.0,0.0,0.0,0.0,0.0,0.0,-0.8642,-0.8723,-0.8649,-0.8425,-0.8216,-0.8086,0.0,0.0,0.0,0.0,0.0,0.0,0.0,0.0,0.0,0.0,0.0,0.0,0.0,0.0,0.0,0.0,0.0,0.0,0.0,0.0,0.0,0.0,0.0,0.0,0.0,0.0,0.0,0.0,0.0,0.0,0.0,0.0,0.0,0.0,0.0,0.0,0.0,0.0,0.0,0.0,0.0,0.0,0.0,0.0,0.0,0.0,0.0,0.0,0.0,0.0,0.0,0.0,0.0,0.0,0.0,0.0,0.0,0.0,0.0,0.0,0.0,0.0,0.0,0.0,0.0,0.0,0.0,0.0,0.0,0.0,0.0,0.0,0.0,0.0,0.0,0.0,0.0,0.0,0.0,0.0,0.0,0.0,0.0,0.0,0.0,0.0,0.0,0.0,0.0,0.0,0.0,0.0,0.0,0.0,0.0,0.0,0.0,0.0,0.0,0.0,0.0,0.0,0.0,0.0,0.0,0.0,0.0,0.0,-0.8757,-0.8988,-0.9144,-0.9131,-0.9069,-0.8615,-0.8314,0.0,0.0,0.0,0.0,0.0,0.0,0.0,0.0,0.0,0.0,0.0,0.0,0.0,0.0,0.0,0.0,0.0,0.0,0.0,0.0,0.0,0.0,0.0,0.0,0.0,0.0,0.0,0.0,0.0,0.0,0.0,0.0,0.0,0.0,0.0,0.0,0.0,0.0,0.0,0.0,0.0,0.0,0.0,0.0,0.0,0.0,0.0,0.0,0.0,0.0,0.0,0.0,0.0,0.0,0.0,0.0,0.0,0.0,0.0,0.0,0.0,0.0,0.0,0.0,0.0,0.0,0.0,0.0,0.0,0.0,0.0,0.0,0.0,0.0,0.0,0.0,0.0,0.0,0.0,0.0,0.0,0.0,0.0,0.0,0.0,0.0,0.0,0.0,0.0,0.0,0.0,0.0,0.0,0.0,0.0,0.0,0.0,0.0,0.0,0.0,0.0,0.0,0.0,0.0,0.0,0.0,0.0,0.0,-0.9232,-0.9401,-0.9571,-0.9707,-0.9802,-0.9252,-0.8653,0.0,0.0,0.0,0.0,0.0,0.0,0.0,0.0,0.0,0.0,0.0,0.0,0.0,0.0,0.0,0.0,0.0,0.0,0.0,0.0,0.0,0.0,0.0,0.0,0.0,0.0,0.0,0.0,0.0,0.0,0.0,0.0,0.0,0.0,0.0,0.0,0.0,0.0,0.0,0.0,0.0,0.0,0.0,0.0,0.0,0.0,0.0,0.0,0.0,0.0,0.0,0.0,0.0,0.0,0.0,0.0,0.0,0.0,0.0,0.0,0.0,0.0,0.0,0.0,0.0,0.0,0.0,0.0,0.0,0.0,0.0,0.0,0.0,0.0,0.0,0.0,0.0,0.0,0.0,0.0,0.0,0.0,0.0,0.0,0.0,0.0,0.0,0.0,0.0,0.0,0.0,0.0,0.0,0.0,0.0,0.0,0.0,0.0,0.0,0.0,0.0,0.0,0.0,0.0,0.0,0.0,0.0,0.0,-0.9286,-0.9557,-0.9822,-0.991,-0.9815,-0.9516,-0.9318,0.0,0.0,0.0,0.0,0.0,0.0,0.0,0.0,0.0,0.0,0.0,0.0,0.0,0.0,0.0,0.0,0.0,0.0,0.0,0.0,0.0,0.0,0.0,0.0,0.0,0.0,0.0,0.0,0.0,0.0,0.0,0.0,0.0,0.0,0.0,0.0,0.0,0.0,0.0,0.0,0.0,0.0,0.0,0.0,0.0,0.0,0.0,0.0,-0.2019,0.0,0.0,0.0,0.0,0.0,0.0,0.0,0.0,0.0,0.0,0.0,0.0,0.0,0.0,0.0,0.0,0.0,0.0,0.0,0.0,0.0,0.0,0.0,0.0,0.0,0.0,0.0,0.0,0.0,0.0,0.0,0.0,0.0,0.0,0.0,0.0,0.0,0.0,0.0,0.0,0.0,0.0,0.0,0.0,0.0,0.0,0.0,0.0,0.0,0.0,0.0,0.0,0.0,0.0,0.0,0.0,0.0,0.0,0.0,-0.9517,-0.9808,-1.0039,-1.012,-1.0156,-0.9773,-0.9349,0.0,0.0,0.0,0.0,0.0,0.0,0.0,0.0,0.0,0.0,0.0,0.0,0.0,0.0,0.0,0.0,0.0,0.0,0.0,0.0,0.0,0.0,0.0,0.0,0.0,0.0,0.0,0.0,0.0,0.0,0.0,0.0,0.0,0.0,0.0,0.0,0.0,0.0,0.0,0.0,0.0,0.0,0.0,0.0,0.0,0.0,0.0,0.0,0.0,0.0,0.0,0.0,0.0,0.0,0.0,0.0,0.0,0.0,0.0,0.0,0.0,0.0,0.0,0.0,0.0,0.0,0.0,0.0,0.0,0.0,0.0,0.0,0.0,0.0,0.0,0.0,0.0,0.0,0.0,0.0,0.0,0.0,0.0,0.0,0.0,0.0,0.0,0.0,0.0,0.0,0.0,0.0,0.0,0.0,0.0,0.0,0.0,0.0,0.0,0.0,0.0,0.0,0.0,0.0,0.0,0.0,0.0,-0.949,-0.9788,-1.008,-1.0256,-1.0458,-1.0672,-1.0169,-0.9372,-0.8339,0.0,0.0,0.0,0.0,0.0,0.0,0.0,0.0,0.0,0.0,0.0,0.0,0.0,0.0,0.0,0.0,0.0,0.0,0.0,0.0,0.0,0.0,0.0,0.0,0.0,0.0,0.0,0.0,0.0,0.0,0.0,0.0,0.0,0.0,0.0,0.0,0.0,0.0,-0.6337,-0.4425,0.0,0.0,0.0,0.0,0.0,0.0,0.0,0.0,-0.1621,0.0,0.0,0.0,0.0,0.0,0.0,0.0,0.0,0.0,0.0,0.0,0.0,0.0,0.0,0.0,0.0,0.0,0.0,0.0,0.0,0.0,0.0,0.0,0.0,0.0,0.0,0.0,0.0,0.0,0.0,0.0,0.0,0.0,0.0,0.0,0.0,0.0,0.0,0.0,0.0,0.0,0.0,0.0,0.0,0.0,0.0,0.0,0.0,0.0,0.0,0.0,0.0,0.0,0.0,0.0,0.0,-0.934,-0.9632,-0.9937,-1.0243,-1.0507,-1.0664,-1.0686,-1.0342,-1.0026,-0.9571,0.0,0.0,0.0,0.0,0.0,0.0,0.0,0.0,0.0,0.0,0.0,0.0,0.0,0.0,0.0,0.0,0.0,0.0,0.0,0.0,0.0,0.0,0.0,0.0,0.0,0.0,0.0,0.0,0.0,0.0,0.0,0.0,0.0,0.0,0.0,0.0,0.0,0.0,0.0,-0.4024,-0.2823,0.0,0.0,0.0,0.0,0.0,0.0,0.0,0.0,-0.1625,0.0,0.0,0.0,0.0,0.0,0.0,0.0,0.0,0.0,0.0,0.0,0.0,0.0,0.0,0.0,0.0,0.0,0.0,0.0,0.0,0.0,0.0,0.0,0.0,0.0,0.0,0.0,0.0,0.0,0.0,0.0,0.0,0.0,0.0,0.0,0.0,0.0,0.0,0.0,0.0,0.0,0.0,0.0,0.0,0.0,0.0,0.0,0.0,0.0,0.0,0.0,0.0,0.0,0.0,0.0,-0.9496,-0.9795,-1.0086,-1.0385,-1.0609,-1.0713,-1.0686,-1.0461,-1.0169,0.0,0.0,0.0,0.0,0.0,0.0,0.0,0.0,0.0,0.0,0.0,0.0,0.0,0.0,0.0,0.0,0.0,0.0,0.0,0.0,0.0,0.0,0.0,0.0,0.0,0.0,0.0,0.0,0.0,0.0,0.0,0.0,0.0,0.0,0.0,0.0,0.0,0.0,0.0,0.0,-0.4365,-0.3872,-0.1921,0.0,0.0,0.0,0.0,0.0,0.0,-0.1423,-0.142,0.0,0.0,0.0,0.0,0.0,0.0,0.0,0.0,0.0,0.0,0.0,0.0,0.0,0.0,0.0,0.0,0.0,0.0,0.0,0.0,0.0,0.0,0.0,0.0,0.0,0.0,0.0,0.0,0.0,0.0,0.0,0.0,0.0,0.0,0.0,0.0,0.0,0.0,0.0,0.0,0.0,0.0,0.0,0.0,0.0,0.0,0.0,0.0,0.0,0.0,0.0,0.0,0.0,0.0,0.0,-0.9564,-0.989,-1.0181,-1.0439,-1.0629,-1.0713,-1.0686,-1.0392,-1.0093,0.0,0.0,0.0,0.0,0.0,0.0,0.0,0.0,0.0,0.0,0.0,0.0,0.0,0.0,0.0,0.0,0.0,0.0,0.0,0.0,0.0,0.0,0.0,0.0,0.0,0.0,0.0,0.0,0.0,0.0,0.0,0.0,0.0,0.0,0.0,0.0,0.0,0.0,0.0,0.0,0.0,-0.4119,-0.1833,-0.1446,0.0,0.0,0.0,0.0,-0.1636,-0.1336,0.0,0.0,0.0,0.0,0.0,0.0,0.0,0.0,0.0,0.0,0.0,0.0,0.0,0.0,0.0,0.0,0.0,0.0,0.0,0.0,0.0,0.0,0.0,0.0,0.0,0.0,0.0,0.0,0.0,0.0,0.0,0.0,0.0,0.0,0.0,0.0,0.0,0.0,0.0,0.0,0.0,0.0,0.0,0.0,0.0,0.0,0.0,0.0,0.0,0.0,0.0,0.0,0.0,0.0,0.0,0.0,-0.9415,-0.9829,-1.0134,-1.0304,-1.0582,-1.0713,-1.0686,-1.0392,-0.9964,0.0,0.0,0.0,0.0,0.0,0.0,0.0,0.0,0.0,0.0,0.0,0.0,0.0,0.0,0.0,0.0,0.0,0.0,0.0,0.0,0.0,0.0,0.0,0.0,0.0,0.0,0.0,0.0,0.0,0.0,0.0,0.0,0.0,0.0,0.0,0.0,0.0,0.0,0.0,0.0,0.0,-0.1764,-0.1035,-0.1052,-0.1269,0.0,0.0,0.0,-0.1595,-0.1523,0.0,0.0,0.0,0.0,0.0,0.0,0.0,0.0,0.0,0.0,0.0,0.0,0.0,0.0,0.0,0.0,0.0,0.0,0.0,0.0,0.0,0.0,0.0,0.0,0.0,0.0,0.0,0.0,0.0,0.0,0.0,0.0,0.0,0.0,0.0,0.0,0.0,0.0,0.0,0.0,0.0,0.0,0.0,0.0,0.0,0.0,0.0,0.0,0.0,0.0,0.0,0.0,0.0,0.0,0.0,-0.8341,-0.8671,-0.962,-1.029,-1.0521,-1.0656,-1.0713,-1.0679,-1.0433,-0.9875,0.0,0.0,0.0,0.0,0.0,0.0,0.0,0.0,0.0,0.0,0.0,0.0,0.0,0.0,0.0,0.0,0.0,0.0,0.0,0.0,0.0,0.0,0.0,0.0,0.0,0.0,0.0,0.0,0.0,0.0,0.0,0.0,0.0,0.0,0.0,0.0,0.0,0.0,0.0,0.0,0.0,0.0,-0.104,-0.0957,0.0,0.0,0.0,-0.1218,-0.1209,0.0,0.0,0.0,0.0,0.0,0.0,0.0,0.0,0.0,0.0,0.0,0.0,0.0,0.0,0.0,0.0,0.0,0.0,0.0,0.0,0.0,0.0,0.0,0.0,0.0,0.0,0.0,0.0,0.0,0.0,0.0,0.0,0.0,0.0,0.0,0.0,0.0,0.0,0.0,0.0,0.0,0.0,0.0,0.0,0.0,0.0,0.0,0.0,0.0,0.0,0.0,0.0,0.0,0.0,0.0,0.0,0.0,-0.7939,-0.9218,-1.0012,-1.0656,-1.0704,-1.0733,-1.0735,-1.0425,0.0,0.0,0.0,0.0,0.0,0.0,0.0,0.0,0.0,0.0,0.0,0.0,0.0,0.0,0.0,0.0,0.0,0.0,0.0,0.0,0.0,0.0,0.0,0.0,0.0,0.0,0.0,-0.7036,0.0,0.0,0.0,0.0,0.0,0.0,0.0,0.0,0.0,0.0,0.0,0.0,0.0,0.0,-0.3313,-0.1273,-0.0764,-0.0892,0.0,0.0,-0.0918,-0.0682,-0.0229,-0.0228,0.0,0.0,0.0,0.0,0.0,0.0,0.0,0.0,0.0,0.0,0.0,0.0,0.0,0.0,0.0,0.0,0.0,0.0,0.0,0.0,0.0,0.0,0.0,0.0,0.0,0.0,0.0,0.0,0.0,0.0,0.0,0.0,0.0,0.0,0.0,0.0,0.0,0.0,0.0,0.0,0.0,0.0,0.0,0.0,0.0,0.0,0.0,0.0,0.0,0.0,0.0,0.0,0.0,0.0,0.0,-0.7829,-0.8171,-0.9062,-1.0507,-1.0643,-1.0649,-1.0746,-1.0447,-0.9828,0.0,0.0,0.0,0.0,0.0,0.0,0.0,0.0,0.0,0.0,0.0,0.0,0.0,0.0,0.0,0.0,0.0,0.0,0.0,0.0,0.0,0.0,0.0,0.0,0.0,0.0,0.0,0.0,0.0,0.0,0.0,0.0,0.0,0.0,0.0,0.0,0.0,0.0,0.0,0.0,0.0,-0.1756,-0.1559,-0.0689,-0.0469,0.0,0.0,-0.1337,-0.0236,0.0,0.0,0.0,0.0,0.0,0.0,0.0,0.0,0.0,0.0,0.0,0.0,0.0,0.0,0.0,0.0,0.0,0.0,0.0,0.0,0.0,0.0,0.0,0.0,0.0,0.0,0.0,0.0,0.0,0.0,0.0,0.0,0.0,0.0,0.0,0.0,0.0,0.0,0.0,0.0,0.0,0.0,0.0,0.0,0.0,0.0,0.0,0.0,0.0,0.0,0.0,0.0,0.0,0.0,0.0,0.0,-0.4948,-0.5563,-0.6467,-0.7796,-0.9288,-0.9353,-0.9845,-1.063,-1.0608,-1.0253,0.0,0.0,0.0,0.0,0.0,0.0,0.0,0.0,0.0,0.0,0.0,0.0,0.0,0.0,0.0,0.0,0.0,0.0,0.0,0.0,0.0,0.0,0.0,0.0,0.0,0.0,0.0,0.0,-0.5427,-0.4726,-0.3025,0.0,0.0,0.0,0.0,0.0,0.0,0.0,0.0,0.0,0.0,-0.1589,-0.1615,-0.0713,0.0,0.0,-0.1379,-0.1392,-0.025,0.0,0.0,0.0,0.0,0.0,0.0,0.0,0.0,0.0,0.0,0.0,0.0,0.0,0.0,0.0,0.0,0.0,0.0,0.0,0.0,0.0,0.0,0.0,0.0,0.0,0.0,0.0,0.0,0.0,0.0,0.0,0.0,0.0,0.0,0.0,0.0,0.0,0.0,0.0,0.0,0.0,0.0,0.0,0.0,0.0,0.0,0.0,0.0,0.0,0.0,0.0,0.0,0.0,0.0,0.0,0.0,-0.3547,-0.4153,-0.5107,-0.6385,-0.7897,-0.7902,-0.8806,-1.0582,-1.0707,-0.9725,0.0,0.0,0.0,0.0,0.0,0.0,0.0,0.0,0.0,0.0,0.0,0.0,0.0,0.0,0.0,0.0,0.0,0.0,0.0,0.0,0.0,0.0,0.0,0.0,0.0,0.0,0.0,0.0,-0.4024,-0.3224,-0.1716,0.0,0.0,0.0,0.0,0.0,0.0,0.0,0.0,0.0,0.0,-0.1514,-0.1184,-0.0488,0.0,0.0,-0.0764,-0.0898,-0.0128,0.0,0.0,0.0,0.0,0.0,0.0,0.0,0.0,0.0,0.0,0.0,0.0,0.0,0.0,0.0,0.0,0.0,0.0,0.0,0.0,0.0,0.0,0.0,0.0,0.0,0.0,0.0,0.0,0.0,0.0,0.0,0.0,0.0,0.0,0.0,0.0,0.0,0.0,0.0,0.0,0.0,0.0,0.0,0.0,0.0,0.0,0.0,0.0,0.0,0.0,0.0,0.0,0.0,0.0,0.0,0.0,0.0,-0.4156,-0.422,-0.4959,-0.6431,-0.6431,-0.7789,-1.0505,-1.0637,-0.7986,-0.2428,0.0,0.0,0.0,0.0,0.0,0.0,0.0,0.0,0.0,0.0,0.0,0.0,0.0,0.0,0.0,0.0,0.0,0.0,0.0,0.0,0.0,0.0,0.0,0.0,0.0,0.0,-0.3525,-0.2322,-0.1718,0.0,0.0,0.0,0.0,0.0,0.0,0.0,0.0,0.0,0.0,-0.1615,-0.1184,-0.0241,0.0,0.0,0.0,0.0,0.0,0.0,0.0,0.0,0.0,0.0,0.0,0.0,0.0,0.0,0.0,0.0,0.0,0.0,0.0,0.0,0.0,0.0,0.0,0.0,0.0,0.0,0.0,0.0,0.0,0.0,0.0,0.0,0.0,0.0,0.0,0.0,-0.1908,0.0,0.0,0.0,0.0,0.0,0.0,0.0,0.0,0.0,0.0,0.0,-0.5342,-0.3796,0.0,0.0,0.0,0.0,0.0,0.0,0.0,0.0,0.0,0.0,0.0,0.0,-0.225,-0.2721,-0.2739,-0.3592,-0.4956,-0.5103,-0.5902,-0.7762,-0.7774,-0.5598,-0.0875,0.0,0.0,0.0,0.0,0.0,0.0,0.0,0.0,0.0,0.0,0.0,0.0,0.0,0.0,0.0,0.0,0.0,0.0,0.0,0.0,0.0,0.0,0.0,0.0,0.0,-0.5532,0.0,0.0,0.0,0.0,0.0,0.0,0.0,0.0,0.0,0.0,0.0,-0.1547,-0.1591,-0.0947,-0.0367,-0.0,0.0,0.0,0.0,0.0,0.0,0.0,0.0,0.0,0.0,0.0,0.0,0.0,0.0,0.0,0.0,0.0,0.0,0.0,0.0,0.0,0.0,0.0,0.0,0.0,0.0,0.0,0.0,0.0,0.0,0.0,0.0,0.0,0.0,0.0,0.0,0.0,0.0,-0.2247,0.0,0.0,0.0,0.0,0.0,0.0,0.0,0.0,-0.2639,-0.3482,-0.4085,-0.2614,-0.2389,0.0,-0.2257,-0.2717,0.0,0.0,0.0,0.0,0.0,0.0,0.0,0.0,-0.203,-0.2106,-0.212,-0.2567,-0.3634,-0.3641,-0.4041,-0.4968,-0.4479,-0.2886,0.0,0.0,-0.1937,0.0,0.0,0.0,0.0,0.0,0.0,0.0,0.0,0.0,0.0,0.0,0.0,0.0,0.0,0.0,0.0,0.0,0.0,0.0,0.0,0.0,0.0,0.0,-0.4138,0.0,0.0,0.0,0.0,0.0,0.0,0.0,0.0,0.0,-0.1413,-0.1558,-0.1487,-0.1058,-0.0487,0.0,0.0,0.0,0.0,0.0,0.0,0.0,0.0,0.0,0.0,0.0,0.0,0.0,0.0,0.0,0.0,0.0,0.0,0.0,0.0,0.0,0.0,0.0,0.0,0.0,0.0,0.0,0.0,0.0,0.0,0.0,0.0,0.0,0.0,0.0,0.0,-0.18,-0.1814,0.0,-0.2937,0.0,0.0,0.0,0.0,0.0,0.0,0.0,0.0,-0.199,-0.1904,-0.1934,-0.1964,-0.1964,-0.1936,-0.1937,-0.1936,-0.1936,-0.1936,0.0,0.0,0.0,0.0,0.0,0.0,-0.205,-0.198,-0.2008,-0.205,-0.2247,-0.2249,-0.2248,-0.2243,-0.082,0.0,0.0,0.0,0.0,0.0,-0.3131,0.0,0.0,0.0,0.0,0.0,0.0,0.0,0.0,0.0,0.0,0.0,0.0,0.0,0.0,0.0,0.0,0.0,0.0,0.0,0.0,-0.3232,0.0,0.0,0.0,0.0,0.0,0.0,0.0,0.0,0.0,0.0,-0.0901,-0.1256,-0.1173,-0.0123,0.0,0.0,0.0,0.0,0.0,0.0,0.0,0.0,0.0,0.0,0.0,0.0,0.0,0.0,0.0,0.0,0.0,0.0,0.0,0.0,0.0,0.0,0.0,0.0,0.0,0.0,0.0,0.0,0.0,-0.1842,0.0,0.0,0.0,0.0,-0.1859,-0.1859,-0.1859,-0.1859,-0.1853,-0.1839,-0.2172,0.0,0.0,0.0,0.0,0.0,0.0,-0.1876,-0.2023,-0.1936,-0.1966,-0.1994,-0.2024,-0.2034,-0.2026,-0.2026,-0.2026,-0.2026,-0.2026,-0.2005,-0.1964,0.0,0.0,0.0,0.0,-0.1961,-0.2033,-0.1636,-0.1392,-0.1443,-0.1444,-0.1717,-0.2247,-0.0827,0.0,0.0,0.0,0.0,0.0,-0.0863,0.0,0.0,0.0,0.0,0.0,0.0,0.0,0.0,0.0,0.0,0.0,0.0,0.0,0.0,0.0,0.0,0.0,0.0,0.0,-0.4605,-0.1993,-0.0737,0.0,0.0,0.0,0.0,0.0,0.0,0.0,0.0,0.0,-0.1561,-0.0836,-0.036,0.0,0.0,0.0,0.0,0.0,0.0,0.0,0.0,0.0,0.0,0.0,0.0,0.0,0.0,0.0,0.0,0.0,0.0,0.0,0.0,0.0,0.0,0.0,0.0,0.0,0.0,0.0,0.0,0.0,0.0,-0.2084,-0.1989,-0.1954,-0.1932,-0.1924,-0.1934,-0.1932,-0.1922,-0.1933,-0.1928,-0.191,-0.1899,-0.1884,-0.1866,-0.1861,0.0,0.0,0.0,-0.2047,-0.209,-0.1997,-0.2026,-0.2056,-0.2098,-0.2112,-0.2101,-0.2112,-0.2105,-0.2082,-0.1952,-0.2059,-0.2014,0.0,0.0,-0.2038,-0.1818,-0.1732,-0.206,-0.1668,-0.1275,-0.0729,-0.073,-0.1012,-0.1415,-0.1117,-0.0686,0.0,0.0,0.0,0.0,0.0,0.0,0.0,0.0,0.0,0.0,0.0,0.0,0.0,0.0,0.0,0.0,0.0,-0.4755,0.0,0.0,0.0,0.0,-0.6922,-0.5789,-0.2553,-0.0959,0.0,0.0,0.0,0.0,0.0,0.0,0.0,-0.0468,-0.1199,-0.1838,-0.1742,-0.0745,0.0,0.0,0.0,0.0,0.0,0.0,0.0,0.0,0.0,0.0,0.0,0.0,0.0,0.0,0.0,0.0,0.0,0.0,0.0,0.0,0.0,0.0,0.0,0.0,0.0,0.0,0.0,0.0,0.0,0.0,0.0,-0.2193,-0.2158,-0.2205,-0.2148,-0.2119,-0.2016,-0.2011,-0.1989,-0.2012,-0.202,-0.2016,-0.1992,-0.1979,-0.1977,-0.1921,0.0,0.0,-0.2065,-0.21,-0.2157,-0.2061,-0.2091,-0.2123,-0.2177,-0.2189,-0.2162,-0.2191,-0.2174,-0.2123,-0.1989,-0.1975,-0.1819,-0.1819,-0.1947,-0.1945,-0.1332,-0.1224,-0.1793,-0.1979,-0.1297,-0.0,0.0,0.0,0.0,-0.1416,-0.1398,0.0,0.0,0.0,0.0,0.0,0.0,0.0,0.0,0.0,0.0,0.0,0.0,0.0,0.0,0.0,0.0,0.0,0.0,0.0,0.0,0.0,0.0,-0.741,0.0,-0.0644,-0.0107,0.0,0.0,0.0,-0.1482,-0.1647,-0.0709,0.0,0.0,0.0,0.0,0.0,0.0,0.0,0.0,0.0,0.0,0.0,0.0,0.0,0.0,0.0,0.0,0.0,0.0,0.0,0.0,0.0,0.0,0.0,0.0,0.0,0.0,0.0,0.0,0.0,0.0,0.0,0.0,0.0,0.0,0.0,0.0,0.0,-0.2285,-0.2258,-0.2234,-0.2183,-0.2112,-0.2094,-0.2083,-0.2076,-0.206,-0.2039,-0.2018,-0.2012,-0.2008,-0.1883,-0.1869,-0.1879,-0.2034,-0.2056,-0.2218,-0.2124,-0.2154,-0.2184,-0.2214,-0.2228,-0.223,-0.2225,-0.2232,-0.2228,-0.2214,-0.2213,-0.1518,-0.0551,-0.0413,-0.0545,-0.0534,-0.0274,-0.028,-0.0425,-0.0571,-0.0288,0.0,0.0,0.0,0.0,-0.0288,-0.0429,0.0,0.0,0.0,0.0,0.0,0.0,0.0,0.0,0.0,0.0,0.0,0.0,0.0,0.0,0.0,0.0,0.0,-0.033,-0.0,0.0,-0.2602,0.0,-0.2338,-0.1695,-0.147,-0.0571,0.0,0.0,-0.0233,-0.0352,-0.0479,-0.0121,0.0,0.0,-0.0253,-0.0385,-0.0391,-0.0131,0.0,0.0,0.0,0.0,0.0,0.0,0.0,0.0,0.0,0.0,0.0,0.0,0.0,0.0,0.0,0.0,0.0,0.0,0.0,0.0,0.0,0.0,0.0,0.0,0.0,0.0,0.0,0.0,0.0,0.0,0.0,-0.2324,-0.2309,-0.2309,-0.2281,-0.2232,-0.2203,-0.2183,-0.2169,-0.2166,-0.2148,-0.2119,-0.2105,-0.2099,-0.2098,-0.1954,-0.1964,-0.2125,-0.2142,-0.2166,-0.2196,-0.2213,-0.209,-0.1684,-0.1694,-0.1698,-0.1699,-0.1995,-0.2278,-0.2266,-0.1558,-0.0847,0.0,0.0,0.0,0.0,0.0,0.0,0.0,0.0,0.0,0.0,0.0,0.0,0.0,0.0,0.0,0.0,0.0,0.0,0.0,0.0,0.0,0.0,0.0,0.0,0.0,0.0,0.0,0.0,0.0,0.0,0.0,0.0,0.0,0.0,0.0,-0.0905,0.0,-0.0345,0.0,-0.093,-0.0352,0.0,0.0,0.0,0.0,0.0,0.0,0.0,0.0,0.0,0.0,0.0,0.0,0.0,0.0,0.0,0.0,0.0,0.0,0.0,0.0,0.0,0.0,0.0,0.0,0.0,0.0,0.0,0.0,0.0,0.0,0.0,0.0,0.0,0.0,0.0,0.0,0.0,0.0,0.0,0.0,0.0,0.0,0.0,-0.2338,-0.2338,-0.2335,-0.2333,-0.2331,-0.2307,-0.2279,-0.2252,-0.2275,-0.227,-0.2244,-0.2217,-0.2206,-0.2204,-0.2178,-0.2045,-0.193,-0.1934,-0.1948,-0.1969,-0.2114,-0.1833,-0.127,-0.0999,-0.1005,-0.1005,-0.1742,-0.2033,-0.2009,-0.0718,0.0,0.0,0.0,0.0,0.0,0.0,0.0,0.0,0.0,0.0,0.0,0.0,0.0,0.0,0.0,0.0,0.0,0.0,0.0,0.0,0.0,0.0,0.0,0.0,0.0,0.0,0.0,0.0,0.0,0.0,0.0,0.0,0.0,0.0,0.0,0.0,0.0,0.0,0.0,0.0,0.0,0.0,0.0,0.0,0.0,0.0,0.0,0.0,0.0,0.0,0.0,0.0,0.0,0.0,0.0,0.0,0.0,0.0,0.0,0.0,0.0,0.0,0.0,0.0,0.0,0.0,0.0,0.0,0.0,0.0,0.0,0.0,0.0,0.0,0.0,0.0,0.0,0.0,0.0,0.0,0.0,0.0,0.0,0.0,0.0292,-0.2221,-0.2219,-0.2342,-0.2333,-0.2333,-0.2327,-0.2308,-0.2281,-0.2262,-0.2251,-0.2245,-0.224,-0.2237,-0.2236,-0.223,-0.1533,-0.042,-0.0424,-0.0427,-0.0428,-0.173,-0.2174,-0.2029,-0.0726,-0.0145,-0.0291,-0.0291,-0.0437,-0.0436,-0.0145,0.0,0.0,0.0,0.0,0.0,0.0,0.0,0.0,0.0,0.0,0.0,0.0,0.0,0.0,0.0,0.0,0.0,0.0,0.0,0.0,0.0,0.0,0.0,0.0,0.0,0.0,0.0,0.0,0.0,0.0,0.0,0.0,0.0,0.0,0.0,0.0,0.0,0.0,0.0,0.0,0.0,0.0,0.0,0.0,0.0,0.0,0.0,0.0,0.0,0.0,0.0,0.0,0.0,0.0,0.0,0.0,0.0,0.0,0.0,0.0,0.0,0.0,0.0,0.0,0.0,0.0,0.0,0.0,0.0,0.0,0.0,0.0,0.0,0.0,0.0,0.0,0.0,0.0,0.0,0.0,0.0,0.0,0.0,0.1022,0.1898,-0.2378,0.0,-0.2345,-0.2333,0.0,-0.2333,-0.2326,-0.2312,-0.2296,-0.2003,-0.1717,-0.1718,-0.1861,-0.229,-0.229,-0.1431,0.0,0.0,0.0,0.0,-0.0727,-0.1168,-0.1168,-0.0438,0.0,0.0,0.0,0.0,0.0,0.0,0.0,0.0,0.0,0.0,0.0,0.0,0.0,0.0,0.0,0.0,0.0,0.0,0.0,0.0,0.0,0.0,0.0,0.0,0.0,0.0,0.0,0.0,0.0,0.0,0.0,0.0,0.0,0.0,0.0,0.0,0.0,0.0,0.0,0.0,0.0,0.0,0.0,0.0,0.0,0.0,0.0,0.0,0.0,0.0,0.0,0.0,0.0,0.0,0.0,0.0,0.0,0.0,0.0,0.0,0.0,0.0,0.0,0.0,0.0,0.0,0.0,0.0,0.0,0.0,0.0,0.0,0.0,0.0,0.0,0.0,0.0,0.0,0.0,0.0,0.0,0.0,0.0,0.0,0.0,0.0,0.0584,0.1022,0.1168,0.1761,0.2364,-0.2391,-0.2383,-0.2353,-0.2338,-0.2333,-0.2333,-0.2334,-0.2337,0.0,0.0,0.0,-0.1022,-0.1314,-0.1898,-0.1898,-0.1168,0.0,0.0,0.0,0.0,0.0,0.0,0.0,0.0,0.0,0.0,0.0,0.0,0.0,0.0,0.0,0.0,0.0,0.0,0.0,0.0,0.0,0.0,0.0,0.0,0.0,0.0,0.0,0.0,0.0,0.0,0.0,0.0,0.0,0.0,0.0,0.0,0.0,0.0,0.0,0.0,0.0,0.0,0.0,0.0,0.0,0.0,0.0,0.0,0.0,0.0,0.0,0.0,0.0,0.0,0.0,0.0,0.0,0.0,0.0,0.0,0.0,0.0,0.0,0.0,0.0,0.0,0.0,0.0,0.0,0.0,0.0,0.0,0.0,0.0,0.0,0.0,0.0,0.0,0.0,0.0,0.0,0.0,0.0,0.0,0.0,0.0,0.0,0.0,0.0,0.0,0.0,0.0,0.0438,0.0438,0.1314,0.2194,0.2352,0.2372,0.2542,-0.244,-0.2414,-0.2384,-0.2357,-0.2333,-0.2333,-0.2334,-0.2189,-0.0876,0.0,-0.0146,-0.0146,-0.0292,-0.0292,-0.0292,-0.0146,0.0,0.0,0.0,0.0,0.0,0.0,0.0,0.0,0.0,0.0,0.0,0.0,0.0,0.0,0.0,0.0,0.0,0.0,0.0,0.0,0.0,0.0,0.0,0.0,0.0,0.0,0.0,0.0,0.0,0.0,0.0,0.0,0.0,0.0,0.0,0.0,0.0,0.0,0.0,0.0,0.0,0.0,0.0,0.0,0.0,0.0,0.0,0.0,0.0,0.0,0.0,0.0,0.0,0.0,0.0,0.0,0.0,0.0,0.0,0.0,0.0,0.0,0.0,0.0,0.0,0.0,0.0,0.0,0.0,0.0,0.0,0.0,0.0,0.0,0.0,0.0,0.0,0.0,0.0,0.0,0.0,0.0,0.0,0.0,0.0,0.0,0.0,0.0,0.0,0.0,0.0146,0.1168,0.1606,0.1752,0.1752,0.1762,0.2239,0.2406,0.241,-0.2461,-0.2443,-0.2398,-0.2223,-0.2356,-0.2342,-0.2345,-0.2212,-0.0738,0.0,0.0,0.0,0.0,0.0,0.0,0.0,0.0,0.0,0.0,0.0,0.0,0.0,0.0,0.0,0.0,0.0,0.0,0.0,0.0,0.0,0.0,0.0,0.0,0.0,0.0,0.0,0.0,0.0,0.0,0.0,0.0,0.0,0.0,0.0,0.0,0.0,0.0,0.0,0.0,0.0,0.0,0.0,0.0,0.0,0.0,0.0,0.0,0.0,0.0,0.0,0.0,0.0,0.0,0.0,0.0,0.0,0.0,0.0,0.0,0.0,0.0,0.0,0.0,0.0,0.0,0.0,0.0,0.0,0.0,0.0,0.0,0.0,0.0,0.0,0.0,0.0,0.0,0.0,0.0,0.0,0.0,0.0,0.0,0.0,0.0,0.0,0.0,0.0,0.0,0.0,0.0,0.0,0.0,0.0,0.0584,0.1168,0.1168,0.146,0.1898,0.2191,0.2043,0.2057,0.2371,0.2398,0.2428,-0.2495,-0.2484,-0.2432,-0.2101,-0.1789,-0.1774,-0.1925,-0.2091,-0.0598,0.0,0.0,0.0,0.0,0.0,0.0,0.0,0.0,0.0,0.0,0.0,0.0,0.0,0.0,0.0,0.0,0.0,0.0,0.0,0.0,0.0,0.0,0.0,0.0,0.0,0.0,0.0,0.0,0.0,0.0,0.0,0.0,0.0,0.0,0.0,0.0,0.0,0.0,0.0,0.0,0.0,0.0,0.0,0.0,0.0,0.0,0.0,0.0,0.0,0.0,0.0,0.0,0.0,0.0,0.0,0.0,0.0,0.0,0.0,0.0,0.0,0.0,0.0,0.0,0.0,0.0,0.0,0.0,0.0,0.0,0.0,0.0,0.0,0.0,0.0,0.0,0.0,0.0,0.0,0.0,0.0,0.0,0.0,0.0,0.0,0.0,0.0,0.0,0.0,0.0,0.0,0.0,0.0,0.0,0.0,0.0876,0.1606,0.2043,0.1898,0.1752,0.2189,0.2188,0.2338,0.2363,0.241,0.2455,-0.2574,-0.2548,-0.2512,-0.1543,0.0,0.0,-0.1058,-0.1968,-0.0605,0.0,0.0,0.0,0.0,0.0,0.0,0.0,0.0,0.0,0.0,0.0,0.0,0.0,0.0,0.0,0.0,0.0,0.0,0.0,0.0,0.0,0.0,0.0,0.0,0.0,0.0,0.0,0.0,0.0,0.0,0.0,0.0,0.0,0.0,0.0,0.0,0.0,0.0,0.0,0.0,0.0,0.0,0.0,0.0,0.0,0.0,0.0,0.0,0.0,0.0,0.0,0.0,0.0,0.0,0.0,0.0,0.0,0.0,0.0,0.0,0.0,0.0,0.0,0.0,0.0,0.0,0.0,0.0,0.0,0.0,0.0,0.0,0.0,0.0,0.0,0.0,0.0,0.0,0.0,0.0,0.0,0.0,0.0,0.0,0.0,0.0,0.0,0.0,0.0,0.0,0.0,0.0,0.0,0.0,0.0,0.0293,0.1025,0.1903,0.2191,0.2193,0.2201,0.2348,0.2352,0.2403,0.2455,0.2497,-0.2596,-0.2582,-0.2534,-0.1549,0.0,0.0,-0.0306,-0.0919,-0.0306,0.0,0.0,0.0,0.0,0.0,0.0,0.0,0.0,0.0,0.0,0.0,0.0,0.0,0.0,0.0,0.0,0.0,0.0,0.0,0.0,0.0,0.0,0.0,0.0,0.0,0.0,0.0,0.0,0.0,0.0,0.0,0.0,0.0,0.0,0.0,0.0,0.0,0.0,0.0,0.0,0.0,0.0,0.0,0.0,0.0,0.0,0.0,0.0,0.0,0.0,0.0,0.0,0.0,0.0,0.0,0.0,0.0,0.0,0.0,0.0,0.0,0.0,0.0,0.0,0.0,0.0,0.0,0.0,0.0,0.0,0.0,0.0,0.0,0.0,0.0,0.0,0.0,0.0,0.0,0.0,0.0,0.0,0.0,0.0,0.0,0.0,0.0,0.0,0.0,0.0,0.0,0.0,0.1045,0.0,0.1342,0.1341,0.149,0.2242,0.2388,0.2388,0.2384,0.2387,0.2401,0.2442,0.247,0.2491,-0.2627,-0.2619,-0.2083,-0.1252,0.0,0.0,0.0,0.0,0.0,0.0,0.0,0.0,0.0,0.0,0.0,0.0,0.0,0.0,0.0,0.0,0.0,0.0,0.0,0.0,0.0,0.0,0.0,0.0,0.0,0.0,0.0,0.0,0.0,0.0,0.0,0.0,0.0,0.0,0.0,0.0,0.0,0.0,0.0,0.0,0.0,0.0,0.0,0.0,0.0,0.0,0.0,0.0,0.0,0.0,0.0,0.0,0.0,0.0,0.0,0.0,0.0,0.0,0.0,0.0,0.0,0.0,0.0,0.0,0.0,0.0,0.0,0.0,0.0,0.0,0.0,0.0,0.0,0.0,0.0,0.0,0.0,0.0,0.0,0.0,0.0,0.0,0.0,0.0,0.0,0.0,0.0,0.0,0.0,0.0,0.0,0.0,0.0,0.0,0.0,0.0,0.0606,0.1817,0.2423,0.1805,0.2269,0.2421,0.2413,0.2417,0.2425,0.2425,0.2429,0.244,0.2461,0.2474,0.28,-0.2688,-0.2343,-0.082,0.0,0.0,0.0,0.0,0.0,0.0,0.0,0.0,0.0,0.0,0.0,0.0,0.0,0.0,0.0,0.0,0.0,0.0,0.0,0.0,0.0,0.0,0.0,0.0,0.0,0.0,0.0,0.0,0.0,0.0,0.0,0.0,0.0,0.0,0.0,0.0,0.0,0.0,0.0,0.0,0.0,0.0,0.0,0.0,0.0,0.0,0.0,0.0,0.0,0.0,0.0,0.0,0.0,0.0,0.0,0.0,0.0,0.0,0.0,0.0,0.0,0.0,0.0,0.0,0.0,0.0,0.0,0.0,0.0,0.0,0.0,0.0,0.0,0.0,0.0,0.0,0.0,0.0,0.0,0.0,0.0,0.0,0.0,0.0,0.0,0.0,0.0,0.0,0.0,0.0,0.0,0.0,0.0,0.0,0.0,0.1374,0.2127,0.2122,0.1968,0.2123,0.2276,0.2436,0.2436,0.2428,0.2427,0.2432,0.244,0.2457,0.247,0.248,0.2497,0.3133,-0.2002,-0.0988,-0.0327,0.0,0.0,0.0,0.0,0.0,0.0,0.0,0.0,0.0,0.0,0.0,0.0,0.0,0.0,0.0,0.0,0.0,0.0,0.0,0.0,0.0,0.0,0.0,0.0,0.0,0.0,0.0,0.0,0.0,0.0,0.0,0.0,0.0,0.0,0.0,0.0,0.0,0.0,0.0,0.0,0.0,0.0,0.0,0.0,0.0,0.0,0.0,0.0,0.0,0.0,0.0,0.0,0.0,0.0,0.0,0.0,0.0,0.0,0.0,0.0,0.0,0.0,0.0,0.0,0.0,0.0,0.0,0.0,0.0,0.0,0.0,0.0,0.0,0.0,0.0,0.0,0.0,0.0,0.0,0.0,0.0,0.0,0.0,0.0,0.0,0.0,0.0,0.0,0.0,0.0,0.0,0.0,0.0,0.0,0.0,0.2173,0.2327,0.2324,0.232,0.2322,0.2318,0.2472,0.247,0.2469,0.247,0.247,0.2476,0.2491,0.2489,0.2499,0.2975,0.3918,-0.1994,-0.0815,-0.0163,0.0,0.0,0.0,0.0,0.0,0.0,0.0,0.0,0.0,0.0,0.0,0.0,0.0,0.0,0.0,0.0,0.0,0.0,0.0,0.0,0.0,0.0,0.0,0.0,0.0,0.0,0.0,0.0,0.0,0.0,0.0,0.0,0.0,0.0,0.0,0.0,0.0,0.0,0.0,0.0,0.0,0.0,0.0,0.0,0.0,0.0,0.0,0.0,0.0,0.0,0.0,0.0,0.0,0.0,0.0,0.0,0.0,0.0,0.0,0.0,0.0,0.0,0.0,0.0,0.0,0.0,0.0,0.0,0.0,0.0,0.0,0.0,0.0,0.0,0.0,0.0,0.0,0.0,0.0,0.0,0.0,0.0,0.0,0.0,0.0,0.0,0.0,0.0,0.0,0.0,0.0,0.0,0.0,0.0,0.0,0.2347,0.2353,0.2514,0.2514,0.2514,0.2514,0.2514,0.2514,0.2514,0.2514,0.2514,0.2514,0.251,0.2504,0.2978,0.3918,0.5016,-0.266,-0.2121,0.0,0.0,0.0,0.0,0.0,0.0,0.0,0.0,0.0,0.0,0.0,0.0,0.0,0.0,0.0,0.0,0.0,0.0,0.0,0.0,0.0,0.0,0.0,0.0,0.0,0.0,0.0,0.0,0.0,0.0,0.0,0.0,0.0,0.0,0.0,0.0,0.0,0.0,0.0,0.0,0.0,0.0,0.0,0.0,0.0,0.0,0.0,0.0,0.0,0.0,0.0,0.0,0.0,0.0,0.0,0.0,0.0,0.0,0.0,0.0,0.0,0.0,0.0,0.0,0.0,0.0,0.0,0.0,0.0,0.0,0.0,0.0,0.0,0.0,0.0,0.0,0.0,0.0,0.0,0.0,0.0,0.0,0.0,0.0,0.0,0.0,0.0,0.0,0.0,0.0,0.0,0.0,0.1728,0.0,0.0,0.2512,0.2511,0.2514,0.2514,0.2514,0.2514,0.2514,0.2514,0.2514,0.2514,0.2514,0.2828,0.2828,0.2671,0.3142,0.4236,0.5329,0.6264,-0.0829,-0.0823,-0.0327,0.0,0.0,0.0,0.0,0.0,0.0,0.0,0.0,0.0,0.0,0.0,0.0,0.0,0.0,0.0,0.0,0.0,0.0,0.0,0.0,0.0,0.0,0.0,0.0,0.0,0.0,0.0,0.0,0.0,0.0,0.0,0.0,0.0,0.0,0.0,0.0,0.0,0.0,0.0,0.0,0.0,0.0,0.0,0.0,0.0,0.0,0.0,0.0,0.0,0.0,0.0,0.0,0.0,0.0,0.0,0.0,0.0,0.0,0.0,0.0,0.0,0.0,0.0,0.0,0.0,0.0,0.0,0.0,0.0,0.0,0.0,0.0,0.0,0.0,0.0,0.0,0.0,0.0,0.0,0.0,0.0,0.0,0.0,0.0,0.0,0.0,0.0,0.0,0.0,0.0,0.1571,0.22,0.2518,0.2523,0.2521,0.2518,0.2514,0.2514,0.2514,0.2514,0.2514,0.2514,0.2517,0.2517,0.2831,0.3147,0.3774,0.4247,0.487,0.5802,0.6911,0.805,0.0,0.0,0.0,0.0,0.0,0.0,0.0,0.0,0.0,0.0,0.0,0.0,0.0,0.0,0.0,0.0,0.0,0.0,0.0,0.0,0.0,0.0,0.0,0.0,0.0,0.0,0.0,0.0,0.0,0.0,0.0,0.0,0.0,0.0,0.0,0.0,0.0,0.0,0.0,0.0,0.0,0.0,0.0,0.0,0.0,0.0,0.0,0.0,0.0,0.0,0.0,0.0,0.0,0.0,0.0,0.0,0.0,0.0,0.0,0.0,0.0,0.0,0.0,0.0,0.0,0.0,0.0,0.0,0.0,0.0,0.0,0.0,0.0,0.0,0.0,0.0,0.0,0.0,0.0,0.0,0.0,0.0,0.0,0.0,0.0,0.0,0.0,0.0,0.0,0.0,0.0,0.0,0.0,0.22,0.2358,0.2522,0.2532,0.2527,0.2523,0.2518,0.2514,0.2514,0.2514,0.2514,0.2514,0.2527,0.2529,0.3482,0.4117,0.49,0.5704,0.6539,0.7369,0.8659,0.9827,0.0,0.0,0.0,0.0,0.0,0.0,0.0,0.0,0.0,0.0,0.0,0.0,0.0,0.0,0.0,0.0,0.0,0.0,0.0,0.0,0.0,0.0,0.0,0.0,0.0,0.0,0.0,0.0,0.0,0.0,0.0,0.0,0.0,0.0,0.0,0.0,0.0,0.0,0.0,0.0,0.0,0.0,0.0,0.0,0.0,0.0,0.0,0.0,0.0,0.0,0.0,0.0,0.0,0.0,0.0,0.0,0.0,0.0,0.0,0.0,0.0,0.0,0.0,0.0,0.0,0.0,0.0,0.0,0.0,0.0,0.0,0.0,0.0,0.0,0.0,0.0,0.0,0.0,0.0,0.0,0.0,0.0,0.0,0.0,0.0,0.0,0.0,0.0,0.0,0.0,0.0,0.1737,0.2377,0.2381,0.2548,0.2552,0.256,0.2557,0.2551,0.2545,0.2536,0.2534,0.2534,0.2532,0.2843,0.2698,0.3185,0.415,0.5442,0.6574,0.7263,0.7986,0.915,1.0611,1.1126,0.0,0.0,0.0,0.0,0.0,0.0,0.0,0.0,0.0,0.0,0.0,0.0,0.0,0.0,0.0,0.0,0.0,0.0,0.0,0.0,0.0,0.0,0.0,0.0,0.0,0.0,0.0,0.0,0.0,0.0,0.0,0.0,0.0,0.0,0.0,0.0,0.0,0.0,0.0,0.0,0.0,0.0,0.0,0.0,0.0,0.0,0.0,0.0,0.0,0.0,0.0,0.0,0.0,0.0,0.0,0.0,0.0,0.0,0.0,0.0,0.0,0.0,0.0,0.0,0.0,0.0,0.0,0.0,0.0,0.0,0.0,0.0,0.0,0.0,0.0,0.0,0.0,0.0,0.0,0.0,0.0,0.0,0.0,0.0,0.0,0.0,0.0,0.0,0.0,0.112,0.1924,0.2094,0.2585,0.2583,0.2585,0.2587,0.259,0.259,0.2589,0.2751,0.2742,0.2738,0.2579,0.2581,0.3529,0.3695,0.4351,0.5172,0.6482,0.8293,0.9154,1.0035,1.1382,1.2553,1.2572,0.0,0.0,0.0,0.0,0.0,0.0,0.0,0.0,0.0,0.0,0.0,0.0,0.0,0.0,0.0,0.0,0.0,0.0,0.0,0.0,0.0,0.0,0.0,0.0,0.0,0.0,0.0,0.0,0.0,0.0,0.0,0.0,0.0,0.0,0.0,0.0,0.0,0.0,0.0,0.0,0.0,0.0,0.0,0.0,0.0,0.0,0.0,0.0,0.0,0.0,0.0,0.0,0.0,0.0,0.0,0.0,0.0,0.0,0.0,0.0,0.0,0.0,0.0,0.0,0.0,0.0,0.0,0.0,0.0,0.0,0.0,0.0,0.0,0.0,0.0,0.0,0.0,0.0,0.0,0.0,0.0,0.0,0.0,0.0,0.0,0.0,0.0,0.0,0.1129,0.211,0.2608,0.2612,0.2612,0.2605,0.2609,0.2613,0.262,0.262,0.3135,0.3134,0.3431,0.3424,0.3905,0.4065,0.4548,0.5039,0.5869,0.687,0.8367,0.9876,1.1077,1.1983,1.3058,1.3397,1.3417,0.0,0.0,0.0,0.0,0.0,0.0,0.0,0.0,0.0,0.0,0.0,0.0,0.0,0.0,0.0,0.0,0.0,0.0,0.0,0.0,0.0,0.0,0.0,0.0,0.0,0.0,0.0,0.0,0.0,0.0,0.0,0.0,0.0,0.0,0.0,0.0,0.0,0.0,0.0,0.0,0.0,0.0,0.0,0.0,0.0,0.0,0.0,0.0,0.0,0.0,0.0,0.0,0.0,0.0,0.0,0.0,0.0,0.0,0.0,0.0,0.0,0.0,0.0,0.0,0.0,0.0,0.0,0.0,0.0,0.0,0.0,0.0,0.0,0.0,0.0,0.0,0.0,0.0,0.0,0.0,0.0,0.0,0.0,0.0,0.0,0.0,0.0,0.0,0.1797,0.2298,0.2631,0.2631,0.2627,0.262,0.2627,0.2637,0.2645,0.2654,0.353,0.4036,0.4624,0.4928,0.5561,0.6211,0.7233,0.7749,0.7921,0.9104,1.0282,1.1317,1.2191,1.303,1.3688,1.3627,1.362,0.0,0.0,0.0,0.0,0.0,0.0,0.0,0.0,0.0,0.0,0.0,0.0,0.0,0.0,0.0,0.0,0.0,0.0,0.0,0.0,0.0,0.0,0.0,0.0,0.0,0.0,0.0,0.0,0.0,0.0,0.0,0.0,0.0,0.0,0.0,0.0,0.0,0.0,0.0,0.0,0.0,0.0,0.0,0.0,0.0,0.0,0.0,0.0,0.0,0.0,0.0,0.0,0.0,0.0,0.0,0.0,0.0,0.0,0.0,0.0,0.0,0.0,0.0,0.0,0.0,0.0,0.0,0.0,0.0,0.0,0.0,0.0,0.0,0.0,0.0,0.0,0.0,0.0,0.0,0.0,0.0,0.0,0.0,0.0,0.0,0.0,0.0983,0.2143,0.2482,0.2656,0.2656,0.2654,0.2654,0.2653,0.2667,0.2673,0.301,0.3184,0.4068,0.4932,0.5513,0.6158,0.6811,0.8488,1.0533,1.0367,0.9492,1.0169,1.118,1.2247,1.2977,1.3412,1.3668,1.3709,1.3736,0.0,0.0,0.0,0.0,0.0,0.0,0.0,0.0,0.0,0.0,0.0,0.0,0.0,0.0,0.0,0.0,0.0,0.0,0.0,0.0,0.0,0.0,0.0,0.0,0.0,0.0,0.0,0.0,0.0,0.0,0.0,0.0,0.0,0.0,0.0,0.0,0.0,0.0,0.0,0.0,0.0,0.0,0.0,0.0,0.0,0.0,0.0,0.0,0.0,0.0,0.0,0.0,0.0,0.0,0.0,0.0,0.0,0.0,0.0,0.0,0.0,0.0,0.0,0.0,0.0,0.0,0.0,0.0,0.0,0.0,0.0,0.0,0.0,0.0,0.0,0.0,0.0,0.0,0.0,0.0,0.0,0.0,0.0,0.0,0.1167,0.1508,0.1004,0.1849,0.2502,0.2677,0.268,0.2682,0.2686,0.2691,0.2706,0.2881,0.3387,0.3899,0.459,0.5767,0.6707,0.7398,0.8117,0.9445,1.0742,1.0576,1.0044,1.0893,1.1558,1.1742,1.2284,1.303,1.358,1.3587,1.362,0.0,0.0,0.0,0.0,0.0,0.0,0.0,0.0,0.0,0.0,0.0,0.0,0.0,0.0,0.0,0.0,0.0,0.0,0.0,0.0,0.0,0.0,0.0,0.0,0.0,0.0,0.0,0.0,0.0,0.0,0.0,0.0,0.0,0.0,0.0,0.0,0.0,0.0,0.0,0.0,0.0,0.0,0.0,0.0,0.0,0.0,0.0,0.0,0.0,0.0,0.0,0.0,0.0,0.0,0.0,0.0,0.0,0.0,0.0,0.0,0.0,0.0,0.0,0.0,0.0,0.0,0.0,0.0,0.0,0.0,0.0,0.0,0.0,0.0,0.0,0.0,0.0,0.0172,0.0,0.0,0.0,0.0,0.0,0.1542,0.2231,0.2574,0.1884,0.1705,0.2367,0.2692,0.2692,0.2692,0.2692,0.2692,0.2705,0.2725,0.3237,0.3741,0.4599,0.5761,0.6727,0.6227,0.6573,0.891,0.9888,0.9893,1.0732,1.1896,1.2063,1.1558,1.1908,1.3138,1.3485,1.3471,1.3512,0.0,0.0,0.0,0.0,0.0,0.0,0.0,0.0,0.0,0.0,0.0,0.0,0.0,0.0,0.0,0.0,0.0,0.0,0.0,0.0,0.0,0.0,0.0,0.0,0.0,0.0,0.0,0.0,0.0,0.0,0.0,0.0,0.0,0.0,0.0,0.0,0.0,0.0,0.0,0.0,0.0,0.0,0.0,0.0,0.0,0.0,0.0,0.0,0.0,0.0,0.0,0.0,0.0,0.0,0.0,0.0,0.0,0.0,0.0,0.0,0.0,0.0,0.0,0.0,0.0,0.0,0.0,0.0,0.0,0.0,0.0,0.0,0.0,0.0,0.0,0.0,0.0,0.1064,0.158,0.0694,0.1389,0.2255,0.2086,0.2085,0.2251,0.2586,0.24,0.2214,0.2532,0.2692,0.2692,0.2692,0.2692,0.2692,0.2697,0.272,0.2901,0.3056,0.3733,0.4574,0.5053,0.4029,0.486,0.8373,0.9873,1.0034,1.1208,1.2388,1.2561,1.2063,1.2567,1.341,1.3424,1.3437,1.3424,0.0,0.0,0.0,0.0,0.0,0.0,0.0,0.0,0.0,0.0,0.0,0.0,0.0,0.0,0.0,0.0,0.0,0.0,0.0,0.0,0.0,0.0,0.0,0.0,0.0,0.0,0.0,0.0,0.0,0.0,0.0,0.0,0.0,0.0,0.0,0.0,0.0,0.0,0.0,0.0,0.0,0.0,0.0,0.0,0.0,0.0,0.0,0.0,0.0,0.0,0.0,0.0,0.0,0.0,0.0,0.0,0.0,0.0,0.0,0.0,0.0,0.0,0.0,0.0,0.0,0.0,0.0,0.0,0.0,0.0,0.0,0.0,0.0,0.0,0.0,0.0,0.1436,0.2335,0.196,0.1413,0.1589,0.2114,0.2632,0.2626,0.2441,0.2598,0.2748,0.2724,0.2697,0.2692,0.2692,0.2695,0.2697,0.2703,0.2702,0.2714,0.3067,0.3225,0.3549,0.4389,0.5222,0.52,0.6867,0.9711,1.0372,1.0865,1.0538,1.1225,1.1896,1.2561,1.2899,1.3238,1.3403,1.3397,1.3397,0.0,0.0,0.0,0.0,0.0,0.0,0.0,0.0,0.0,0.0,0.0,0.0,0.0,0.0,0.0,0.0,0.0,0.0,0.0,0.0,0.0,0.0,0.0,0.0,0.0,0.0,0.0,0.0,0.0,0.0,0.0,0.0,0.0,0.0,0.0,0.0,0.0,0.0,0.0,0.0,0.0,0.0,0.0,0.0,0.0,0.0,0.0,0.0,0.0,0.0,0.0,0.0,0.0,0.0,0.0,0.0,0.0,0.0,0.0,0.0,0.0,0.0,0.0,0.0,0.0,0.0,0.0,0.0,0.0,0.0,0.0,0.0,0.0,0.0,0.0,0.0539,0.1973,0.2867,0.268,0.2315,0.1967,0.2134,0.2644,0.2801,0.2611,0.2592,0.2743,0.2724,0.2701,0.2694,0.2694,0.2698,0.2703,0.2714,0.2714,0.271,0.3225,0.3893,0.4551,0.5382,0.6546,0.7535,0.9373,1.1053,1.1896,1.2229,1.1231,1.0726,1.2063,1.2899,1.3065,1.3231,1.3403,1.3403,1.3397,0.0,0.0,0.0,0.0,0.0,0.0,0.0,0.0,0.0,0.0,0.0,0.0,0.0,0.0,0.0,0.0,0.0,0.0,0.0,0.0,0.0,0.0,0.0,0.0,0.0,0.0,0.0,0.0,0.0,0.0,0.0,0.0,0.0,0.0,0.0,0.0,0.0,0.0,0.0,0.0,0.0,0.0,0.0,0.0,0.0,0.0,0.0,0.0,0.0,0.0,0.0,0.0,0.0,0.0,0.0,0.0,0.0,0.0,0.0,0.0,0.0,0.0,0.0,0.0,0.0,0.0,0.0,0.0,0.0,0.0,0.0,0.0,0.2153,0.1971,0.1251,0.1432,0.2506,0.2841,0.2836,0.2825,0.2291,0.2469,0.281,0.2793,0.2777,0.2757,0.2736,0.2717,0.2703,0.2697,0.2692,0.2695,0.2698,0.2707,0.2712,0.2709,0.3551,0.4387,0.5552,0.654,0.804,0.9373,1.071,1.2222,1.3078,1.3417,1.2567,1.2395,1.3065,1.3231,1.3231,1.3238,1.3403,1.3403,1.3437,0.0,0.0,0.0,0.0,0.0,0.0,0.0,0.0,0.0,0.0,0.0,0.0,0.0,0.0,0.0,0.0,0.0,0.0,0.0,0.0,0.0,0.0,0.0,0.0,0.0,0.0,0.0,0.0,0.0,0.0,0.0,0.0,0.0,0.0,0.0,0.0,0.0,0.0,0.0,0.0,0.0,0.0,0.0,0.0,0.0,0.0,0.0,0.0,0.0,0.0,0.0,0.0,0.0,0.0,0.0,0.0,0.0,0.0,0.0,0.0,0.0,0.0,0.0,0.0,0.0,0.0,0.0,0.0,0.0,0.1413,0.1237,0.1763,0.2293,0.2294,0.1947,0.2124,0.2476,0.2639,0.28,0.2789,0.2782,0.2789,0.2793,0.278,0.2762,0.2743,0.2724,0.2706,0.2698,0.2694,0.2692,0.2692,0.2694,0.2695,0.2698,0.2697,0.3875,0.488,0.6724,0.7881,0.9716,1.122,1.2247,1.2746,1.3244,1.341,1.341,1.341,1.3258,1.3417,1.3397,1.3464,1.3532,1.3553,1.3627,0.0,0.0,0.0,0.0,0.0,0.0,0.0,0.0,0.0,0.0,0.0,0.0,0.0,0.0,0.0,0.0,0.0,0.0,0.0,0.0,0.0,0.0,0.0,0.0,0.0,0.0,0.0,0.0,0.0,0.0,0.0,0.0,0.0,0.0,0.0,0.0,0.0,0.0,0.0,0.0,0.0,0.0,0.0,0.0,0.0,0.0,0.0,0.0,0.0,0.0,0.0,0.0,0.0,0.0,0.0,0.0,0.0,0.0,0.0,0.0,0.0,0.0,0.0,0.0,0.0,0.0179,0.0,0.0,0.0,0.2121,0.2456,0.2104,0.2274,0.2624,0.2618,0.2791,0.2791,0.2792,0.2797,0.2803,0.2792,0.2769,0.2767,0.2759,0.2746,0.2728,0.271,0.2697,0.2694,0.2694,0.2692,0.2692,0.2694,0.2694,0.2862,0.3197,0.4201,0.5717,0.7394,0.9254,1.1294,1.2315,1.3017,1.3331,1.3492,1.3539,1.3614,1.3532,1.3458,1.3498,1.3546,1.3634,1.3688,1.3736,1.3858,0.0,0.0,0.0,0.0,0.0,0.0,0.0,0.0,0.0,0.0,0.0,0.0,0.0,0.0,0.0,0.0,0.0,0.0,0.0,0.0,0.0,0.0,0.0,0.0,0.0,0.0,0.0,0.0,0.0,0.0,0.0,0.0,0.0,0.0,0.0,0.0,0.0,0.0,0.0,0.0,0.0,0.0,0.0,0.0,0.0,0.0,0.0,0.0,0.0,0.0,0.0,0.0,0.0,0.0,0.0,0.0,0.0,0.0,0.0,0.0,0.0,0.0,0.0,0.0,0.0,0.201,0.2556,0.2371,0.2343,0.2154,0.2499,0.2666,0.2642,0.2625,0.2797,0.2803,0.28,0.2788,0.2796,0.2812,0.2803,0.2777,0.277,0.2767,0.2757,0.2742,0.2721,0.2706,0.2699,0.2699,0.2694,0.2692,0.2695,0.2865,0.3032,0.3879,0.542,0.7116,0.8973,1.0867,1.2783,1.3472,1.3641,1.3729,1.3756,1.3783,1.381,1.381,1.3777,1.3688,1.3709,1.3824,1.4014,1.415,1.4265,0.0,0.0,0.0,0.0,0.0,0.0,0.0,0.0,0.0,0.0,0.0,0.0,0.0,0.0,0.0,0.0,0.0,0.0,0.0,0.0,0.0,0.0,0.0,0.0,0.0,0.0,0.0,0.0,0.0,0.0,0.0,0.0,0.0,0.0,0.0,0.0,0.0,0.0,0.0,0.0,0.0,0.0,0.0,0.0,0.0,0.0,0.0,0.0,0.0,0.0,0.0,0.0,0.0,0.0,0.0,0.0,0.0,0.0,0.0,0.0,0.0,0.0,0.0,0.185,0.1671,0.2205,0.255,0.2543,0.2726,0.2533,0.2674,0.2851,0.2846,0.2822,0.2814,0.2821,0.2821,0.2812,0.2812,0.2836,0.2812,0.2782,0.2781,0.2781,0.277,0.2757,0.2736,0.2721,0.2721,0.2722,0.2724,0.2722,0.2728,0.3576,0.3917,0.5288,0.6669,0.8543,1.0588,1.2039,1.3495,1.3606,1.3797,1.3905,1.4007,1.4021,1.4061,1.4122,1.4089,1.398,1.3987,1.4061,1.4278,1.4523,1.4638,0.0,0.0,0.0,0.0,0.0,0.0,0.0,0.0,0.0,0.0,0.0,0.0,0.0,0.0,0.0,0.0,0.0,0.0,0.0,0.0,0.0,0.0,0.0,0.0,0.0,0.0,0.0,0.0,0.0,0.0,0.0,0.0,0.0,0.0,0.0,0.0,0.0,0.0,0.0,0.0,0.0,0.0,0.0,0.0,0.0,0.0,0.0,0.0,0.0,0.0,0.0,0.0,0.0,0.0,0.0,0.0,0.0,0.0,0.0573,0.0,0.0,0.0,0.1893,0.2633,0.2804,0.2413,0.2596,0.2947,0.293,0.2901,0.2871,0.2883,0.2875,0.2851,0.2844,0.2848,0.2857,0.2855,0.2855,0.2861,0.2844,0.2849,0.2852,0.2856,0.2815,0.2801,0.2781,0.2772,0.2774,0.2776,0.2777,0.2774,0.2772,0.3977,0.5176,0.656,0.7948,0.9884,1.1641,1.2619,1.3713,1.384,1.4089,1.4278,1.434,1.4285,1.4326,1.4421,1.4353,1.4245,1.4326,1.4441,1.457,1.4801,1.4909,0.0,0.0,0.0,0.0,0.0,0.0,0.0,0.0,0.0,0.0,0.0,0.0,0.0,0.0,0.0,0.0,0.0,0.0,0.0,0.0,0.0,0.0,0.0,0.0,0.0,0.0,0.0,0.0,0.0,0.0,0.0,0.0,0.0,0.0,0.0,0.0,0.0,0.0,0.0,0.0,0.0,0.0,0.0,0.0,0.0,0.0,0.0,0.0,0.0,0.0,0.0,0.0,0.0,0.0,0.0,0.0,0.0,0.1145,0.2482,0.0954,0.0,0.0,0.2282,0.304,0.3044,0.304,0.2841,0.3003,0.3002,0.2981,0.2958,0.2935,0.2913,0.2897,0.2891,0.2893,0.2905,0.29,0.29,0.29,0.293,0.2954,0.2951,0.2938,0.2882,0.2849,0.2829,0.2823,0.2827,0.2822,0.2822,0.3176,0.3348,0.4936,0.6332,0.7683,0.9078,1.1052,1.2559,1.3584,1.4209,1.4216,1.4502,1.4658,1.4652,1.4584,1.4645,1.4726,1.4658,1.4624,1.4767,1.4889,1.4984,1.5025,1.5086,0.0,0.0,0.0,0.0,0.0,0.0,0.0,0.0,0.0,0.0,0.0,0.0,0.0,0.0,0.0,0.0,0.0,0.0,0.0,0.0,0.0,0.0,0.0,0.0,0.0,0.0,0.0,0.0,0.0,0.0,0.0,0.0,0.0,0.0,0.0,0.0,0.0,0.0,0.0,0.0,0.0,0.0,0.0,0.0,0.0,0.0,0.0,0.0,0.0,0.0,0.0,0.0,0.0,0.0,0.0,0.1527,0.1909,0.1908,0.248,0.1716,0.2098,0.2288,0.2479,0.3052,0.3052,0.3052,0.3052,0.3052,0.3041,0.3017,0.2994,0.3006,0.2994,0.2975,0.2968,0.2968,0.2971,0.2951,0.3126,0.2942,0.2961,0.2962,0.2962,0.2976,0.2938,0.2916,0.2897,0.2886,0.2887,0.2868,0.2859,0.3582,0.4301,0.5929,0.7359,0.8748,1.0728,1.2794,1.379,1.4262,1.4699,1.4706,1.4746,1.4814,1.4855,1.4889,1.4896,1.4916,1.4991,1.5038,1.5059,1.5072,1.5092,1.5106,1.514,0.0,0.0,0.0,0.0,0.0,0.0,0.0,0.0,0.0,0.0,0.0,0.0,0.0,0.0,0.0,0.0,0.0,0.0,0.0,0.0,0.0,0.0,0.0,0.0,0.0,0.0,0.0,0.0,0.0,0.0,0.0,0.0,0.0,0.0,0.0,0.0,0.0,0.0,0.0,0.0,0.0,0.0,0.0,0.0,0.0,0.0,0.0,0.0,0.0,0.0,0.0,0.0,0.0,0.0,0.0,0.1718,0.2672,0.248,0.248,0.2671,0.2862,0.2862,0.3052,0.3052,0.3052,0.3052,0.3052,0.3052,0.3052,0.3041,0.3029,0.305,0.3041,0.302,0.3018,0.3017,0.3013,0.2994,0.3176,0.299,0.2979,0.2975,0.2971,0.2987,0.2988,0.2977,0.2968,0.2957,0.2947,0.2932,0.31,0.3655,0.4755,0.6413,0.8247,1.0053,1.2107,1.4428,1.4841,1.4875,1.4903,1.4896,1.4936,1.497,1.4997,1.5025,1.5059,1.5092,1.5106,1.5126,1.5147,1.516,1.5181,1.5181,1.5181,0.0,0.0,0.0,0.0,0.0,0.0,0.0,0.0,0.0,0.0,0.0,0.0,0.0,0.0,0.0,0.0,0.0,0.0,0.0,0.0,0.0,0.0,0.0,0.0,0.0,0.0,0.0,0.0,0.0,0.0,0.0,0.0,0.0,0.0,0.0,0.0,0.0,0.0,0.0,0.0,0.0,0.0,0.0,0.0,0.0,0.0,0.0,0.0,0.0,0.0,0.0,0.0,0.0,0.0,0.0,0.0572,0.2099,0.248,0.3052,0.3052,0.3052,0.3052,0.3052,0.3052,0.3052,0.3052,0.3052,0.3052,0.3052,0.3052,0.3052,0.3052,0.3051,0.3046,0.3046,0.3046,0.3046,0.3041,0.304,0.3033,0.3017,0.3007,0.2995,0.3006,0.302,0.3017,0.3007,0.3007,0.3002,0.3013,0.3189,0.3566,0.4876,0.692,0.8962,1.0976,1.2847,1.4964,1.497,1.4997,1.5031,1.5052,1.5059,1.5072,1.5126,1.5147,1.5133,1.514,1.516,1.5181,1.5181,1.5181,1.5181,1.5181,1.5181,0.0,0.0,0.0,0.0,0.0,0.0,0.0,0.0,0.0,0.0,0.0,0.0,0.0,0.0,0.0,0.0,0.0,0.0,0.0,0.0,0.0,0.0,0.0,0.0,0.0,0.0,0.0,0.0,0.0,0.0,0.0,0.0,0.0,0.0,0.0,0.0,0.0,0.0,0.0,0.0,0.0,0.0,0.0,0.0,0.0,0.0,0.0,0.0,0.0,0.0,0.0,0.0,0.0,0.0,0.0191,0.0954,0.1716,0.2098,0.2862,0.3052,0.3052,0.3052,0.3052,0.3052,0.3052,0.3052,0.3052,0.3052,0.3052,0.3052,0.3052,0.3052,0.3052,0.3052,0.3052,0.3052,0.3052,0.3052,0.3051,0.3041,0.3026,0.3022,0.3013,0.3025,0.3037,0.3041,0.3043,0.3041,0.3043,0.3048,0.324,0.3429,0.57,0.7739,0.9821,1.1865,1.3578,1.4919,1.5099,1.5086,1.5092,1.5106,1.514,1.5153,1.5167,1.5174,1.5174,1.5181,1.5181,1.5181,1.5181,1.5181,1.5181,1.5181,1.5181,0.0,0.0,0.0,0.0,0.0,0.0,0.0,0.0,0.0,0.0,0.0,0.0,0.0,0.0,0.0,0.0,0.0,0.0,0.0,0.0,0.0,0.0,0.0,0.0,0.0,0.0,0.0,0.0,0.0,0.0,0.0,0.0,0.0,0.0,0.0,0.0,0.0,0.0,0.0,0.0,0.0,0.0,0.0,0.0,0.0,0.0,0.0,0.0,0.0,0.0954,0.1145,0.0,0.0,0.0,0.0763,0.1526,0.2098,0.2479,0.3052,0.3052,0.3052,0.3052,0.3052,0.3052,0.3052,0.3052,0.3052,0.3052,0.3052,0.3052,0.3052,0.3052,0.3052,0.3052,0.3052,0.3052,0.3052,0.3052,0.3046,0.3037,0.3032,0.3028,0.3032,0.3046,0.3047,0.3036,0.3039,0.3048,0.3048,0.305,0.3051,0.3242,0.609,0.8916,1.0635,1.215,1.4027,1.5153,1.5153,1.5147,1.5147,1.5147,1.516,1.5167,1.5181,1.5181,1.5181,1.5181,1.5181,1.5181,1.5181,1.5181,1.5181,1.5181,1.5181,0.0,0.0,0.0,0.0,0.0,0.0,0.0,0.0,0.0,0.0,0.0,0.0,0.0,0.0,0.0,0.0,0.0,0.0,0.0,0.0,0.0,0.0,0.0,0.0,0.0,0.0,0.0,0.0,0.0,0.0,0.0,0.0,0.0,0.0,0.0,0.0,0.0,0.0,0.0,0.0,0.0,0.0,0.0,0.0,0.0,0.0,0.0,0.0,0.0954,0.229,0.3054,0.2862,0.248,0.2098,0.1716,0.1907,0.2479,0.2862,0.3052,0.3052,0.3052,0.3052,0.3052,0.3052,0.3052,0.3052,0.3052,0.3052,0.3052,0.3052,0.3052,0.3052,0.3052,0.3052,0.3052,0.3052,0.3052,0.3051,0.3047,0.3041,0.3041,0.3037,0.3029,0.3039,0.305,0.3032,0.3032,0.305,0.3052,0.3052,0.3243,0.3434,0.647,0.9122,1.0257,1.1962,1.4234,1.5181,1.5181,1.516,1.5133,1.5153,1.5181,1.5181,1.5181,1.5181,1.5181,1.5181,1.5181,1.5181,1.5181,1.5181,1.5181,1.5181,1.5181,0.0,0.0,0.0,0.0,0.0,0.0,0.0,0.0,0.0,0.0,0.0,0.0,0.0,0.0,0.0,0.0,0.0,0.0,0.0,0.0,0.0,0.0,0.0,0.0,0.0,0.0,0.0,0.0,0.0,0.0,0.0,0.0,0.0,0.0,0.0,0.0,0.0,0.0,0.0,0.0,0.0,0.0,0.0,0.0,0.0,0.0,0.0,0.0,0.1336,0.2671,0.3052,0.3052,0.3052,0.2862,0.2671,0.2862,0.2862,0.3052,0.3052,0.3052,0.3052,0.3052,0.3052,0.3052,0.3052,0.3052,0.3052,0.3052,0.3052,0.3052,0.3052,0.3052,0.3052,0.3052,0.3052,0.3052,0.3052,0.305,0.3047,0.3048,0.305,0.3043,0.3033,0.3035,0.3043,0.3047,0.3047,0.3052,0.3052,0.3243,0.3815,0.4385,0.685,0.9122,1.0257,1.1956,1.4422,1.5181,1.5181,1.5153,1.5126,1.5153,1.5181,1.5181,1.5181,1.5181,1.5181,1.5181,1.5181,1.5181,1.5181,1.5181,1.5181,1.5181,1.5181,0.0,0.0,0.0,0.0,0.0,0.0,0.0,0.0,0.0,0.0,0.0,0.0,0.0,0.0,0.0,0.0,0.0,0.0,0.0,0.0,0.0,0.0,0.0,0.0,0.0,0.0,0.0,0.0,0.0,0.0,0.0,0.0,0.0,0.0,0.0,0.0,0.0,0.0,0.0,0.0,0.0,0.0,0.0,0.0,0.0,0.0,0.0,0.0763,0.1907,0.2862,0.3052,0.3052,0.3052,0.3052,0.3052,0.3052,0.3052,0.3052,0.3052,0.3052,0.3052,0.3052,0.3052,0.3052,0.3052,0.3052,0.3052,0.3052,0.3052,0.3052,0.3052,0.3052,0.3052,0.3052,0.3052,0.3052,0.3052,0.3051,0.305,0.3051,0.3051,0.305,0.3043,0.3043,0.305,0.305,0.3052,0.3052,0.3052,0.3434,0.4004,0.5335,0.7799,0.969,1.1202,1.2716,1.4798,1.5181,1.5181,1.5167,1.5153,1.5167,1.5181,1.5181,1.5181,1.5181,1.5181,1.5181,1.5181,1.5181,1.5181,1.5181,1.5181,1.5181,1.5181,0.0,0.0,0.0,0.0,0.0,0.0,0.0,0.0,0.0,0.0,0.0,0.0,0.0,0.0,0.0,0.0,0.0,0.0,0.0,0.0,0.0,0.0,0.0,0.0,0.0,0.0,0.0,0.0,0.0,0.0,0.0,0.0,0.0,0.0,0.0,0.0,0.0,0.0,0.0,0.0,0.0,0.0,0.0,0.0,0.0191,0.0191,0.0954,0.1716,0.3052,0.3052,0.3052,0.3052,0.3052,0.3052,0.3052,0.3052,0.3052,0.3052,0.3052,0.3052,0.3052,0.3052,0.3052,0.3052,0.3052,0.3052,0.3052,0.3052,0.3052,0.3052,0.3052,0.3052,0.3052,0.3052,0.3052,0.3052,0.3052,0.3052,0.3052,0.3052,0.3052,0.3052,0.3052,0.3052,0.3052,0.3052,0.3052,0.3052,0.3243,0.3813,0.4385,0.6093,0.8368,1.0257,1.1768,1.3469,1.5181,1.5181,1.5181,1.5181,1.5181,1.5181,1.5181,1.5181,1.5181,1.5181,1.5181,1.5181,1.5181,1.5181,1.5181,1.5181,1.5181,1.5181,1.5181,0.0,0.0,0.0,0.0,0.0,0.0,0.0,0.0,0.0,0.0,0.0,0.0,0.0,0.0,0.0,0.0,0.0,0.0,0.0,0.0,0.0,0.0,0.0,0.0,0.0,0.0,0.0,0.0,0.0,0.0,0.0,0.0,0.0,0.0,0.0,0.0,0.0,0.0573,0.1526,0.2099,0.2289,0.2289,0.248,0.1907,0.0954,0.1335,0.2098,0.2862,0.3052,0.3052,0.3052,0.3052,0.3052,0.3052,0.3052,0.3052,0.3052,0.3052,0.3052,0.3052,0.3052,0.3052,0.3052,0.3052,0.3052,0.3052,0.3052,0.3052,0.3052,0.3052,0.3052,0.3052,0.3052,0.3052,0.3052,0.3052,0.3052,0.3052,0.3052,0.3052,0.3052,0.3052,0.3052,0.3052,0.3052,0.3052,0.3052,0.3052,0.3243,0.3813,0.4764,0.685,0.9126,1.0446,1.1768,1.3852,1.5181,1.5181,1.5181,1.5181,1.5181,1.5181,1.5181,1.5181,1.5181,1.5181,1.5181,1.5181,1.5181,1.5181,1.5181,1.5181,1.5181,1.5181,1.5181]}]]